<?xml version='1.0' encoding='UTF-8'?><gpx version="1.1" creator="JPX - https://github.com/jenetics/jpx" xmlns="http://www.topografix.com/GPX/1/1"><trk><trkseg><trkpt lat="44.27678903865076" lon="11.389803302587044"><ele>267.0</ele><time>2026-05-02T07:17:07.84Z</time></trkpt><trkpt lat="44.27685711287345" lon="11.389735646916229"><ele>267.0</ele><time>2026-05-02T07:17:11.839Z</time></trkpt><trkpt lat="44.276930110240315" lon="11.389676465055828"><ele>267.0</ele><time>2026-05-02T07:17:14.839Z</time></trkpt><trkpt lat="44.276986647058806" lon="11.38959482775895"><ele>267.0</ele><time>2026-05-02T07:17:17.838Z</time></trkpt><trkpt lat="44.277054068525345" lon="11.389537636193415"><ele>267.0</ele><time>2026-05-02T07:17:20.838Z</time></trkpt><trkpt lat="44.27711982396616" lon="11.389526581467734"><ele>267.0</ele><time>2026-05-02T07:17:22.838Z</time></trkpt><trkpt lat="44.27719734348772" lon="11.389583793077877"><ele>266.8333333333333</ele><time>2026-05-02T07:17:25.838Z</time></trkpt><trkpt lat="44.277274719460166" lon="11.389598234703318"><ele>266.6666666666667</ele><time>2026-05-02T07:17:27.838Z</time></trkpt><trkpt lat="44.27733875727063" lon="11.389640938991322"><ele>266.5</ele><time>2026-05-02T07:17:29.838Z</time></trkpt><trkpt lat="44.27740755098686" lon="11.389679642201697"><ele>266.33333333333337</ele><time>2026-05-02T07:17:31.838Z</time></trkpt><trkpt lat="44.27748029656993" lon="11.389725102439247"><ele>266.1666666666667</ele><time>2026-05-02T07:17:33.837Z</time></trkpt><trkpt lat="44.27755282194233" lon="11.389754294400841"><ele>266.0</ele><time>2026-05-02T07:17:35.837Z</time></trkpt><trkpt lat="44.277621690965425" lon="11.389791430471977"><ele>266.0</ele><time>2026-05-02T07:17:37.837Z</time></trkpt><trkpt lat="44.27769445147502" lon="11.38984138327806"><ele>266.0</ele><time>2026-05-02T07:17:39.837Z</time></trkpt><trkpt lat="44.2777678458948" lon="11.389874901441678"><ele>266.0</ele><time>2026-05-02T07:17:41.837Z</time></trkpt><trkpt lat="44.27783506579337" lon="11.389910466219861"><ele>266.0</ele><time>2026-05-02T07:17:43.837Z</time></trkpt><trkpt lat="44.27791086654366" lon="11.389955190523322"><ele>266.0</ele><time>2026-05-02T07:17:45.837Z</time></trkpt><trkpt lat="44.27798897462619" lon="11.389975812288938"><ele>266.0</ele><time>2026-05-02T07:17:47.837Z</time></trkpt><trkpt lat="44.27806839946744" lon="11.390008494766079"><ele>268.83333333333337</ele><time>2026-05-02T07:17:49.837Z</time></trkpt><trkpt lat="44.27815571876659" lon="11.390061813166364"><ele>271.6666666666667</ele><time>2026-05-02T07:17:51.837Z</time></trkpt><trkpt lat="44.27823368649111" lon="11.390104044735363"><ele>274.5</ele><time>2026-05-02T07:17:53.837Z</time></trkpt><trkpt lat="44.278313157587405" lon="11.390150293403266"><ele>277.3333333333333</ele><time>2026-05-02T07:17:55.837Z</time></trkpt><trkpt lat="44.27839990020029" lon="11.390176935800138"><ele>280.16666666666663</ele><time>2026-05-02T07:17:57.837Z</time></trkpt><trkpt lat="44.278480041367466" lon="11.390223459495893"><ele>283.0</ele><time>2026-05-02T07:17:59.837Z</time></trkpt><trkpt lat="44.278566589751904" lon="11.39024942225315"><ele>283.0</ele><time>2026-05-02T07:18:01.837Z</time></trkpt><trkpt lat="44.27866125319342" lon="11.390285821094622"><ele>283.0</ele><time>2026-05-02T07:18:03.836Z</time></trkpt><trkpt lat="44.27873687511925" lon="11.390325434359534"><ele>283.0</ele><time>2026-05-02T07:18:05.836Z</time></trkpt><trkpt lat="44.27881618723006" lon="11.390362286834502"><ele>283.0</ele><time>2026-05-02T07:18:07.836Z</time></trkpt><trkpt lat="44.27888930872015" lon="11.390401664634433"><ele>283.0</ele><time>2026-05-02T07:18:09.836Z</time></trkpt><trkpt lat="44.27898455710499" lon="11.390429671663014"><ele>283.0</ele><time>2026-05-02T07:18:11.836Z</time></trkpt><trkpt lat="44.279078760199205" lon="11.390448485428296"><ele>284.4</ele><time>2026-05-02T07:18:13.836Z</time></trkpt><trkpt lat="44.279176840561675" lon="11.390448774733004"><ele>285.8</ele><time>2026-05-02T07:18:15.836Z</time></trkpt><trkpt lat="44.279263716810405" lon="11.39045374953535"><ele>287.2</ele><time>2026-05-02T07:18:17.836Z</time></trkpt><trkpt lat="44.27934930278861" lon="11.390445509407407"><ele>288.6</ele><time>2026-05-02T07:18:19.836Z</time></trkpt><trkpt lat="44.279438166436876" lon="11.390432243166522"><ele>290.0</ele><time>2026-05-02T07:18:21.836Z</time></trkpt><trkpt lat="44.27958844154437" lon="11.390429301028608"><ele>290.0</ele><time>2026-05-02T07:18:24.836Z</time></trkpt><trkpt lat="44.27968518716019" lon="11.390404111164125"><ele>290.0</ele><time>2026-05-02T07:18:26.836Z</time></trkpt><trkpt lat="44.27978655480957" lon="11.390383049489788"><ele>290.0</ele><time>2026-05-02T07:18:28.836Z</time></trkpt><trkpt lat="44.279881209016686" lon="11.390385999720515"><ele>290.0</ele><time>2026-05-02T07:18:30.836Z</time></trkpt><trkpt lat="44.27997084601309" lon="11.390400927712866"><ele>290.0</ele><time>2026-05-02T07:18:32.836Z</time></trkpt><trkpt lat="44.28006555778188" lon="11.390419635028838"><ele>288.6666666666667</ele><time>2026-05-02T07:18:34.836Z</time></trkpt><trkpt lat="44.28015187488993" lon="11.39043217078253"><ele>287.33333333333337</ele><time>2026-05-02T07:18:36.836Z</time></trkpt><trkpt lat="44.28023322971436" lon="11.390444853478252"><ele>286.0</ele><time>2026-05-02T07:18:38.836Z</time></trkpt><trkpt lat="44.28032401814232" lon="11.390467179925826"><ele>284.6666666666667</ele><time>2026-05-02T07:18:40.835Z</time></trkpt><trkpt lat="44.280404887592645" lon="11.390488245481562"><ele>283.3333333333333</ele><time>2026-05-02T07:18:42.835Z</time></trkpt><trkpt lat="44.28048563048867" lon="11.390513887137113"><ele>282.0</ele><time>2026-05-02T07:18:44.835Z</time></trkpt><trkpt lat="44.28055911053928" lon="11.390531101912856"><ele>279.8333333333333</ele><time>2026-05-02T07:18:46.835Z</time></trkpt><trkpt lat="44.28063102965945" lon="11.390558016152788"><ele>277.6666666666667</ele><time>2026-05-02T07:18:48.835Z</time></trkpt><trkpt lat="44.2807128179428" lon="11.390572538945047"><ele>275.5</ele><time>2026-05-02T07:18:50.835Z</time></trkpt><trkpt lat="44.28079070549991" lon="11.390583577324408"><ele>273.33333333333337</ele><time>2026-05-02T07:18:52.835Z</time></trkpt><trkpt lat="44.280872192841834" lon="11.390590907704008"><ele>271.1666666666667</ele><time>2026-05-02T07:18:54.835Z</time></trkpt><trkpt lat="44.28095733058712" lon="11.390615811430292"><ele>269.0</ele><time>2026-05-02T07:18:56.835Z</time></trkpt><trkpt lat="44.281034372937825" lon="11.39062434386269"><ele>269.0</ele><time>2026-05-02T07:18:58.835Z</time></trkpt><trkpt lat="44.28112025183538" lon="11.390660559949396"><ele>269.0</ele><time>2026-05-02T07:19:00.835Z</time></trkpt><trkpt lat="44.28120593679509" lon="11.390694010689517"><ele>269.0</ele><time>2026-05-02T07:19:02.835Z</time></trkpt><trkpt lat="44.28129141981926" lon="11.390707864161492"><ele>269.0</ele><time>2026-05-02T07:19:04.835Z</time></trkpt><trkpt lat="44.28137938940394" lon="11.390757979079726"><ele>269.0</ele><time>2026-05-02T07:19:06.836Z</time></trkpt><trkpt lat="44.28146448131318" lon="11.390805197544173"><ele>269.59999999999997</ele><time>2026-05-02T07:19:08.836Z</time></trkpt><trkpt lat="44.28155097273972" lon="11.39086096681074"><ele>270.2</ele><time>2026-05-02T07:19:10.837Z</time></trkpt><trkpt lat="44.281649082875596" lon="11.390919516088164"><ele>270.79999999999995</ele><time>2026-05-02T07:19:12.836Z</time></trkpt><trkpt lat="44.281745313979265" lon="11.390981857759318"><ele>271.4</ele><time>2026-05-02T07:19:14.837Z</time></trkpt><trkpt lat="44.281849248290875" lon="11.391060119241407"><ele>272.0</ele><time>2026-05-02T07:19:16.836Z</time></trkpt><trkpt lat="44.2819533114394" lon="11.39113363755826"><ele>271.99999999999994</ele><time>2026-05-02T07:19:18.836Z</time></trkpt><trkpt lat="44.28200660771632" lon="11.391180539409326"><ele>272.0</ele><time>2026-05-02T07:19:19.836Z</time></trkpt><trkpt lat="44.28206284487184" lon="11.391231348117127"><ele>272.0</ele><time>2026-05-02T07:19:20.836Z</time></trkpt><trkpt lat="44.282122968878724" lon="11.391287249597896"><ele>272.0</ele><time>2026-05-02T07:19:21.836Z</time></trkpt><trkpt lat="44.282178281589616" lon="11.391339023717425"><ele>272.0</ele><time>2026-05-02T07:19:22.836Z</time></trkpt><trkpt lat="44.282225766131475" lon="11.391421721567514"><ele>271.99999999999994</ele><time>2026-05-02T07:19:23.836Z</time></trkpt><trkpt lat="44.282280241162894" lon="11.391474735921628"><ele>272.0</ele><time>2026-05-02T07:19:24.836Z</time></trkpt><trkpt lat="44.28233532774702" lon="11.391531509319641"><ele>272.33333333333337</ele><time>2026-05-02T07:19:25.836Z</time></trkpt><trkpt lat="44.282388914053335" lon="11.391589030131648"><ele>272.6666666666667</ele><time>2026-05-02T07:19:26.836Z</time></trkpt><trkpt lat="44.28243730845801" lon="11.391653279738499"><ele>273.0</ele><time>2026-05-02T07:19:27.836Z</time></trkpt><trkpt lat="44.282493962510316" lon="11.3917153650631"><ele>273.3333333333333</ele><time>2026-05-02T07:19:28.836Z</time></trkpt><trkpt lat="44.28260007704366" lon="11.391818265140216"><ele>273.66666666666663</ele><time>2026-05-02T07:19:30.836Z</time></trkpt><trkpt lat="44.28265403490414" lon="11.39187157420169"><ele>274.0</ele><time>2026-05-02T07:19:31.836Z</time></trkpt><trkpt lat="44.28270949971109" lon="11.391921226959905"><ele>274.0</ele><time>2026-05-02T07:19:32.836Z</time></trkpt><trkpt lat="44.282767195221524" lon="11.39196624955655"><ele>274.0</ele><time>2026-05-02T07:19:33.836Z</time></trkpt><trkpt lat="44.282828077794896" lon="11.391995708737712"><ele>274.0</ele><time>2026-05-02T07:19:34.836Z</time></trkpt><trkpt lat="44.282896686834576" lon="11.392013215055895"><ele>274.0</ele><time>2026-05-02T07:19:35.836Z</time></trkpt><trkpt lat="44.28301733152462" lon="11.391993565468173"><ele>274.0</ele><time>2026-05-02T07:19:37.836Z</time></trkpt><trkpt lat="44.28313837273853" lon="11.391966440936296"><ele>274.0</ele><time>2026-05-02T07:19:39.836Z</time></trkpt><trkpt lat="44.283205332455665" lon="11.391952114744774"><ele>274.5</ele><time>2026-05-02T07:19:40.836Z</time></trkpt><trkpt lat="44.283269983236664" lon="11.391938803603436"><ele>275.0</ele><time>2026-05-02T07:19:41.836Z</time></trkpt><trkpt lat="44.28333214319096" lon="11.391921638921298"><ele>275.5</ele><time>2026-05-02T07:19:42.836Z</time></trkpt><trkpt lat="44.283396951674874" lon="11.391913769405432"><ele>276.0</ele><time>2026-05-02T07:19:43.836Z</time></trkpt><trkpt lat="44.28346148665516" lon="11.391903641302099"><ele>276.5</ele><time>2026-05-02T07:19:44.836Z</time></trkpt><trkpt lat="44.28357376897112" lon="11.391880630166797"><ele>277.0</ele><time>2026-05-02T07:19:46.836Z</time></trkpt><trkpt lat="44.28369469477805" lon="11.391875899377784"><ele>277.0</ele><time>2026-05-02T07:19:48.836Z</time></trkpt><trkpt lat="44.28375811993552" lon="11.391889049667306"><ele>277.0</ele><time>2026-05-02T07:19:49.836Z</time></trkpt><trkpt lat="44.28387245405626" lon="11.391906677165679"><ele>277.0</ele><time>2026-05-02T07:19:51.836Z</time></trkpt><trkpt lat="44.28398329557069" lon="11.391947659616722"><ele>277.0</ele><time>2026-05-02T07:19:53.836Z</time></trkpt><trkpt lat="44.28408857698548" lon="11.391973962278866"><ele>277.0</ele><time>2026-05-02T07:19:55.835Z</time></trkpt><trkpt lat="44.2842003180204" lon="11.392014540184256"><ele>278.6</ele><time>2026-05-02T07:19:57.835Z</time></trkpt><trkpt lat="44.28431513146404" lon="11.392053829105162"><ele>280.2</ele><time>2026-05-02T07:19:59.835Z</time></trkpt><trkpt lat="44.28442277486016" lon="11.392090475595447"><ele>281.8</ele><time>2026-05-02T07:20:01.835Z</time></trkpt><trkpt lat="44.2845215838162" lon="11.392118176977617"><ele>283.4</ele><time>2026-05-02T07:20:03.835Z</time></trkpt><trkpt lat="44.284636767666974" lon="11.392163533234504"><ele>285.0</ele><time>2026-05-02T07:20:05.835Z</time></trkpt><trkpt lat="44.284701046044425" lon="11.392194255616277"><ele>281.6666666666667</ele><time>2026-05-02T07:20:06.835Z</time></trkpt><trkpt lat="44.28476062071428" lon="11.392224899341588"><ele>278.3333333333333</ele><time>2026-05-02T07:20:07.835Z</time></trkpt><trkpt lat="44.28482606984936" lon="11.39226322601301"><ele>275.0</ele><time>2026-05-02T07:20:08.835Z</time></trkpt><trkpt lat="44.28494035222572" lon="11.392336209635404"><ele>271.66666666666663</ele><time>2026-05-02T07:20:10.835Z</time></trkpt><trkpt lat="44.28499751218422" lon="11.392387049884299"><ele>268.3333333333333</ele><time>2026-05-02T07:20:11.835Z</time></trkpt><trkpt lat="44.28505146991171" lon="11.392433533368466"><ele>265.0</ele><time>2026-05-02T07:20:12.835Z</time></trkpt><trkpt lat="44.28514727418147" lon="11.392520462934899"><ele>265.0</ele><time>2026-05-02T07:20:14.835Z</time></trkpt><trkpt lat="44.285237773348584" lon="11.392609881041068"><ele>265.0</ele><time>2026-05-02T07:20:16.835Z</time></trkpt><trkpt lat="44.28533148265116" lon="11.392691951883315"><ele>265.0</ele><time>2026-05-02T07:20:18.835Z</time></trkpt><trkpt lat="44.285418048444875" lon="11.392785338878054"><ele>265.0</ele><time>2026-05-02T07:20:20.835Z</time></trkpt><trkpt lat="44.285502961265266" lon="11.392881212029577"><ele>265.0</ele><time>2026-05-02T07:20:22.835Z</time></trkpt><trkpt lat="44.28558204838976" lon="11.392992559621625"><ele>264.75</ele><time>2026-05-02T07:20:24.835Z</time></trkpt><trkpt lat="44.28565122321954" lon="11.393116568820968"><ele>264.5</ele><time>2026-05-02T07:20:26.835Z</time></trkpt><trkpt lat="44.285716969632766" lon="11.393242469389786"><ele>264.25</ele><time>2026-05-02T07:20:28.835Z</time></trkpt><trkpt lat="44.28577830268406" lon="11.393369813376532"><ele>264.0</ele><time>2026-05-02T07:20:30.835Z</time></trkpt><trkpt lat="44.28584569704425" lon="11.39350189184214"><ele>264.0</ele><time>2026-05-02T07:20:32.835Z</time></trkpt><trkpt lat="44.28590743900707" lon="11.393627661946642"><ele>264.0</ele><time>2026-05-02T07:20:34.834Z</time></trkpt><trkpt lat="44.28596308546804" lon="11.39376043637494"><ele>264.0</ele><time>2026-05-02T07:20:36.834Z</time></trkpt><trkpt lat="44.2860380054124" lon="11.393868560773571"><ele>264.0</ele><time>2026-05-02T07:20:38.834Z</time></trkpt><trkpt lat="44.286122103200725" lon="11.39395745830043"><ele>264.0</ele><time>2026-05-02T07:20:40.834Z</time></trkpt><trkpt lat="44.286213026758105" lon="11.39403675276358"><ele>263.25</ele><time>2026-05-02T07:20:42.834Z</time></trkpt><trkpt lat="44.28631354248007" lon="11.394102462904069"><ele>262.5</ele><time>2026-05-02T07:20:44.834Z</time></trkpt><trkpt lat="44.28641240920234" lon="11.39417366894198"><ele>261.75</ele><time>2026-05-02T07:20:46.834Z</time></trkpt><trkpt lat="44.28651306942459" lon="11.394246402059405"><ele>261.0</ele><time>2026-05-02T07:20:48.834Z</time></trkpt><trkpt lat="44.28661900036991" lon="11.394312773981147"><ele>261.0</ele><time>2026-05-02T07:20:50.834Z</time></trkpt><trkpt lat="44.2867233565437" lon="11.394380314729466"><ele>261.0</ele><time>2026-05-02T07:20:52.834Z</time></trkpt><trkpt lat="44.28683457599298" lon="11.394440689631674"><ele>261.0</ele><time>2026-05-02T07:20:54.834Z</time></trkpt><trkpt lat="44.286946715518134" lon="11.394494931928541"><ele>261.0</ele><time>2026-05-02T07:20:56.834Z</time></trkpt><trkpt lat="44.287063225756796" lon="11.394523826817098"><ele>261.0</ele><time>2026-05-02T07:20:58.834Z</time></trkpt><trkpt lat="44.287187526587225" lon="11.394524305980523"><ele>261.0</ele><time>2026-05-02T07:21:00.834Z</time></trkpt><trkpt lat="44.28725541211609" lon="11.394528998383338"><ele>261.0</ele><time>2026-05-02T07:21:01.834Z</time></trkpt><trkpt lat="44.28732265193064" lon="11.394527336670409"><ele>261.0</ele><time>2026-05-02T07:21:02.834Z</time></trkpt><trkpt lat="44.287390958307746" lon="11.394529214602663"><ele>261.0</ele><time>2026-05-02T07:21:03.834Z</time></trkpt><trkpt lat="44.287456967248104" lon="11.394534474428815"><ele>261.0</ele><time>2026-05-02T07:21:04.834Z</time></trkpt><trkpt lat="44.287525903028026" lon="11.394537838182853"><ele>261.7142857142857</ele><time>2026-05-02T07:21:05.834Z</time></trkpt><trkpt lat="44.28759109740587" lon="11.39453357680326"><ele>262.42857142857144</ele><time>2026-05-02T07:21:06.834Z</time></trkpt><trkpt lat="44.287658088950266" lon="11.394526543221547"><ele>263.1428571428571</ele><time>2026-05-02T07:21:07.834Z</time></trkpt><trkpt lat="44.28773864546022" lon="11.394533739653058"><ele>263.8571428571429</ele><time>2026-05-02T07:21:08.834Z</time></trkpt><trkpt lat="44.28780670033225" lon="11.394529090271641"><ele>264.57142857142856</ele><time>2026-05-02T07:21:09.834Z</time></trkpt><trkpt lat="44.28787380479554" lon="11.394519609463659"><ele>265.2857142857143</ele><time>2026-05-02T07:21:10.834Z</time></trkpt><trkpt lat="44.287945302436746" lon="11.394509890420034"><ele>266.0</ele><time>2026-05-02T07:21:11.835Z</time></trkpt><trkpt lat="44.28802452652729" lon="11.394499088639124"><ele>266.1666666666667</ele><time>2026-05-02T07:21:12.835Z</time></trkpt><trkpt lat="44.28809591996044" lon="11.394494690760046"><ele>266.33333333333337</ele><time>2026-05-02T07:21:13.835Z</time></trkpt><trkpt lat="44.28816880287808" lon="11.394488823052713"><ele>266.5</ele><time>2026-05-02T07:21:14.835Z</time></trkpt><trkpt lat="44.28824222336622" lon="11.39449075683696"><ele>266.6666666666667</ele><time>2026-05-02T07:21:15.835Z</time></trkpt><trkpt lat="44.28830905669296" lon="11.394497434907064"><ele>266.8333333333333</ele><time>2026-05-02T07:21:16.835Z</time></trkpt><trkpt lat="44.28837226447053" lon="11.394510192541368"><ele>267.0</ele><time>2026-05-02T07:21:17.835Z</time></trkpt><trkpt lat="44.28849276738582" lon="11.394554979110158"><ele>267.0</ele><time>2026-05-02T07:21:19.835Z</time></trkpt><trkpt lat="44.28855511815972" lon="11.394582196558972"><ele>267.0</ele><time>2026-05-02T07:21:20.835Z</time></trkpt><trkpt lat="44.28865788876024" lon="11.394633791384521"><ele>267.0</ele><time>2026-05-02T07:21:22.835Z</time></trkpt><trkpt lat="44.28875816437528" lon="11.394675796385938"><ele>267.0</ele><time>2026-05-02T07:21:24.835Z</time></trkpt><trkpt lat="44.28886570604994" lon="11.394713148846044"><ele>267.0</ele><time>2026-05-02T07:21:26.835Z</time></trkpt><trkpt lat="44.28897838231522" lon="11.394770550007534"><ele>264.6</ele><time>2026-05-02T07:21:28.835Z</time></trkpt><trkpt lat="44.2890921789608" lon="11.394811449330756"><ele>262.2</ele><time>2026-05-02T07:21:30.835Z</time></trkpt><trkpt lat="44.28915665372745" lon="11.394829368526421"><ele>259.8</ele><time>2026-05-02T07:21:31.835Z</time></trkpt><trkpt lat="44.28926860903963" lon="11.39487569389515"><ele>257.4</ele><time>2026-05-02T07:21:33.835Z</time></trkpt><trkpt lat="44.28938562654105" lon="11.394891797929741"><ele>255.0</ele><time>2026-05-02T07:21:35.835Z</time></trkpt><trkpt lat="44.28945016771687" lon="11.394895309158038"><ele>255.0</ele><time>2026-05-02T07:21:36.835Z</time></trkpt><trkpt lat="44.289567449053884" lon="11.394904931696798"><ele>255.0</ele><time>2026-05-02T07:21:38.835Z</time></trkpt><trkpt lat="44.28963656902763" lon="11.39491549465512"><ele>255.0</ele><time>2026-05-02T07:21:39.835Z</time></trkpt><trkpt lat="44.28970130538506" lon="11.394921160386263"><ele>255.0</ele><time>2026-05-02T07:21:40.835Z</time></trkpt><trkpt lat="44.28976644678319" lon="11.394923619240414"><ele>255.0</ele><time>2026-05-02T07:21:41.835Z</time></trkpt><trkpt lat="44.289833289279095" lon="11.394940634247998"><ele>255.0</ele><time>2026-05-02T07:21:42.835Z</time></trkpt><trkpt lat="44.28989827673094" lon="11.394952603734964"><ele>255.0</ele><time>2026-05-02T07:21:43.835Z</time></trkpt><trkpt lat="44.2899618524201" lon="11.394966193815371"><ele>255.00000000000003</ele><time>2026-05-02T07:21:44.835Z</time></trkpt><trkpt lat="44.29003160343098" lon="11.394981944375989"><ele>255.0</ele><time>2026-05-02T07:21:45.835Z</time></trkpt><trkpt lat="44.29009521609956" lon="11.394998509378159"><ele>255.0</ele><time>2026-05-02T07:21:46.835Z</time></trkpt><trkpt lat="44.29015851981248" lon="11.395022578563907"><ele>255.00000000000003</ele><time>2026-05-02T07:21:47.835Z</time></trkpt><trkpt lat="44.29022086920291" lon="11.395040110533378"><ele>255.0</ele><time>2026-05-02T07:21:48.834Z</time></trkpt><trkpt lat="44.2902830430432" lon="11.39506150291902"><ele>255.0</ele><time>2026-05-02T07:21:49.834Z</time></trkpt><trkpt lat="44.29034994073827" lon="11.395082616262718"><ele>255.0</ele><time>2026-05-02T07:21:50.834Z</time></trkpt><trkpt lat="44.29041568087664" lon="11.395104292235443"><ele>255.00000000000003</ele><time>2026-05-02T07:21:51.834Z</time></trkpt><trkpt lat="44.2904881506961" lon="11.395132805892779"><ele>255.0</ele><time>2026-05-02T07:21:52.834Z</time></trkpt><trkpt lat="44.29055683687648" lon="11.395152635866584"><ele>255.0</ele><time>2026-05-02T07:21:53.834Z</time></trkpt><trkpt lat="44.29062962933319" lon="11.395172570457328"><ele>255.00000000000003</ele><time>2026-05-02T07:21:54.834Z</time></trkpt><trkpt lat="44.29070343052882" lon="11.395191567704849"><ele>255.0</ele><time>2026-05-02T07:21:55.834Z</time></trkpt><trkpt lat="44.29077251815156" lon="11.395225358654528"><ele>255.0</ele><time>2026-05-02T07:21:56.834Z</time></trkpt><trkpt lat="44.29084458262087" lon="11.395255866744506"><ele>255.66666666666666</ele><time>2026-05-02T07:21:57.834Z</time></trkpt><trkpt lat="44.2909180613178" lon="11.39528327864238"><ele>256.3333333333333</ele><time>2026-05-02T07:21:58.834Z</time></trkpt><trkpt lat="44.290992132980286" lon="11.395309074172157"><ele>257.0</ele><time>2026-05-02T07:21:59.834Z</time></trkpt><trkpt lat="44.29106675087181" lon="11.395329879643313"><ele>257.66666666666663</ele><time>2026-05-02T07:22:00.834Z</time></trkpt><trkpt lat="44.29114160623833" lon="11.39535133882699"><ele>258.3333333333333</ele><time>2026-05-02T07:22:01.834Z</time></trkpt><trkpt lat="44.29121661683024" lon="11.395376001843077"><ele>259.0</ele><time>2026-05-02T07:22:02.834Z</time></trkpt><trkpt lat="44.29129203459902" lon="11.395401128418168"><ele>259.0</ele><time>2026-05-02T07:22:03.834Z</time></trkpt><trkpt lat="44.291369406558964" lon="11.395427566680025"><ele>259.0</ele><time>2026-05-02T07:22:04.834Z</time></trkpt><trkpt lat="44.29144499725003" lon="11.39545996201902"><ele>259.0</ele><time>2026-05-02T07:22:05.834Z</time></trkpt><trkpt lat="44.29151938445564" lon="11.395495825142826"><ele>259.0</ele><time>2026-05-02T07:22:06.834Z</time></trkpt><trkpt lat="44.291594255235275" lon="11.395533600452913"><ele>259.0</ele><time>2026-05-02T07:22:07.834Z</time></trkpt><trkpt lat="44.29166870669643" lon="11.39557213692582"><ele>259.0</ele><time>2026-05-02T07:22:08.834Z</time></trkpt><trkpt lat="44.29173912638233" lon="11.3956065674811"><ele>257.3333333333333</ele><time>2026-05-02T07:22:09.834Z</time></trkpt><trkpt lat="44.29181126240362" lon="11.395646101327275"><ele>255.66666666666666</ele><time>2026-05-02T07:22:10.834Z</time></trkpt><trkpt lat="44.291883575480206" lon="11.395686262883581"><ele>254.0</ele><time>2026-05-02T07:22:11.834Z</time></trkpt><trkpt lat="44.29195229810503" lon="11.395726412255494"><ele>252.33333333333331</ele><time>2026-05-02T07:22:12.834Z</time></trkpt><trkpt lat="44.29202703813023" lon="11.395768647093682"><ele>250.66666666666666</ele><time>2026-05-02T07:22:13.834Z</time></trkpt><trkpt lat="44.292090672856865" lon="11.395807048676692"><ele>249.0</ele><time>2026-05-02T07:22:14.834Z</time></trkpt><trkpt lat="44.29215908136789" lon="11.39584575792774"><ele>249.0</ele><time>2026-05-02T07:22:15.834Z</time></trkpt><trkpt lat="44.29222832410669" lon="11.395885875404643"><ele>249.0</ele><time>2026-05-02T07:22:16.834Z</time></trkpt><trkpt lat="44.292298792111865" lon="11.395921166460035"><ele>249.0</ele><time>2026-05-02T07:22:17.834Z</time></trkpt><trkpt lat="44.29236921395377" lon="11.395960498695707"><ele>249.0</ele><time>2026-05-02T07:22:18.834Z</time></trkpt><trkpt lat="44.292442952122066" lon="11.395999645745201"><ele>249.0</ele><time>2026-05-02T07:22:19.834Z</time></trkpt><trkpt lat="44.29251279576773" lon="11.396038410675294"><ele>249.0</ele><time>2026-05-02T07:22:20.834Z</time></trkpt><trkpt lat="44.29258220175142" lon="11.396076667620493"><ele>249.28571428571428</ele><time>2026-05-02T07:22:21.834Z</time></trkpt><trkpt lat="44.29265088574621" lon="11.396109281823607"><ele>249.57142857142856</ele><time>2026-05-02T07:22:22.834Z</time></trkpt><trkpt lat="44.29272467312785" lon="11.396142513793407"><ele>249.85714285714283</ele><time>2026-05-02T07:22:23.834Z</time></trkpt><trkpt lat="44.29279264236314" lon="11.396179945681912"><ele>250.1428571428571</ele><time>2026-05-02T07:22:24.834Z</time></trkpt><trkpt lat="44.292862513376136" lon="11.396210196235558"><ele>250.42857142857142</ele><time>2026-05-02T07:22:25.834Z</time></trkpt><trkpt lat="44.29292738515013" lon="11.396241941783485"><ele>250.71428571428567</ele><time>2026-05-02T07:22:26.834Z</time></trkpt><trkpt lat="44.292991944223104" lon="11.396278725954494"><ele>250.99999999999997</ele><time>2026-05-02T07:22:27.833Z</time></trkpt><trkpt lat="44.29306159652232" lon="11.396316029567652"><ele>249.85714285714283</ele><time>2026-05-02T07:22:28.833Z</time></trkpt><trkpt lat="44.29313086751539" lon="11.396350471324048"><ele>248.71428571428572</ele><time>2026-05-02T07:22:29.833Z</time></trkpt><trkpt lat="44.29319906807091" lon="11.39639241241656"><ele>247.57142857142856</ele><time>2026-05-02T07:22:30.833Z</time></trkpt><trkpt lat="44.293266156585204" lon="11.396434065016908"><ele>246.42857142857142</ele><time>2026-05-02T07:22:31.833Z</time></trkpt><trkpt lat="44.293336252455425" lon="11.396479395626104"><ele>245.28571428571428</ele><time>2026-05-02T07:22:32.833Z</time></trkpt><trkpt lat="44.29340066425666" lon="11.396509335203296"><ele>244.14285714285714</ele><time>2026-05-02T07:22:33.833Z</time></trkpt><trkpt lat="44.293465047796644" lon="11.396539240662138"><ele>243.0</ele><time>2026-05-02T07:22:34.833Z</time></trkpt><trkpt lat="44.293531910099354" lon="11.396573488264051"><ele>243.0</ele><time>2026-05-02T07:22:35.833Z</time></trkpt><trkpt lat="44.29365426608721" lon="11.396632222736752"><ele>243.0</ele><time>2026-05-02T07:22:37.833Z</time></trkpt><trkpt lat="44.29371657293591" lon="11.39666199919197"><ele>243.0</ele><time>2026-05-02T07:22:38.833Z</time></trkpt><trkpt lat="44.29378737569401" lon="11.396688403183841"><ele>243.0</ele><time>2026-05-02T07:22:39.833Z</time></trkpt><trkpt lat="44.293848891138495" lon="11.396708368692142"><ele>243.0</ele><time>2026-05-02T07:22:40.833Z</time></trkpt><trkpt lat="44.29391386536041" lon="11.39673052210521"><ele>243.0</ele><time>2026-05-02T07:22:41.833Z</time></trkpt><trkpt lat="44.29397615761494" lon="11.396747372529799"><ele>243.75</ele><time>2026-05-02T07:22:42.833Z</time></trkpt><trkpt lat="44.294097534832076" lon="11.396771282649366"><ele>244.5</ele><time>2026-05-02T07:22:44.833Z</time></trkpt><trkpt lat="44.29421459140807" lon="11.396795014539848"><ele>245.25</ele><time>2026-05-02T07:22:46.833Z</time></trkpt><trkpt lat="44.29433311044526" lon="11.396823939785447"><ele>246.0</ele><time>2026-05-02T07:22:48.833Z</time></trkpt><trkpt lat="44.29444558753579" lon="11.39684164342184"><ele>246.0</ele><time>2026-05-02T07:22:50.833Z</time></trkpt><trkpt lat="44.29455217002368" lon="11.396861648237744"><ele>246.00000000000003</ele><time>2026-05-02T07:22:52.833Z</time></trkpt><trkpt lat="44.2946559503883" lon="11.396895100019513"><ele>246.00000000000003</ele><time>2026-05-02T07:22:54.833Z</time></trkpt><trkpt lat="44.29475508164906" lon="11.396916024806321"><ele>246.0</ele><time>2026-05-02T07:22:56.833Z</time></trkpt><trkpt lat="44.294841397510645" lon="11.396921165820617"><ele>246.0</ele><time>2026-05-02T07:22:58.833Z</time></trkpt><trkpt lat="44.2949266800432" lon="11.396946522262922"><ele>248.0</ele><time>2026-05-02T07:23:00.833Z</time></trkpt><trkpt lat="44.29499938653562" lon="11.396960824524683"><ele>250.0</ele><time>2026-05-02T07:23:02.833Z</time></trkpt><trkpt lat="44.29509721775018" lon="11.39686610264945"><ele>252.0</ele><time>2026-05-02T07:23:04.833Z</time></trkpt><trkpt lat="44.295177241986536" lon="11.396872143014331"><ele>254.0</ele><time>2026-05-02T07:23:06.833Z</time></trkpt><trkpt lat="44.29526436120568" lon="11.39688316341543"><ele>256.0</ele><time>2026-05-02T07:23:08.832Z</time></trkpt><trkpt lat="44.29534829632276" lon="11.396885758129521"><ele>258.0</ele><time>2026-05-02T07:23:10.832Z</time></trkpt><trkpt lat="44.2954451288275" lon="11.396906413709015"><ele>258.0</ele><time>2026-05-02T07:23:12.832Z</time></trkpt><trkpt lat="44.29554720807192" lon="11.396898195058647"><ele>258.0</ele><time>2026-05-02T07:23:14.832Z</time></trkpt><trkpt lat="44.29565518937774" lon="11.396855008959802"><ele>258.0</ele><time>2026-05-02T07:23:16.832Z</time></trkpt><trkpt lat="44.29576030494971" lon="11.396786586721905"><ele>258.0</ele><time>2026-05-02T07:23:18.834Z</time></trkpt><trkpt lat="44.29581765515509" lon="11.39674196118223"><ele>258.0</ele><time>2026-05-02T07:23:19.834Z</time></trkpt><trkpt lat="44.29593327299052" lon="11.396678781428133"><ele>256.8</ele><time>2026-05-02T07:23:21.834Z</time></trkpt><trkpt lat="44.29599037633005" lon="11.39663714546463"><ele>255.60000000000002</ele><time>2026-05-02T07:23:22.834Z</time></trkpt><trkpt lat="44.296101972388215" lon="11.39655731482826"><ele>254.39999999999998</ele><time>2026-05-02T07:23:24.834Z</time></trkpt><trkpt lat="44.296159583170144" lon="11.39651832678379"><ele>253.2</ele><time>2026-05-02T07:23:25.834Z</time></trkpt><trkpt lat="44.2962700576124" lon="11.396436648824112"><ele>252.0</ele><time>2026-05-02T07:23:27.834Z</time></trkpt><trkpt lat="44.29638171269656" lon="11.396358266480078"><ele>252.16666666666666</ele><time>2026-05-02T07:23:29.833Z</time></trkpt><trkpt lat="44.29643909819033" lon="11.396316059732486"><ele>252.33333333333331</ele><time>2026-05-02T07:23:30.834Z</time></trkpt><trkpt lat="44.29655184575747" lon="11.396233759796784"><ele>252.5</ele><time>2026-05-02T07:23:32.834Z</time></trkpt><trkpt lat="44.29661169533914" lon="11.396190437458745"><ele>252.66666666666666</ele><time>2026-05-02T07:23:33.834Z</time></trkpt><trkpt lat="44.29667130817673" lon="11.396144889589499"><ele>252.83333333333331</ele><time>2026-05-02T07:23:34.834Z</time></trkpt><trkpt lat="44.29673631226712" lon="11.396119482179653"><ele>253.0</ele><time>2026-05-02T07:23:35.834Z</time></trkpt><trkpt lat="44.29679000596413" lon="11.396065522662859"><ele>253.00000000000003</ele><time>2026-05-02T07:23:36.834Z</time></trkpt><trkpt lat="44.296847459865724" lon="11.39602782665695"><ele>253.0</ele><time>2026-05-02T07:23:37.834Z</time></trkpt><trkpt lat="44.29690760250981" lon="11.395984090525298"><ele>253.00000000000003</ele><time>2026-05-02T07:23:38.834Z</time></trkpt><trkpt lat="44.296968645496165" lon="11.395943807283416"><ele>253.00000000000003</ele><time>2026-05-02T07:23:39.834Z</time></trkpt><trkpt lat="44.29703260588465" lon="11.395901302357865"><ele>253.0</ele><time>2026-05-02T07:23:40.834Z</time></trkpt><trkpt lat="44.297091012228535" lon="11.395854806649485"><ele>253.00000000000003</ele><time>2026-05-02T07:23:41.834Z</time></trkpt><trkpt lat="44.29715104529183" lon="11.395812941712741"><ele>253.00000000000003</ele><time>2026-05-02T07:23:42.834Z</time></trkpt><trkpt lat="44.29720917408421" lon="11.395769612294755"><ele>253.33333333333331</ele><time>2026-05-02T07:23:43.834Z</time></trkpt><trkpt lat="44.29727522124949" lon="11.395726224248083"><ele>253.66666666666666</ele><time>2026-05-02T07:23:44.834Z</time></trkpt><trkpt lat="44.29733714029536" lon="11.395680592356934"><ele>254.0</ele><time>2026-05-02T07:23:45.834Z</time></trkpt><trkpt lat="44.2974023556774" lon="11.395640752910353"><ele>254.33333333333331</ele><time>2026-05-02T07:23:46.834Z</time></trkpt><trkpt lat="44.2974572091896" lon="11.39559581295099"><ele>254.66666666666666</ele><time>2026-05-02T07:23:47.834Z</time></trkpt><trkpt lat="44.29751811349396" lon="11.395554663611863"><ele>255.0</ele><time>2026-05-02T07:23:48.834Z</time></trkpt><trkpt lat="44.297639115101944" lon="11.395471883745232"><ele>255.0</ele><time>2026-05-02T07:23:50.834Z</time></trkpt><trkpt lat="44.297692491026936" lon="11.395419868981598"><ele>255.00000000000003</ele><time>2026-05-02T07:23:51.833Z</time></trkpt><trkpt lat="44.29774363519642" lon="11.395365048140219"><ele>255.0</ele><time>2026-05-02T07:23:52.833Z</time></trkpt><trkpt lat="44.297791824557564" lon="11.395307765621327"><ele>255.0</ele><time>2026-05-02T07:23:53.833Z</time></trkpt><trkpt lat="44.29784315082741" lon="11.395251071796737"><ele>255.00000000000003</ele><time>2026-05-02T07:23:54.833Z</time></trkpt><trkpt lat="44.29789176446826" lon="11.395194614471809"><ele>255.0</ele><time>2026-05-02T07:23:55.833Z</time></trkpt><trkpt lat="44.297937988247" lon="11.395134601800017"><ele>255.0</ele><time>2026-05-02T07:23:56.833Z</time></trkpt><trkpt lat="44.298022610817455" lon="11.395008049185643"><ele>255.0</ele><time>2026-05-02T07:23:58.833Z</time></trkpt><trkpt lat="44.2980659916214" lon="11.394939244635236"><ele>255.00000000000003</ele><time>2026-05-02T07:23:59.833Z</time></trkpt><trkpt lat="44.298106912177644" lon="11.394870888653326"><ele>255.0</ele><time>2026-05-02T07:24:00.833Z</time></trkpt><trkpt lat="44.29814957183133" lon="11.394803800522462"><ele>255.0</ele><time>2026-05-02T07:24:01.833Z</time></trkpt><trkpt lat="44.298199775054904" lon="11.3947406415629"><ele>255.00000000000003</ele><time>2026-05-02T07:24:02.833Z</time></trkpt><trkpt lat="44.298272916458515" lon="11.394620402910455"><ele>255.0</ele><time>2026-05-02T07:24:04.833Z</time></trkpt><trkpt lat="44.29831797892975" lon="11.394553988656014"><ele>255.0</ele><time>2026-05-02T07:24:05.833Z</time></trkpt><trkpt lat="44.29839763229475" lon="11.394431638701425"><ele>254.5</ele><time>2026-05-02T07:24:07.833Z</time></trkpt><trkpt lat="44.298477722541634" lon="11.394307481023157"><ele>254.0</ele><time>2026-05-02T07:24:09.833Z</time></trkpt><trkpt lat="44.29855994805297" lon="11.394194404036579"><ele>253.5</ele><time>2026-05-02T07:24:11.833Z</time></trkpt><trkpt lat="44.29863947394119" lon="11.394081791310075"><ele>253.0</ele><time>2026-05-02T07:24:13.833Z</time></trkpt><trkpt lat="44.29871568462679" lon="11.393954816209682"><ele>253.0</ele><time>2026-05-02T07:24:15.833Z</time></trkpt><trkpt lat="44.29879144459255" lon="11.393841787764272"><ele>253.0</ele><time>2026-05-02T07:24:17.833Z</time></trkpt><trkpt lat="44.298875181243474" lon="11.393723515302653"><ele>253.0</ele><time>2026-05-02T07:24:19.833Z</time></trkpt><trkpt lat="44.29895617650417" lon="11.393604399928286"><ele>253.0</ele><time>2026-05-02T07:24:21.833Z</time></trkpt><trkpt lat="44.29903895010853" lon="11.393479328866773"><ele>252.4</ele><time>2026-05-02T07:24:23.833Z</time></trkpt><trkpt lat="44.29911234146506" lon="11.393347600405827"><ele>251.8</ele><time>2026-05-02T07:24:25.833Z</time></trkpt><trkpt lat="44.299175553392736" lon="11.393219335582843"><ele>251.2</ele><time>2026-05-02T07:24:27.833Z</time></trkpt><trkpt lat="44.29920267787607" lon="11.393071091430953"><ele>250.6</ele><time>2026-05-02T07:24:29.833Z</time></trkpt><trkpt lat="44.29921857310367" lon="11.39292302713367"><ele>250.0</ele><time>2026-05-02T07:24:31.832Z</time></trkpt><trkpt lat="44.29923441443517" lon="11.392777322694512"><ele>249.99999999999997</ele><time>2026-05-02T07:24:33.832Z</time></trkpt><trkpt lat="44.29924856966869" lon="11.392647341732685"><ele>250.0</ele><time>2026-05-02T07:24:35.832Z</time></trkpt><trkpt lat="44.299253118139994" lon="11.392525459591665"><ele>250.0</ele><time>2026-05-02T07:24:37.832Z</time></trkpt><trkpt lat="44.29924037933395" lon="11.392397715388032"><ele>250.0</ele><time>2026-05-02T07:24:39.832Z</time></trkpt><trkpt lat="44.299231577327845" lon="11.392268725162925"><ele>249.99999999999997</ele><time>2026-05-02T07:24:41.832Z</time></trkpt><trkpt lat="44.299208926431696" lon="11.392159917670508"><ele>250.0</ele><time>2026-05-02T07:24:43.832Z</time></trkpt><trkpt lat="44.299179417705304" lon="11.392045040396505"><ele>249.49999999999997</ele><time>2026-05-02T07:24:45.832Z</time></trkpt><trkpt lat="44.29914441503585" lon="11.39194634155535"><ele>249.0</ele><time>2026-05-02T07:24:47.832Z</time></trkpt><trkpt lat="44.299130140665795" lon="11.39184481707497"><ele>248.5</ele><time>2026-05-02T07:24:49.832Z</time></trkpt><trkpt lat="44.29910235363522" lon="11.391741270704225"><ele>248.0</ele><time>2026-05-02T07:24:51.832Z</time></trkpt><trkpt lat="44.29907533909283" lon="11.391629631374302"><ele>247.49999999999997</ele><time>2026-05-02T07:24:53.832Z</time></trkpt><trkpt lat="44.29905034229024" lon="11.39152222849978"><ele>247.0</ele><time>2026-05-02T07:24:55.832Z</time></trkpt><trkpt lat="44.29902227878567" lon="11.391415997198136"><ele>247.33333333333331</ele><time>2026-05-02T07:24:57.832Z</time></trkpt><trkpt lat="44.29900671865122" lon="11.391311151229441"><ele>247.66666666666666</ele><time>2026-05-02T07:24:59.832Z</time></trkpt><trkpt lat="44.29897513801696" lon="11.391183156605496"><ele>248.0</ele><time>2026-05-02T07:25:02.832Z</time></trkpt><trkpt lat="44.29894296573463" lon="11.391099774260951"><ele>248.33333333333331</ele><time>2026-05-02T07:25:04.832Z</time></trkpt><trkpt lat="44.29891923691229" lon="11.390979744943886"><ele>248.66666666666666</ele><time>2026-05-02T07:25:07.832Z</time></trkpt><trkpt lat="44.298915227699105" lon="11.390866995758524"><ele>249.0</ele><time>2026-05-02T07:25:09.831Z</time></trkpt><trkpt lat="44.29893469393383" lon="11.390769676906427"><ele>249.0</ele><time>2026-05-02T07:25:11.831Z</time></trkpt><trkpt lat="44.298946162088455" lon="11.390657718574117"><ele>249.0</ele><time>2026-05-02T07:25:13.831Z</time></trkpt><trkpt lat="44.298944048831494" lon="11.39055085002187"><ele>249.0</ele><time>2026-05-02T07:25:15.831Z</time></trkpt><trkpt lat="44.298913920507545" lon="11.390444742825293"><ele>249.0</ele><time>2026-05-02T07:25:17.831Z</time></trkpt><trkpt lat="44.29887872376858" lon="11.390354526763296"><ele>249.0</ele><time>2026-05-02T07:25:19.831Z</time></trkpt><trkpt lat="44.29882067391304" lon="11.390299481222511"><ele>249.0</ele><time>2026-05-02T07:25:21.831Z</time></trkpt><trkpt lat="44.29875100357076" lon="11.39022888621938"><ele>251.66666666666666</ele><time>2026-05-02T07:25:23.833Z</time></trkpt><trkpt lat="44.29868819175732" lon="11.3901577313596"><ele>254.33333333333331</ele><time>2026-05-02T07:25:25.833Z</time></trkpt><trkpt lat="44.298618245444736" lon="11.390076141348445"><ele>257.0</ele><time>2026-05-02T07:25:28.833Z</time></trkpt><trkpt lat="44.298566745950716" lon="11.390004117085585"><ele>259.66666666666663</ele><time>2026-05-02T07:25:30.833Z</time></trkpt><trkpt lat="44.298537622415026" lon="11.389912693581252"><ele>262.3333333333333</ele><time>2026-05-02T07:25:32.832Z</time></trkpt><trkpt lat="44.298522937659556" lon="11.389789583699885"><ele>265.0</ele><time>2026-05-02T07:25:34.832Z</time></trkpt><trkpt lat="44.298516455729505" lon="11.389683205829225"><ele>263.8333333333333</ele><time>2026-05-02T07:25:36.832Z</time></trkpt><trkpt lat="44.29853274338063" lon="11.389570900316498"><ele>262.66666666666663</ele><time>2026-05-02T07:25:38.832Z</time></trkpt><trkpt lat="44.29853962526529" lon="11.389456507430879"><ele>261.5</ele><time>2026-05-02T07:25:40.832Z</time></trkpt><trkpt lat="44.298529752175945" lon="11.389352411050025"><ele>260.3333333333333</ele><time>2026-05-02T07:25:42.832Z</time></trkpt><trkpt lat="44.298487840381455" lon="11.389269701489097"><ele>259.1666666666667</ele><time>2026-05-02T07:25:44.832Z</time></trkpt><trkpt lat="44.298449146086384" lon="11.389188977497358"><ele>258.0</ele><time>2026-05-02T07:25:46.832Z</time></trkpt><trkpt lat="44.298397328059046" lon="11.38912124519829"><ele>258.0</ele><time>2026-05-02T07:25:48.832Z</time></trkpt><trkpt lat="44.298340072552534" lon="11.389054021521666"><ele>258.0</ele><time>2026-05-02T07:25:50.832Z</time></trkpt><trkpt lat="44.29828253483756" lon="11.388971489260795"><ele>258.0</ele><time>2026-05-02T07:25:52.832Z</time></trkpt><trkpt lat="44.29826473485912" lon="11.388881117996863"><ele>258.0</ele><time>2026-05-02T07:25:54.832Z</time></trkpt><trkpt lat="44.29824977607442" lon="11.388766241701969"><ele>258.0</ele><time>2026-05-02T07:25:56.832Z</time></trkpt><trkpt lat="44.29826248516877" lon="11.388634525339246"><ele>258.0</ele><time>2026-05-02T07:25:58.832Z</time></trkpt><trkpt lat="44.29827318713646" lon="11.388527158653416"><ele>258.1666666666667</ele><time>2026-05-02T07:26:00.832Z</time></trkpt><trkpt lat="44.29830223664799" lon="11.388437079481392"><ele>258.3333333333333</ele><time>2026-05-02T07:26:02.832Z</time></trkpt><trkpt lat="44.2983206303178" lon="11.388338905695534"><ele>258.5</ele><time>2026-05-02T07:26:04.831Z</time></trkpt><trkpt lat="44.298342998475505" lon="11.388253866232315"><ele>258.66666666666663</ele><time>2026-05-02T07:26:06.831Z</time></trkpt><trkpt lat="44.298356321906795" lon="11.38812920711537"><ele>258.8333333333333</ele><time>2026-05-02T07:26:09.831Z</time></trkpt><trkpt lat="44.298387447998024" lon="11.388025812365756"><ele>259.0</ele><time>2026-05-02T07:26:11.831Z</time></trkpt><trkpt lat="44.29841409054025" lon="11.387926046526804"><ele>259.16666666666663</ele><time>2026-05-02T07:26:13.831Z</time></trkpt><trkpt lat="44.29843389744805" lon="11.387803305684205"><ele>259.3333333333333</ele><time>2026-05-02T07:26:16.831Z</time></trkpt><trkpt lat="44.2984378147496" lon="11.387689414047232"><ele>259.5</ele><time>2026-05-02T07:26:19.831Z</time></trkpt><trkpt lat="44.29842467506357" lon="11.387557170774034"><ele>259.6666666666667</ele><time>2026-05-02T07:26:22.831Z</time></trkpt><trkpt lat="44.298414186811584" lon="11.38745464254283"><ele>259.83333333333337</ele><time>2026-05-02T07:26:25.831Z</time></trkpt><trkpt lat="44.29840321640479" lon="11.387364894264188"><ele>260.0</ele><time>2026-05-02T07:26:27.831Z</time></trkpt><trkpt lat="44.29839314354783" lon="11.387277712796072"><ele>260.5714285714286</ele><time>2026-05-02T07:26:29.831Z</time></trkpt><trkpt lat="44.298374881281596" lon="11.387166783671448"><ele>261.14285714285717</ele><time>2026-05-02T07:26:32.831Z</time></trkpt><trkpt lat="44.29839223441355" lon="11.387062580247731"><ele>261.7142857142857</ele><time>2026-05-02T07:26:34.831Z</time></trkpt><trkpt lat="44.29841827169876" lon="11.386978815540282"><ele>262.28571428571433</ele><time>2026-05-02T07:26:36.831Z</time></trkpt><trkpt lat="44.29844151971919" lon="11.386893344426761"><ele>262.8571428571429</ele><time>2026-05-02T07:26:38.831Z</time></trkpt><trkpt lat="44.29849418995491" lon="11.386825711417046"><ele>263.42857142857144</ele><time>2026-05-02T07:26:40.831Z</time></trkpt><trkpt lat="44.29853948817061" lon="11.386757451220426"><ele>264.0</ele><time>2026-05-02T07:26:42.831Z</time></trkpt><trkpt lat="44.29858775433747" lon="11.386689053300918"><ele>264.0</ele><time>2026-05-02T07:26:44.83Z</time></trkpt><trkpt lat="44.298630627765846" lon="11.386623061028716"><ele>264.0</ele><time>2026-05-02T07:26:46.83Z</time></trkpt><trkpt lat="44.29869675231365" lon="11.386562770577319"><ele>264.0</ele><time>2026-05-02T07:26:48.83Z</time></trkpt><trkpt lat="44.29874846701899" lon="11.386494961448511"><ele>264.0</ele><time>2026-05-02T07:26:50.83Z</time></trkpt><trkpt lat="44.29879931416477" lon="11.386435492886884"><ele>264.0</ele><time>2026-05-02T07:26:52.83Z</time></trkpt><trkpt lat="44.29886036814602" lon="11.386374623958025"><ele>264.0</ele><time>2026-05-02T07:26:54.83Z</time></trkpt><trkpt lat="44.29891059869241" lon="11.38631892664217"><ele>264.0</ele><time>2026-05-02T07:26:56.83Z</time></trkpt><trkpt lat="44.298984428813256" lon="11.386246152460728"><ele>263.0</ele><time>2026-05-02T07:26:59.83Z</time></trkpt><trkpt lat="44.299036626199864" lon="11.386188821929512"><ele>262.0</ele><time>2026-05-02T07:27:01.83Z</time></trkpt><trkpt lat="44.29911957326865" lon="11.386127194694483"><ele>261.0</ele><time>2026-05-02T07:27:04.83Z</time></trkpt><trkpt lat="44.29918741129019" lon="11.38605821291784"><ele>260.0</ele><time>2026-05-02T07:27:07.83Z</time></trkpt><trkpt lat="44.29926372702295" lon="11.386000918197164"><ele>259.0</ele><time>2026-05-02T07:27:10.83Z</time></trkpt><trkpt lat="44.299335915385576" lon="11.385947232823957"><ele>258.0</ele><time>2026-05-02T07:27:13.83Z</time></trkpt><trkpt lat="44.29941158328896" lon="11.385898620821033"><ele>258.0</ele><time>2026-05-02T07:27:16.83Z</time></trkpt><trkpt lat="44.299492806431545" lon="11.385848153861305"><ele>258.0</ele><time>2026-05-02T07:27:19.83Z</time></trkpt><trkpt lat="44.29956515817295" lon="11.385794834617544"><ele>258.0</ele><time>2026-05-02T07:27:22.83Z</time></trkpt><trkpt lat="44.299645588390725" lon="11.385760425523547"><ele>258.0</ele><time>2026-05-02T07:27:25.829Z</time></trkpt><trkpt lat="44.29971834244926" lon="11.385716694104724"><ele>258.0</ele><time>2026-05-02T07:27:28.829Z</time></trkpt><trkpt lat="44.29979687790174" lon="11.385676496509555"><ele>258.0</ele><time>2026-05-02T07:27:31.832Z</time></trkpt><trkpt lat="44.29986408198694" lon="11.385622878580337"><ele>259.2857142857143</ele><time>2026-05-02T07:27:34.831Z</time></trkpt><trkpt lat="44.29992950176989" lon="11.385568345483781"><ele>260.57142857142856</ele><time>2026-05-02T07:27:37.831Z</time></trkpt><trkpt lat="44.29999305894516" lon="11.385514912295676"><ele>261.8571428571429</ele><time>2026-05-02T07:27:40.831Z</time></trkpt><trkpt lat="44.300045316296774" lon="11.38545448357231"><ele>263.1428571428571</ele><time>2026-05-02T07:27:43.831Z</time></trkpt><trkpt lat="44.30009735034336" lon="11.385374936362625"><ele>264.42857142857144</ele><time>2026-05-02T07:27:46.831Z</time></trkpt><trkpt lat="44.300147109231965" lon="11.385308035400667"><ele>265.7142857142857</ele><time>2026-05-02T07:27:49.831Z</time></trkpt><trkpt lat="44.30018685845895" lon="11.385238185574439"><ele>267.0</ele><time>2026-05-02T07:27:52.831Z</time></trkpt><trkpt lat="44.30024155973656" lon="11.385157934373122"><ele>267.42857142857144</ele><time>2026-05-02T07:27:56.831Z</time></trkpt><trkpt lat="44.30028963562507" lon="11.38509565198827"><ele>267.8571428571429</ele><time>2026-05-02T07:27:59.831Z</time></trkpt><trkpt lat="44.30034405204207" lon="11.385040699353212"><ele>268.2857142857143</ele><time>2026-05-02T07:28:02.831Z</time></trkpt><trkpt lat="44.30039561071674" lon="11.384979269509538"><ele>268.7142857142857</ele><time>2026-05-02T07:28:05.831Z</time></trkpt><trkpt lat="44.30044742861452" lon="11.384925472776903"><ele>269.1428571428571</ele><time>2026-05-02T07:28:08.831Z</time></trkpt><trkpt lat="44.30049955497952" lon="11.384865753264625"><ele>269.57142857142856</ele><time>2026-05-02T07:28:11.83Z</time></trkpt><trkpt lat="44.300550345114914" lon="11.384776035414982"><ele>270.0</ele><time>2026-05-02T07:28:14.83Z</time></trkpt><trkpt lat="44.30060047932564" lon="11.384680839169855"><ele>270.6666666666667</ele><time>2026-05-02T07:28:17.83Z</time></trkpt><trkpt lat="44.300647589423434" lon="11.384585706764614"><ele>271.3333333333333</ele><time>2026-05-02T07:28:20.83Z</time></trkpt><trkpt lat="44.30069372393242" lon="11.384490061112619"><ele>272.0</ele><time>2026-05-02T07:28:23.83Z</time></trkpt><trkpt lat="44.30073718261235" lon="11.384391388452856"><ele>272.66666666666663</ele><time>2026-05-02T07:28:26.83Z</time></trkpt><trkpt lat="44.30078398332581" lon="11.384314184058596"><ele>273.3333333333333</ele><time>2026-05-02T07:28:29.83Z</time></trkpt><trkpt lat="44.300826112845456" lon="11.384227873267028"><ele>274.0</ele><time>2026-05-02T07:28:32.83Z</time></trkpt><trkpt lat="44.30086455051838" lon="11.38413639921297"><ele>274.00000000000006</ele><time>2026-05-02T07:28:35.83Z</time></trkpt><trkpt lat="44.30091581219993" lon="11.384069120136896"><ele>274.0</ele><time>2026-05-02T07:28:38.83Z</time></trkpt><trkpt lat="44.300969553861" lon="11.384008523875568"><ele>274.0</ele><time>2026-05-02T07:28:41.83Z</time></trkpt><trkpt lat="44.3010215297795" lon="11.383942781184745"><ele>274.0</ele><time>2026-05-02T07:28:44.83Z</time></trkpt><trkpt lat="44.30107416262771" lon="11.383886114193903"><ele>274.0</ele><time>2026-05-02T07:28:47.83Z</time></trkpt><trkpt lat="44.30112266096656" lon="11.383817437665762"><ele>274.00000000000006</ele><time>2026-05-02T07:28:50.829Z</time></trkpt><trkpt lat="44.30117035640811" lon="11.38374709161951"><ele>274.0</ele><time>2026-05-02T07:28:53.829Z</time></trkpt><trkpt lat="44.30122705827612" lon="11.383670954054903"><ele>274.42857142857144</ele><time>2026-05-02T07:28:57.829Z</time></trkpt><trkpt lat="44.30128045994106" lon="11.383610312310296"><ele>274.8571428571429</ele><time>2026-05-02T07:29:00.829Z</time></trkpt><trkpt lat="44.30133719375993" lon="11.383534286116868"><ele>275.2857142857143</ele><time>2026-05-02T07:29:04.829Z</time></trkpt><trkpt lat="44.301388187863935" lon="11.383472986406328"><ele>275.7142857142857</ele><time>2026-05-02T07:29:07.829Z</time></trkpt><trkpt lat="44.30143014340368" lon="11.383398575295354"><ele>276.1428571428571</ele><time>2026-05-02T07:29:10.829Z</time></trkpt><trkpt lat="44.3014766327" lon="11.383319208859149"><ele>276.57142857142856</ele><time>2026-05-02T07:29:13.829Z</time></trkpt><trkpt lat="44.30152163021749" lon="11.383251816454273"><ele>277.0</ele><time>2026-05-02T07:29:16.829Z</time></trkpt><trkpt lat="44.301535412389974" lon="11.383164503686599"><ele>277.0</ele><time>2026-05-02T07:29:18.829Z</time></trkpt><trkpt lat="44.301550082534305" lon="11.38306648485535"><ele>277.0</ele><time>2026-05-02T07:29:21.829Z</time></trkpt><trkpt lat="44.30155262590919" lon="11.38297562405034"><ele>277.0</ele><time>2026-05-02T07:29:24.829Z</time></trkpt><trkpt lat="44.30154144197254" lon="11.382869001753127"><ele>277.0</ele><time>2026-05-02T07:29:28.829Z</time></trkpt><trkpt lat="44.30151560521175" lon="11.382761707994938"><ele>277.0</ele><time>2026-05-02T07:29:33.828Z</time></trkpt><trkpt lat="44.301494897753166" lon="11.382668799578727"><ele>277.0</ele><time>2026-05-02T07:29:37.83Z</time></trkpt><trkpt lat="44.30147046999637" lon="11.382576120038292"><ele>277.0</ele><time>2026-05-02T07:29:41.831Z</time></trkpt><trkpt lat="44.30145348834947" lon="11.382469482913459"><ele>277.0</ele><time>2026-05-02T07:29:45.83Z</time></trkpt><trkpt lat="44.301434938720305" lon="11.382363201428157"><ele>277.0</ele><time>2026-05-02T07:29:49.83Z</time></trkpt><trkpt lat="44.301413681869064" lon="11.382250281572777"><ele>277.0</ele><time>2026-05-02T07:29:53.83Z</time></trkpt><trkpt lat="44.301411133764276" lon="11.382140823012282"><ele>277.0</ele><time>2026-05-02T07:29:57.83Z</time></trkpt><trkpt lat="44.30141424649621" lon="11.382035571350922"><ele>277.0</ele><time>2026-05-02T07:30:01.829Z</time></trkpt><trkpt lat="44.301417030080664" lon="11.381927312889621"><ele>277.0</ele><time>2026-05-02T07:30:05.829Z</time></trkpt><trkpt lat="44.30144008964861" lon="11.38181755026776"><ele>278.16666666666663</ele><time>2026-05-02T07:30:09.829Z</time></trkpt><trkpt lat="44.30147983818679" lon="11.38173593354717"><ele>279.3333333333333</ele><time>2026-05-02T07:30:12.829Z</time></trkpt><trkpt lat="44.30151792427993" lon="11.381632386269112"><ele>280.5</ele><time>2026-05-02T07:30:16.829Z</time></trkpt><trkpt lat="44.30155816415254" lon="11.38153349736671"><ele>281.6666666666667</ele><time>2026-05-02T07:30:20.829Z</time></trkpt><trkpt lat="44.301598232483535" lon="11.381437295010175"><ele>282.83333333333337</ele><time>2026-05-02T07:30:24.829Z</time></trkpt><trkpt lat="44.30164144722783" lon="11.381369507611845"><ele>284.0</ele><time>2026-05-02T07:30:28.829Z</time></trkpt><trkpt lat="44.30167165321572" lon="11.381268232970426"><ele>284.7142857142857</ele><time>2026-05-02T07:30:32.829Z</time></trkpt><trkpt lat="44.301671856321214" lon="11.38116714960608"><ele>285.4285714285714</ele><time>2026-05-02T07:30:36.829Z</time></trkpt><trkpt lat="44.301653743261504" lon="11.381066927656153"><ele>286.1428571428571</ele><time>2026-05-02T07:30:40.828Z</time></trkpt><trkpt lat="44.30161134952755" lon="11.380978659058497"><ele>286.85714285714283</ele><time>2026-05-02T07:30:44.828Z</time></trkpt><trkpt lat="44.301568585592946" lon="11.380903506053398"><ele>287.57142857142856</ele><time>2026-05-02T07:30:48.828Z</time></trkpt><trkpt lat="44.3015106541288" lon="11.38084796944824"><ele>288.2857142857143</ele><time>2026-05-02T07:30:52.828Z</time></trkpt><trkpt lat="44.301444089040366" lon="11.380815809156692"><ele>289.0</ele><time>2026-05-02T07:30:56.828Z</time></trkpt><trkpt lat="44.30137169208738" lon="11.380812935522613"><ele>290.42857142857144</ele><time>2026-05-02T07:31:00.828Z</time></trkpt><trkpt lat="44.30129561609482" lon="11.380825508834329"><ele>291.85714285714283</ele><time>2026-05-02T07:31:04.828Z</time></trkpt><trkpt lat="44.301224916750016" lon="11.380878136361156"><ele>293.2857142857143</ele><time>2026-05-02T07:31:08.828Z</time></trkpt><trkpt lat="44.3011741370105" lon="11.380941158867234"><ele>294.7142857142857</ele><time>2026-05-02T07:31:11.828Z</time></trkpt><trkpt lat="44.301145814877884" lon="11.381031481150089"><ele>296.14285714285717</ele><time>2026-05-02T07:31:14.828Z</time></trkpt><trkpt lat="44.30112292299008" lon="11.381141916557064"><ele>297.57142857142856</ele><time>2026-05-02T07:31:18.827Z</time></trkpt><trkpt lat="44.301112336570036" lon="11.381233181462653"><ele>299.0</ele><time>2026-05-02T07:31:22.827Z</time></trkpt><trkpt lat="44.30109480139074" lon="11.38132613528158"><ele>298.2857142857143</ele><time>2026-05-02T07:31:26.827Z</time></trkpt><trkpt lat="44.30106502903054" lon="11.38142579528546"><ele>297.57142857142856</ele><time>2026-05-02T07:31:30.827Z</time></trkpt><trkpt lat="44.30104600893712" lon="11.381522087206365"><ele>296.8571428571429</ele><time>2026-05-02T07:31:34.827Z</time></trkpt><trkpt lat="44.301007878352976" lon="11.381607866576758"><ele>296.1428571428571</ele><time>2026-05-02T07:31:38.827Z</time></trkpt><trkpt lat="44.30097433282496" lon="11.381692820503847"><ele>295.42857142857144</ele><time>2026-05-02T07:31:42.829Z</time></trkpt><trkpt lat="44.30092591919477" lon="11.381786219998258"><ele>294.7142857142857</ele><time>2026-05-02T07:31:46.829Z</time></trkpt><trkpt lat="44.30088735277699" lon="11.381872162875508"><ele>294.0</ele><time>2026-05-02T07:31:50.83Z</time></trkpt><trkpt lat="44.30084454390611" lon="11.381965886435546"><ele>294.0</ele><time>2026-05-02T07:31:54.829Z</time></trkpt><trkpt lat="44.3007964875862" lon="11.38204475307494"><ele>294.0</ele><time>2026-05-02T07:31:58.829Z</time></trkpt><trkpt lat="44.30074649318648" lon="11.38212917278125"><ele>294.0</ele><time>2026-05-02T07:32:02.829Z</time></trkpt><trkpt lat="44.300706650712016" lon="11.382215654272885"><ele>294.0</ele><time>2026-05-02T07:32:06.828Z</time></trkpt><trkpt lat="44.30066209140265" lon="11.382314987620083"><ele>294.0</ele><time>2026-05-02T07:32:10.828Z</time></trkpt><trkpt lat="44.30061596311221" lon="11.382399516907348"><ele>294.0</ele><time>2026-05-02T07:32:14.828Z</time></trkpt><trkpt lat="44.300579613428795" lon="11.38249418086127"><ele>296.5</ele><time>2026-05-02T07:32:18.828Z</time></trkpt><trkpt lat="44.3005363245715" lon="11.38257863507964"><ele>299.0</ele><time>2026-05-02T07:32:22.828Z</time></trkpt><trkpt lat="44.30049155802579" lon="11.382666904466046"><ele>301.5</ele><time>2026-05-02T07:32:26.828Z</time></trkpt><trkpt lat="44.300446129588764" lon="11.382743816033939"><ele>304.0</ele><time>2026-05-02T07:32:30.828Z</time></trkpt><trkpt lat="44.300399603063646" lon="11.382805889872259"><ele>306.5</ele><time>2026-05-02T07:32:34.825Z</time></trkpt><trkpt lat="44.30033765522379" lon="11.382881573539777"><ele>309.0</ele><time>2026-05-02T07:32:38.823Z</time></trkpt><trkpt lat="44.300275129843065" lon="11.382956054020713"><ele>309.00000000000006</ele><time>2026-05-02T07:32:42.821Z</time></trkpt><trkpt lat="44.300223769280706" lon="11.383007666932544"><ele>309.0</ele><time>2026-05-02T07:32:45.82Z</time></trkpt><trkpt lat="44.300174044749205" lon="11.383080602859964"><ele>309.0</ele><time>2026-05-02T07:32:49.819Z</time></trkpt><trkpt lat="44.300115403298776" lon="11.383162471139267"><ele>309.0</ele><time>2026-05-02T07:32:53.818Z</time></trkpt><trkpt lat="44.300053592242186" lon="11.383238416874528"><ele>309.0</ele><time>2026-05-02T07:32:57.818Z</time></trkpt><trkpt lat="44.3000059157245" lon="11.383296793607792"><ele>309.00000000000006</ele><time>2026-05-02T07:33:00.817Z</time></trkpt><trkpt lat="44.29994322717923" lon="11.383368220954141"><ele>309.0</ele><time>2026-05-02T07:33:04.817Z</time></trkpt><trkpt lat="44.29987823689641" lon="11.383442505446405"><ele>310.00000000000006</ele><time>2026-05-02T07:33:08.816Z</time></trkpt><trkpt lat="44.29982234248817" lon="11.383513645682646"><ele>311.0</ele><time>2026-05-02T07:33:12.816Z</time></trkpt><trkpt lat="44.29976336188905" lon="11.383570383331893"><ele>312.0</ele><time>2026-05-02T07:33:16.816Z</time></trkpt><trkpt lat="44.29969586871409" lon="11.383639826506478"><ele>313.0</ele><time>2026-05-02T07:33:20.815Z</time></trkpt><trkpt lat="44.29963112125992" lon="11.3836894080262"><ele>314.0</ele><time>2026-05-02T07:33:24.815Z</time></trkpt><trkpt lat="44.29957031956494" lon="11.383721701337265"><ele>315.00000000000006</ele><time>2026-05-02T07:33:27.815Z</time></trkpt><trkpt lat="44.29950410021846" lon="11.38376812247713"><ele>316.0</ele><time>2026-05-02T07:33:31.815Z</time></trkpt><trkpt lat="44.29944118676516" lon="11.38380513909522"><ele>316.0</ele><time>2026-05-02T07:33:34.815Z</time></trkpt><trkpt lat="44.29938073990681" lon="11.38383998536088"><ele>316.0</ele><time>2026-05-02T07:33:37.815Z</time></trkpt><trkpt lat="44.29930632985595" lon="11.383889061660545"><ele>316.0</ele><time>2026-05-02T07:33:41.814Z</time></trkpt><trkpt lat="44.29923023712284" lon="11.383939987152148"><ele>316.0</ele><time>2026-05-02T07:33:45.814Z</time></trkpt><trkpt lat="44.29916852745572" lon="11.38398658834033"><ele>316.0</ele><time>2026-05-02T07:33:48.816Z</time></trkpt><trkpt lat="44.299092480606205" lon="11.384039562743908"><ele>316.0</ele><time>2026-05-02T07:33:52.816Z</time></trkpt><trkpt lat="44.29901917007272" lon="11.38407445508321"><ele>316.0</ele><time>2026-05-02T07:33:56.816Z</time></trkpt><trkpt lat="44.29893788540957" lon="11.384092278258475"><ele>316.0</ele><time>2026-05-02T07:34:00.816Z</time></trkpt><trkpt lat="44.298865432596045" lon="11.384052787808772"><ele>316.0</ele><time>2026-05-02T07:34:04.816Z</time></trkpt><trkpt lat="44.298846772181165" lon="11.383963636272451"><ele>316.0</ele><time>2026-05-02T07:34:07.816Z</time></trkpt><trkpt lat="44.29887284839893" lon="11.383858173495879"><ele>316.0</ele><time>2026-05-02T07:34:11.815Z</time></trkpt><trkpt lat="44.29893207182071" lon="11.38379272616874"><ele>316.0</ele><time>2026-05-02T07:34:15.815Z</time></trkpt><trkpt lat="44.29900368517375" lon="11.383760655323785"><ele>316.00000000000006</ele><time>2026-05-02T07:34:18.815Z</time></trkpt><trkpt lat="44.299069124292366" lon="11.383727023945108"><ele>316.0</ele><time>2026-05-02T07:34:22.815Z</time></trkpt><trkpt lat="44.29913973754912" lon="11.383690677334112"><ele>316.0</ele><time>2026-05-02T07:34:26.815Z</time></trkpt><trkpt lat="44.29920997282398" lon="11.383669623282604"><ele>316.0</ele><time>2026-05-02T07:34:30.815Z</time></trkpt><trkpt lat="44.29927748699147" lon="11.383620296546441"><ele>316.0</ele><time>2026-05-02T07:34:34.815Z</time></trkpt><trkpt lat="44.299336396458486" lon="11.383572737554568"><ele>316.00000000000006</ele><time>2026-05-02T07:34:38.815Z</time></trkpt><trkpt lat="44.299388033979724" lon="11.383513168993678"><ele>316.0</ele><time>2026-05-02T07:34:42.815Z</time></trkpt><trkpt lat="44.29943650246072" lon="11.383447500930771"><ele>316.00000000000006</ele><time>2026-05-02T07:34:46.814Z</time></trkpt><trkpt lat="44.29949331851706" lon="11.383373492358361"><ele>316.0</ele><time>2026-05-02T07:34:51.814Z</time></trkpt><trkpt lat="44.299542182265824" lon="11.383290077928935"><ele>316.0</ele><time>2026-05-02T07:34:55.814Z</time></trkpt><trkpt lat="44.299568353068366" lon="11.383195388051368"><ele>316.0</ele><time>2026-05-02T07:35:00.814Z</time></trkpt><trkpt lat="44.299589470205" lon="11.383100170452003"><ele>316.0</ele><time>2026-05-02T07:35:04.814Z</time></trkpt><trkpt lat="44.29960434507277" lon="11.383001801349797"><ele>316.00000000000006</ele><time>2026-05-02T07:35:09.814Z</time></trkpt><trkpt lat="44.29962287984237" lon="11.382907673431124"><ele>316.0</ele><time>2026-05-02T07:35:13.814Z</time></trkpt><trkpt lat="44.29964551281031" lon="11.382820282087053"><ele>316.00000000000006</ele><time>2026-05-02T07:35:17.814Z</time></trkpt><trkpt lat="44.29965985622194" lon="11.38271305146191"><ele>316.0</ele><time>2026-05-02T07:35:21.813Z</time></trkpt><trkpt lat="44.29969464874592" lon="11.382623798744003"><ele>316.0</ele><time>2026-05-02T07:35:25.813Z</time></trkpt><trkpt lat="44.29971902028909" lon="11.382523504333706"><ele>316.0</ele><time>2026-05-02T07:35:29.813Z</time></trkpt><trkpt lat="44.299739017847095" lon="11.382438553951587"><ele>316.0</ele><time>2026-05-02T07:35:33.813Z</time></trkpt><trkpt lat="44.29975680246986" lon="11.382353821209195"><ele>316.00000000000006</ele><time>2026-05-02T07:35:37.813Z</time></trkpt><trkpt lat="44.29976876257491" lon="11.382254648947404"><ele>316.0</ele><time>2026-05-02T07:35:41.813Z</time></trkpt><trkpt lat="44.299794763286386" lon="11.382167449824607"><ele>316.00000000000006</ele><time>2026-05-02T07:35:45.813Z</time></trkpt><trkpt lat="44.299812843893896" lon="11.382073384792646"><ele>316.0</ele><time>2026-05-02T07:35:49.813Z</time></trkpt><trkpt lat="44.2998164470339" lon="11.381981857887348"><ele>316.0</ele><time>2026-05-02T07:35:53.815Z</time></trkpt><trkpt lat="44.299807384467506" lon="11.38188943179381"><ele>316.0</ele><time>2026-05-02T07:35:57.815Z</time></trkpt><trkpt lat="44.29979227112667" lon="11.381794687627423"><ele>316.0</ele><time>2026-05-02T07:36:01.814Z</time></trkpt><trkpt lat="44.29977366622702" lon="11.381702550506349"><ele>316.00000000000006</ele><time>2026-05-02T07:36:05.814Z</time></trkpt><trkpt lat="44.29975552959823" lon="11.381612881690547"><ele>316.0</ele><time>2026-05-02T07:36:09.815Z</time></trkpt><trkpt lat="44.29972587683039" lon="11.381526976616753"><ele>316.5714285714286</ele><time>2026-05-02T07:36:13.815Z</time></trkpt><trkpt lat="44.29970644792657" lon="11.381434792315101"><ele>317.14285714285717</ele><time>2026-05-02T07:36:17.815Z</time></trkpt><trkpt lat="44.29968482609777" lon="11.381323974628929"><ele>317.7142857142857</ele><time>2026-05-02T07:36:22.814Z</time></trkpt><trkpt lat="44.299675169646015" lon="11.381217472757323"><ele>318.28571428571433</ele><time>2026-05-02T07:36:27.814Z</time></trkpt><trkpt lat="44.29968670320747" lon="11.38113095431439"><ele>318.8571428571429</ele><time>2026-05-02T07:36:31.814Z</time></trkpt><trkpt lat="44.29970497427848" lon="11.381033554220764"><ele>319.42857142857144</ele><time>2026-05-02T07:36:35.814Z</time></trkpt><trkpt lat="44.29974704919234" lon="11.380937101305504"><ele>320.0</ele><time>2026-05-02T07:36:39.814Z</time></trkpt><trkpt lat="44.299791919774904" lon="11.38086152704842"><ele>320.0</ele><time>2026-05-02T07:36:43.814Z</time></trkpt><trkpt lat="44.299836473095404" lon="11.380783628639634"><ele>320.0</ele><time>2026-05-02T07:36:47.814Z</time></trkpt><trkpt lat="44.299883498580705" lon="11.380709672687347"><ele>320.0</ele><time>2026-05-02T07:36:51.814Z</time></trkpt><trkpt lat="44.29993478338534" lon="11.38062806134716"><ele>320.0</ele><time>2026-05-02T07:36:56.814Z</time></trkpt><trkpt lat="44.29996112125976" lon="11.380543866845601"><ele>320.0</ele><time>2026-05-02T07:37:00.813Z</time></trkpt><trkpt lat="44.299973508113304" lon="11.380433084295463"><ele>320.0</ele><time>2026-05-02T07:37:05.813Z</time></trkpt><trkpt lat="44.29997791088231" lon="11.380338155630492"><ele>320.0</ele><time>2026-05-02T07:37:09.813Z</time></trkpt><trkpt lat="44.29996412234689" lon="11.380241551242838"><ele>320.85714285714283</ele><time>2026-05-02T07:37:13.813Z</time></trkpt><trkpt lat="44.299945429162534" lon="11.3801510138451"><ele>321.7142857142857</ele><time>2026-05-02T07:37:17.813Z</time></trkpt><trkpt lat="44.29992051482592" lon="11.380045764597442"><ele>322.57142857142856</ele><time>2026-05-02T07:37:21.813Z</time></trkpt><trkpt lat="44.29990351723936" lon="11.379958575619181"><ele>323.42857142857144</ele><time>2026-05-02T07:37:25.813Z</time></trkpt><trkpt lat="44.29987798822067" lon="11.379863254826098"><ele>324.2857142857143</ele><time>2026-05-02T07:37:29.813Z</time></trkpt><trkpt lat="44.29985559052407" lon="11.379765984513107"><ele>325.14285714285717</ele><time>2026-05-02T07:37:34.812Z</time></trkpt><trkpt lat="44.29982969690238" lon="11.379669963395509"><ele>326.0</ele><time>2026-05-02T07:37:38.812Z</time></trkpt><trkpt lat="44.2998069315007" lon="11.379574360944677"><ele>327.5714285714286</ele><time>2026-05-02T07:37:42.812Z</time></trkpt><trkpt lat="44.29978969278676" lon="11.379483647469039"><ele>329.1428571428571</ele><time>2026-05-02T07:37:46.812Z</time></trkpt><trkpt lat="44.299770183912266" lon="11.379391270772098"><ele>330.7142857142857</ele><time>2026-05-02T07:37:50.812Z</time></trkpt><trkpt lat="44.29973899041667" lon="11.37931232617421"><ele>332.28571428571433</ele><time>2026-05-02T07:37:54.812Z</time></trkpt><trkpt lat="44.29972988691548" lon="11.3792201320438"><ele>333.8571428571429</ele><time>2026-05-02T07:37:58.812Z</time></trkpt><trkpt lat="44.29973512547948" lon="11.379127009863184"><ele>335.42857142857144</ele><time>2026-05-02T07:38:02.813Z</time></trkpt><trkpt lat="44.29975938758215" lon="11.379021875902273"><ele>337.0</ele><time>2026-05-02T07:38:06.813Z</time></trkpt><trkpt lat="44.29980074953843" lon="11.37895041920745"><ele>337.00000000000006</ele><time>2026-05-02T07:38:09.813Z</time></trkpt><trkpt lat="44.299836619254975" lon="11.37886040516327"><ele>337.0</ele><time>2026-05-02T07:38:13.813Z</time></trkpt><trkpt lat="44.29988473256089" lon="11.378797350603145"><ele>337.0</ele><time>2026-05-02T07:38:17.813Z</time></trkpt><trkpt lat="44.299926971143464" lon="11.378723741424789"><ele>337.0</ele><time>2026-05-02T07:38:21.813Z</time></trkpt><trkpt lat="44.299984730603285" lon="11.378647882095233"><ele>337.0</ele><time>2026-05-02T07:38:25.813Z</time></trkpt><trkpt lat="44.30002369374442" lon="11.378575992075096"><ele>337.00000000000006</ele><time>2026-05-02T07:38:29.813Z</time></trkpt><trkpt lat="44.30001351420168" lon="11.378473546246779"><ele>337.0</ele><time>2026-05-02T07:38:35.813Z</time></trkpt><trkpt lat="44.29995646915839" lon="11.378408187298923"><ele>339.42857142857144</ele><time>2026-05-02T07:38:39.813Z</time></trkpt><trkpt lat="44.29988854629519" lon="11.378393337586639"><ele>341.8571428571429</ele><time>2026-05-02T07:38:43.813Z</time></trkpt><trkpt lat="44.29982461927987" lon="11.378424729664573"><ele>344.28571428571433</ele><time>2026-05-02T07:38:46.813Z</time></trkpt><trkpt lat="44.29975508894292" lon="11.378477290423204"><ele>346.7142857142857</ele><time>2026-05-02T07:38:50.812Z</time></trkpt><trkpt lat="44.29971244629204" lon="11.378547712159039"><ele>349.1428571428571</ele><time>2026-05-02T07:38:54.812Z</time></trkpt><trkpt lat="44.29967281301944" lon="11.378625425585499"><ele>351.5714285714286</ele><time>2026-05-02T07:38:58.812Z</time></trkpt><trkpt lat="44.299628711690076" lon="11.37871477641905"><ele>354.0</ele><time>2026-05-02T07:39:03.812Z</time></trkpt><trkpt lat="44.29959030512392" lon="11.378792921288207"><ele>353.7142857142857</ele><time>2026-05-02T07:39:07.812Z</time></trkpt><trkpt lat="44.29954940307541" lon="11.378869471943942"><ele>353.4285714285714</ele><time>2026-05-02T07:39:11.812Z</time></trkpt><trkpt lat="44.299500486418566" lon="11.37893689698782"><ele>353.1428571428571</ele><time>2026-05-02T07:39:15.812Z</time></trkpt><trkpt lat="44.299461662003665" lon="11.379024646661287"><ele>352.8571428571429</ele><time>2026-05-02T07:39:21.812Z</time></trkpt><trkpt lat="44.29943055791705" lon="11.379101275439576"><ele>352.57142857142856</ele><time>2026-05-02T07:39:24.811Z</time></trkpt><trkpt lat="44.29939821178102" lon="11.3791904117547"><ele>352.2857142857143</ele><time>2026-05-02T07:39:29.811Z</time></trkpt><trkpt lat="44.29938034158201" lon="11.379279119729526"><ele>352.0</ele><time>2026-05-02T07:39:33.811Z</time></trkpt><trkpt lat="44.299361626602675" lon="11.379380764298029"><ele>352.0</ele><time>2026-05-02T07:39:38.811Z</time></trkpt><trkpt lat="44.299345592771665" lon="11.379477222022304"><ele>352.0</ele><time>2026-05-02T07:39:42.811Z</time></trkpt><trkpt lat="44.299316229872396" lon="11.37957855921777"><ele>352.0</ele><time>2026-05-02T07:39:47.811Z</time></trkpt><trkpt lat="44.29929580728215" lon="11.379667045087496"><ele>352.0</ele><time>2026-05-02T07:39:51.811Z</time></trkpt><trkpt lat="44.2992541690655" lon="11.379746354096653"><ele>352.0</ele><time>2026-05-02T07:39:55.811Z</time></trkpt><trkpt lat="44.299214979993366" lon="11.3798243395856"><ele>352.0</ele><time>2026-05-02T07:39:59.811Z</time></trkpt><trkpt lat="44.29916754431579" lon="11.379888846793996"><ele>352.0</ele><time>2026-05-02T07:40:03.81Z</time></trkpt><trkpt lat="44.29911524916188" lon="11.37995562478244"><ele>351.7142857142857</ele><time>2026-05-02T07:40:07.813Z</time></trkpt><trkpt lat="44.29905386403438" lon="11.379993583426705"><ele>351.42857142857144</ele><time>2026-05-02T07:40:11.812Z</time></trkpt><trkpt lat="44.298976797660664" lon="11.380014324709938"><ele>351.1428571428571</ele><time>2026-05-02T07:40:16.812Z</time></trkpt><trkpt lat="44.298912354960436" lon="11.380022609293524"><ele>350.8571428571429</ele><time>2026-05-02T07:40:20.812Z</time></trkpt><trkpt lat="44.2988381082575" lon="11.38002273136746"><ele>350.57142857142856</ele><time>2026-05-02T07:40:24.811Z</time></trkpt><trkpt lat="44.29876994764924" lon="11.380026181143542"><ele>350.2857142857143</ele><time>2026-05-02T07:40:28.811Z</time></trkpt><trkpt lat="44.298706428279814" lon="11.380008617905972"><ele>350.0</ele><time>2026-05-02T07:40:32.811Z</time></trkpt><trkpt lat="44.2986417873172" lon="11.379992489066913"><ele>350.0</ele><time>2026-05-02T07:40:36.811Z</time></trkpt><trkpt lat="44.29858283109207" lon="11.379954641631192"><ele>350.0</ele><time>2026-05-02T07:40:40.811Z</time></trkpt><trkpt lat="44.29852737613613" lon="11.379907700608634"><ele>350.0</ele><time>2026-05-02T07:40:44.811Z</time></trkpt><trkpt lat="44.29847669473247" lon="11.379840842269138"><ele>350.0</ele><time>2026-05-02T07:40:48.811Z</time></trkpt><trkpt lat="44.29843105747138" lon="11.37976168679966"><ele>350.0</ele><time>2026-05-02T07:40:52.811Z</time></trkpt><trkpt lat="44.29839126571692" lon="11.379679321045794"><ele>350.0</ele><time>2026-05-02T07:40:56.811Z</time></trkpt><trkpt lat="44.29835952636388" lon="11.379577190370135"><ele>350.0</ele><time>2026-05-02T07:41:01.81Z</time></trkpt><trkpt lat="44.29833792363827" lon="11.37948900119898"><ele>351.2857142857143</ele><time>2026-05-02T07:41:05.81Z</time></trkpt><trkpt lat="44.29831877141069" lon="11.379389752722044"><ele>352.57142857142856</ele><time>2026-05-02T07:41:09.81Z</time></trkpt><trkpt lat="44.298319426936146" lon="11.379291260507989"><ele>353.8571428571429</ele><time>2026-05-02T07:41:13.81Z</time></trkpt><trkpt lat="44.29832562538102" lon="11.379195902271366"><ele>355.1428571428571</ele><time>2026-05-02T07:41:17.81Z</time></trkpt><trkpt lat="44.29834210887486" lon="11.379106341588562"><ele>356.42857142857144</ele><time>2026-05-02T07:41:21.81Z</time></trkpt><trkpt lat="44.298357748435286" lon="11.379018634694344"><ele>357.7142857142857</ele><time>2026-05-02T07:41:25.81Z</time></trkpt><trkpt lat="44.2983815594404" lon="11.378933466758495"><ele>359.0</ele><time>2026-05-02T07:41:29.81Z</time></trkpt><trkpt lat="44.29841230055349" lon="11.378848105636832"><ele>359.57142857142856</ele><time>2026-05-02T07:41:33.81Z</time></trkpt><trkpt lat="44.29844206658451" lon="11.378750218106294"><ele>360.14285714285717</ele><time>2026-05-02T07:41:38.809Z</time></trkpt><trkpt lat="44.298467844021566" lon="11.378664440283979"><ele>360.71428571428567</ele><time>2026-05-02T07:41:42.809Z</time></trkpt><trkpt lat="44.29850012008627" lon="11.378587356237768"><ele>361.2857142857143</ele><time>2026-05-02T07:41:46.809Z</time></trkpt><trkpt lat="44.29852669069514" lon="11.378492688259296"><ele>361.85714285714283</ele><time>2026-05-02T07:41:50.809Z</time></trkpt><trkpt lat="44.2985554051691" lon="11.378397145779815"><ele>362.4285714285714</ele><time>2026-05-02T07:41:54.809Z</time></trkpt><trkpt lat="44.298580603680726" lon="11.3783021659201"><ele>363.0</ele><time>2026-05-02T07:41:58.809Z</time></trkpt><trkpt lat="44.29860950827318" lon="11.378214516849683"><ele>362.99999999999994</ele><time>2026-05-02T07:42:02.809Z</time></trkpt><trkpt lat="44.2986408463389" lon="11.378113844534472"><ele>363.0</ele><time>2026-05-02T07:42:06.809Z</time></trkpt><trkpt lat="44.29867918586436" lon="11.378025756457848"><ele>363.0</ele><time>2026-05-02T07:42:10.808Z</time></trkpt><trkpt lat="44.29872815894222" lon="11.377944828805939"><ele>363.0</ele><time>2026-05-02T07:42:14.811Z</time></trkpt><trkpt lat="44.298768691173706" lon="11.37786886220565"><ele>363.0</ele><time>2026-05-02T07:42:18.81Z</time></trkpt><trkpt lat="44.29882727140378" lon="11.377801135882768"><ele>362.99999999999994</ele><time>2026-05-02T07:42:22.81Z</time></trkpt><trkpt lat="44.29888310613498" lon="11.377743300636105"><ele>363.0</ele><time>2026-05-02T07:42:26.81Z</time></trkpt><trkpt lat="44.298939051513585" lon="11.377690022461781"><ele>365.3333333333333</ele><time>2026-05-02T07:42:30.81Z</time></trkpt><trkpt lat="44.29900038033799" lon="11.37762618293526"><ele>367.6666666666667</ele><time>2026-05-02T07:42:34.81Z</time></trkpt><trkpt lat="44.29906747749679" lon="11.377568277933863"><ele>370.0</ele><time>2026-05-02T07:42:38.809Z</time></trkpt><trkpt lat="44.29912315086379" lon="11.377505283163776"><ele>372.33333333333337</ele><time>2026-05-02T07:42:42.809Z</time></trkpt><trkpt lat="44.29917738960782" lon="11.377452571262564"><ele>374.6666666666667</ele><time>2026-05-02T07:42:46.809Z</time></trkpt><trkpt lat="44.29923854919427" lon="11.37739863086303"><ele>377.0</ele><time>2026-05-02T07:42:50.809Z</time></trkpt><trkpt lat="44.29931180218867" lon="11.377337925620049"><ele>376.99999999999994</ele><time>2026-05-02T07:42:54.809Z</time></trkpt><trkpt lat="44.29937517620435" lon="11.377274755913927"><ele>377.0</ele><time>2026-05-02T07:42:58.809Z</time></trkpt><trkpt lat="44.29943199945615" lon="11.37723074710179"><ele>377.0</ele><time>2026-05-02T07:43:02.809Z</time></trkpt><trkpt lat="44.299492810095124" lon="11.377164939696385"><ele>377.0</ele><time>2026-05-02T07:43:06.809Z</time></trkpt><trkpt lat="44.29955009778737" lon="11.377107076343247"><ele>377.0</ele><time>2026-05-02T07:43:10.809Z</time></trkpt><trkpt lat="44.29961643673537" lon="11.377060910849716"><ele>376.99999999999994</ele><time>2026-05-02T07:43:14.808Z</time></trkpt><trkpt lat="44.29968323920603" lon="11.377004386606192"><ele>377.0</ele><time>2026-05-02T07:43:19.808Z</time></trkpt><trkpt lat="44.29974294422863" lon="11.37694016244576"><ele>378.85714285714283</ele><time>2026-05-02T07:43:23.808Z</time></trkpt><trkpt lat="44.299798503506715" lon="11.376890664718546"><ele>380.7142857142857</ele><time>2026-05-02T07:43:27.808Z</time></trkpt><trkpt lat="44.29986370981271" lon="11.37683970804998"><ele>382.57142857142856</ele><time>2026-05-02T07:43:31.808Z</time></trkpt><trkpt lat="44.29992269489901" lon="11.376787009326577"><ele>384.42857142857144</ele><time>2026-05-02T07:43:35.808Z</time></trkpt><trkpt lat="44.29998383534417" lon="11.37672293544223"><ele>386.2857142857143</ele><time>2026-05-02T07:43:39.808Z</time></trkpt><trkpt lat="44.30004375917108" lon="11.376655516098147"><ele>388.1428571428571</ele><time>2026-05-02T07:43:43.808Z</time></trkpt><trkpt lat="44.30010856309693" lon="11.376593386405656"><ele>390.0</ele><time>2026-05-02T07:43:47.808Z</time></trkpt><trkpt lat="44.300165225619615" lon="11.376545242197881"><ele>390.0</ele><time>2026-05-02T07:43:51.807Z</time></trkpt><trkpt lat="44.30022166079572" lon="11.376473320487191"><ele>390.0</ele><time>2026-05-02T07:43:55.807Z</time></trkpt><trkpt lat="44.30028617637638" lon="11.376424003760734"><ele>390.0</ele><time>2026-05-02T07:43:59.807Z</time></trkpt><trkpt lat="44.30034859128934" lon="11.376367521853853"><ele>390.0</ele><time>2026-05-02T07:44:03.807Z</time></trkpt><trkpt lat="44.300408552887646" lon="11.376331670584008"><ele>390.0</ele><time>2026-05-02T07:44:08.807Z</time></trkpt><trkpt lat="44.30048820725255" lon="11.37632403353007"><ele>390.0</ele><time>2026-05-02T07:44:13.807Z</time></trkpt><trkpt lat="44.300559424586375" lon="11.376317118100742"><ele>390.0</ele><time>2026-05-02T07:44:17.809Z</time></trkpt><trkpt lat="44.30063430663706" lon="11.376323989370771"><ele>391.1666666666667</ele><time>2026-05-02T07:44:21.809Z</time></trkpt><trkpt lat="44.30070596844948" lon="11.376307216832638"><ele>392.33333333333337</ele><time>2026-05-02T07:44:25.809Z</time></trkpt><trkpt lat="44.30077367052528" lon="11.376271651402272"><ele>393.5</ele><time>2026-05-02T07:44:30.809Z</time></trkpt><trkpt lat="44.30086134471886" lon="11.37622367082231"><ele>394.6666666666667</ele><time>2026-05-02T07:44:56.808Z</time></trkpt><trkpt lat="44.30081340221604" lon="11.376135915982271"><ele>395.83333333333337</ele><time>2026-05-02T07:45:03.808Z</time></trkpt><trkpt lat="44.30074216619972" lon="11.37612099363976"><ele>397.0</ele><time>2026-05-02T07:45:09.807Z</time></trkpt><trkpt lat="44.30067249761862" lon="11.376072053630576"><ele>397.0</ele><time>2026-05-02T07:45:14.807Z</time></trkpt><trkpt lat="44.30060786848572" lon="11.37606244221598"><ele>397.0</ele><time>2026-05-02T07:45:17.807Z</time></trkpt><trkpt lat="44.30054442703466" lon="11.376059893758045"><ele>397.0</ele><time>2026-05-02T07:45:20.807Z</time></trkpt><trkpt lat="44.300459700141644" lon="11.376064146287812"><ele>397.0</ele><time>2026-05-02T07:45:24.807Z</time></trkpt><trkpt lat="44.30039442711375" lon="11.376072907731956"><ele>397.0</ele><time>2026-05-02T07:45:27.807Z</time></trkpt><trkpt lat="44.300332002685856" lon="11.37609096926083"><ele>397.0</ele><time>2026-05-02T07:45:30.807Z</time></trkpt><trkpt lat="44.300266461812946" lon="11.376120774290166"><ele>397.0</ele><time>2026-05-02T07:45:33.807Z</time></trkpt><trkpt lat="44.30018566842959" lon="11.376158253130344"><ele>398.50000000000006</ele><time>2026-05-02T07:45:37.807Z</time></trkpt><trkpt lat="44.300100139286485" lon="11.376178663537972"><ele>400.0</ele><time>2026-05-02T07:45:41.807Z</time></trkpt><trkpt lat="44.300036282252044" lon="11.376205241224433"><ele>401.5</ele><time>2026-05-02T07:45:44.807Z</time></trkpt><trkpt lat="44.29995744594368" lon="11.376237725328672"><ele>403.0</ele><time>2026-05-02T07:45:48.806Z</time></trkpt><trkpt lat="44.29988666910185" lon="11.376270197503805"><ele>404.50000000000006</ele><time>2026-05-02T07:45:51.806Z</time></trkpt><trkpt lat="44.29981389161737" lon="11.376302985621182"><ele>406.0</ele><time>2026-05-02T07:45:54.806Z</time></trkpt><trkpt lat="44.29974345236098" lon="11.376320178455012"><ele>407.0</ele><time>2026-05-02T07:45:57.806Z</time></trkpt><trkpt lat="44.299681378729886" lon="11.376340728221363"><ele>408.0</ele><time>2026-05-02T07:46:00.806Z</time></trkpt><trkpt lat="44.299609657712736" lon="11.376369174237785"><ele>409.0</ele><time>2026-05-02T07:46:03.806Z</time></trkpt><trkpt lat="44.29954612828483" lon="11.376404132215026"><ele>410.0</ele><time>2026-05-02T07:46:06.806Z</time></trkpt><trkpt lat="44.299476740929705" lon="11.37643594460694"><ele>411.0</ele><time>2026-05-02T07:46:09.806Z</time></trkpt><trkpt lat="44.29939436923531" lon="11.37647050571514"><ele>412.0</ele><time>2026-05-02T07:46:12.806Z</time></trkpt><trkpt lat="44.29931705469403" lon="11.376504005229084"><ele>413.0</ele><time>2026-05-02T07:46:15.806Z</time></trkpt><trkpt lat="44.29924844285266" lon="11.376528186394564"><ele>409.99999999999994</ele><time>2026-05-02T07:46:18.806Z</time></trkpt><trkpt lat="44.2991803725508" lon="11.376552055551072"><ele>407.0</ele><time>2026-05-02T07:46:21.805Z</time></trkpt><trkpt lat="44.29909839303419" lon="11.376579125666618"><ele>404.0</ele><time>2026-05-02T07:46:24.807Z</time></trkpt><trkpt lat="44.29901309030374" lon="11.376595402867663"><ele>401.0</ele><time>2026-05-02T07:46:27.808Z</time></trkpt><trkpt lat="44.29892963126654" lon="11.376606532185434"><ele>397.99999999999994</ele><time>2026-05-02T07:46:30.807Z</time></trkpt><trkpt lat="44.2988523323558" lon="11.376607579986333"><ele>395.0</ele><time>2026-05-02T07:46:33.807Z</time></trkpt><trkpt lat="44.29877834970609" lon="11.37660521750246"><ele>394.99999999999994</ele><time>2026-05-02T07:46:36.807Z</time></trkpt><trkpt lat="44.29870836745583" lon="11.376596855825994"><ele>395.0</ele><time>2026-05-02T07:46:39.807Z</time></trkpt><trkpt lat="44.29862301889609" lon="11.376597605948708"><ele>395.0</ele><time>2026-05-02T07:46:42.807Z</time></trkpt><trkpt lat="44.29853887420321" lon="11.376589149392359"><ele>395.0</ele><time>2026-05-02T07:46:45.807Z</time></trkpt><trkpt lat="44.298469697759344" lon="11.37657094079067"><ele>394.99999999999994</ele><time>2026-05-02T07:46:48.807Z</time></trkpt><trkpt lat="44.298405144715424" lon="11.376514638337415"><ele>395.0</ele><time>2026-05-02T07:46:51.807Z</time></trkpt><trkpt lat="44.29834980746096" lon="11.376437350845855"><ele>395.0</ele><time>2026-05-02T07:46:54.807Z</time></trkpt><trkpt lat="44.29829297838203" lon="11.376361577674254"><ele>395.0</ele><time>2026-05-02T07:46:57.807Z</time></trkpt><trkpt lat="44.29824308193066" lon="11.376292407185392"><ele>395.0</ele><time>2026-05-02T07:47:00.806Z</time></trkpt><trkpt lat="44.298188667624636" lon="11.376230909613703"><ele>395.0</ele><time>2026-05-02T07:47:03.806Z</time></trkpt><trkpt lat="44.29811898614522" lon="11.376192290960516"><ele>395.0</ele><time>2026-05-02T07:47:06.806Z</time></trkpt><trkpt lat="44.29804218495429" lon="11.376173225019254"><ele>395.0</ele><time>2026-05-02T07:47:09.806Z</time></trkpt><trkpt lat="44.29796754559398" lon="11.376156942433427"><ele>395.0</ele><time>2026-05-02T07:47:12.806Z</time></trkpt><trkpt lat="44.29788680985994" lon="11.376162469850968"><ele>394.99999999999994</ele><time>2026-05-02T07:47:15.806Z</time></trkpt><trkpt lat="44.29780408939068" lon="11.376177407954241"><ele>395.0</ele><time>2026-05-02T07:47:18.806Z</time></trkpt><trkpt lat="44.29772406107937" lon="11.376195535599662"><ele>395.0</ele><time>2026-05-02T07:47:21.806Z</time></trkpt><trkpt lat="44.29765434544059" lon="11.37623130785019"><ele>395.0</ele><time>2026-05-02T07:47:24.806Z</time></trkpt><trkpt lat="44.29757890536514" lon="11.37626673342562"><ele>394.99999999999994</ele><time>2026-05-02T07:47:27.806Z</time></trkpt><trkpt lat="44.29751451459539" lon="11.376326447263814"><ele>395.0</ele><time>2026-05-02T07:47:30.806Z</time></trkpt><trkpt lat="44.297440267122596" lon="11.376367884664463"><ele>394.99999999999994</ele><time>2026-05-02T07:47:33.806Z</time></trkpt><trkpt lat="44.297360238626396" lon="11.37640255818575"><ele>395.0</ele><time>2026-05-02T07:47:36.805Z</time></trkpt><trkpt lat="44.29727800776134" lon="11.376419369334519"><ele>395.0</ele><time>2026-05-02T07:47:39.805Z</time></trkpt><trkpt lat="44.297187695632616" lon="11.376434161805912"><ele>395.0</ele><time>2026-05-02T07:47:42.805Z</time></trkpt><trkpt lat="44.29710585386986" lon="11.37639768622588"><ele>394.99999999999994</ele><time>2026-05-02T07:47:45.805Z</time></trkpt><trkpt lat="44.29702384014255" lon="11.376357222189839"><ele>395.0</ele><time>2026-05-02T07:47:48.805Z</time></trkpt><trkpt lat="44.296966285157424" lon="11.376315259899608"><ele>396.4285714285714</ele><time>2026-05-02T07:47:50.805Z</time></trkpt><trkpt lat="44.29691666160546" lon="11.376250776401273"><ele>397.8571428571429</ele><time>2026-05-02T07:47:52.805Z</time></trkpt><trkpt lat="44.29686328354786" lon="11.37617355381169"><ele>399.2857142857143</ele><time>2026-05-02T07:47:54.805Z</time></trkpt><trkpt lat="44.29682126803107" lon="11.376099787962513"><ele>400.71428571428567</ele><time>2026-05-02T07:47:56.805Z</time></trkpt><trkpt lat="44.296774871912845" lon="11.37600290721115"><ele>402.1428571428571</ele><time>2026-05-02T07:47:58.805Z</time></trkpt><trkpt lat="44.29673564663496" lon="11.375912052202692"><ele>403.57142857142856</ele><time>2026-05-02T07:48:00.805Z</time></trkpt><trkpt lat="44.29671084782255" lon="11.375816329452332"><ele>405.0</ele><time>2026-05-02T07:48:02.805Z</time></trkpt><trkpt lat="44.29668516989174" lon="11.375716025375965"><ele>405.0</ele><time>2026-05-02T07:48:04.805Z</time></trkpt><trkpt lat="44.296651596402654" lon="11.375620162493925"><ele>405.0</ele><time>2026-05-02T07:48:06.805Z</time></trkpt><trkpt lat="44.29661443569623" lon="11.375514091397623"><ele>405.0</ele><time>2026-05-02T07:48:08.805Z</time></trkpt><trkpt lat="44.29658420616693" lon="11.375404399042292"><ele>405.0</ele><time>2026-05-02T07:48:10.805Z</time></trkpt><trkpt lat="44.296539047044945" lon="11.375295627872504"><ele>405.0</ele><time>2026-05-02T07:48:12.804Z</time></trkpt><trkpt lat="44.29648823093681" lon="11.375176987533811"><ele>405.0</ele><time>2026-05-02T07:48:14.804Z</time></trkpt><trkpt lat="44.29642836548669" lon="11.375065188020944"><ele>405.2</ele><time>2026-05-02T07:48:16.804Z</time></trkpt><trkpt lat="44.29637328179329" lon="11.374955563167173"><ele>405.4</ele><time>2026-05-02T07:48:18.804Z</time></trkpt><trkpt lat="44.29631317606367" lon="11.374848995811366"><ele>405.6</ele><time>2026-05-02T07:48:20.804Z</time></trkpt><trkpt lat="44.29625398213502" lon="11.374740512046035"><ele>405.8</ele><time>2026-05-02T07:48:22.804Z</time></trkpt><trkpt lat="44.296181009917014" lon="11.374640913566303"><ele>406.0</ele><time>2026-05-02T07:48:24.804Z</time></trkpt><trkpt lat="44.29610736567452" lon="11.37453481788464"><ele>406.0</ele><time>2026-05-02T07:48:26.804Z</time></trkpt><trkpt lat="44.29603680216562" lon="11.374437700042218"><ele>406.0</ele><time>2026-05-02T07:48:28.804Z</time></trkpt><trkpt lat="44.295947258378156" lon="11.374347210573571"><ele>406.0</ele><time>2026-05-02T07:48:30.806Z</time></trkpt><trkpt lat="44.295857239593666" lon="11.374261115912095"><ele>406.0</ele><time>2026-05-02T07:48:32.803Z</time></trkpt><trkpt lat="44.29576522956051" lon="11.374185319272552"><ele>406.0</ele><time>2026-05-02T07:48:34.803Z</time></trkpt><trkpt lat="44.29566702103584" lon="11.3741251991514"><ele>403.5</ele><time>2026-05-02T07:48:36.801Z</time></trkpt><trkpt lat="44.29556316888926" lon="11.374063660302808"><ele>401.0</ele><time>2026-05-02T07:48:38.8Z</time></trkpt><trkpt lat="44.295463504570805" lon="11.373983815487268"><ele>398.5</ele><time>2026-05-02T07:48:40.799Z</time></trkpt><trkpt lat="44.29535690136474" lon="11.373933194642868"><ele>396.0</ele><time>2026-05-02T07:48:42.799Z</time></trkpt><trkpt lat="44.29525037629107" lon="11.37388801030903"><ele>398.0</ele><time>2026-05-02T07:48:44.798Z</time></trkpt><trkpt lat="44.29513837918693" lon="11.37384942740857"><ele>400.0</ele><time>2026-05-02T07:48:46.797Z</time></trkpt><trkpt lat="44.29502758624812" lon="11.373821724277915"><ele>402.0</ele><time>2026-05-02T07:48:48.796Z</time></trkpt><trkpt lat="44.29492354122672" lon="11.37380080109462"><ele>404.0</ele><time>2026-05-02T07:48:50.796Z</time></trkpt><trkpt lat="44.29482654701821" lon="11.373787781804358"><ele>406.0</ele><time>2026-05-02T07:48:52.795Z</time></trkpt><trkpt lat="44.29473219739625" lon="11.37377636647814"><ele>406.0</ele><time>2026-05-02T07:48:54.795Z</time></trkpt><trkpt lat="44.2946333192094" lon="11.373765013035666"><ele>406.0</ele><time>2026-05-02T07:48:56.795Z</time></trkpt><trkpt lat="44.294539369026246" lon="11.373754225436468"><ele>406.0</ele><time>2026-05-02T07:48:58.794Z</time></trkpt><trkpt lat="44.294439800720994" lon="11.373780269440909"><ele>406.0</ele><time>2026-05-02T07:49:00.794Z</time></trkpt><trkpt lat="44.29436025088847" lon="11.373771817121549"><ele>406.0</ele><time>2026-05-02T07:49:02.794Z</time></trkpt><trkpt lat="44.29427463541451" lon="11.373775289781191"><ele>406.0</ele><time>2026-05-02T07:49:04.793Z</time></trkpt><trkpt lat="44.294196362422916" lon="11.37376402117064"><ele>406.0</ele><time>2026-05-02T07:49:06.793Z</time></trkpt><trkpt lat="44.29412810799038" lon="11.37374737081707"><ele>406.0</ele><time>2026-05-02T07:49:08.793Z</time></trkpt><trkpt lat="44.29405976743821" lon="11.373736497144337"><ele>406.0</ele><time>2026-05-02T07:49:10.793Z</time></trkpt><trkpt lat="44.2939966691673" lon="11.373722649990254"><ele>406.0</ele><time>2026-05-02T07:49:12.792Z</time></trkpt><trkpt lat="44.29393130563807" lon="11.37370176580571"><ele>406.0</ele><time>2026-05-02T07:49:14.792Z</time></trkpt><trkpt lat="44.293853744289805" lon="11.373698798293313"><ele>406.0</ele><time>2026-05-02T07:49:16.792Z</time></trkpt><trkpt lat="44.29378785254115" lon="11.373684339450854"><ele>404.50000000000006</ele><time>2026-05-02T07:49:18.792Z</time></trkpt><trkpt lat="44.29369616333466" lon="11.37367183082991"><ele>403.0</ele><time>2026-05-02T07:49:21.792Z</time></trkpt><trkpt lat="44.293629830078864" lon="11.373672414184183"><ele>401.5</ele><time>2026-05-02T07:49:23.792Z</time></trkpt><trkpt lat="44.293562253653015" lon="11.373657430532093"><ele>400.0</ele><time>2026-05-02T07:49:25.792Z</time></trkpt><trkpt lat="44.29346966826138" lon="11.373646475691418"><ele>398.50000000000006</ele><time>2026-05-02T07:49:28.791Z</time></trkpt><trkpt lat="44.293376306181266" lon="11.373643116825173"><ele>397.0</ele><time>2026-05-02T07:49:31.791Z</time></trkpt><trkpt lat="44.2932846892044" lon="11.373627487996723"><ele>397.00000000000006</ele><time>2026-05-02T07:49:34.791Z</time></trkpt><trkpt lat="44.29322102274548" lon="11.373615499854953"><ele>397.0</ele><time>2026-05-02T07:49:36.791Z</time></trkpt><trkpt lat="44.29313517522753" lon="11.373603476080703"><ele>397.0</ele><time>2026-05-02T07:49:39.791Z</time></trkpt><trkpt lat="44.293046426039126" lon="11.37359520310191"><ele>397.0</ele><time>2026-05-02T07:49:42.791Z</time></trkpt><trkpt lat="44.292964871177844" lon="11.373590438669623"><ele>397.00000000000006</ele><time>2026-05-02T07:49:45.791Z</time></trkpt><trkpt lat="44.292888655619706" lon="11.373595439438624"><ele>397.0</ele><time>2026-05-02T07:49:48.791Z</time></trkpt><trkpt lat="44.292801635649425" lon="11.373597159558702"><ele>397.50000000000006</ele><time>2026-05-02T07:49:51.79Z</time></trkpt><trkpt lat="44.292716654451475" lon="11.373604985762363"><ele>398.0</ele><time>2026-05-02T07:49:54.79Z</time></trkpt><trkpt lat="44.29263004967325" lon="11.373612113368582"><ele>398.5</ele><time>2026-05-02T07:49:57.79Z</time></trkpt><trkpt lat="44.29255246425477" lon="11.373624753892754"><ele>399.0</ele><time>2026-05-02T07:50:00.79Z</time></trkpt><trkpt lat="44.292474694853006" lon="11.373635146227992"><ele>399.50000000000006</ele><time>2026-05-02T07:50:03.79Z</time></trkpt><trkpt lat="44.29240313264381" lon="11.37364723320591"><ele>400.0</ele><time>2026-05-02T07:50:06.79Z</time></trkpt><trkpt lat="44.29232794901976" lon="11.373657570287008"><ele>400.00000000000006</ele><time>2026-05-02T07:50:09.79Z</time></trkpt><trkpt lat="44.29225698808648" lon="11.373662294243001"><ele>400.0</ele><time>2026-05-02T07:50:12.79Z</time></trkpt><trkpt lat="44.29218645435707" lon="11.373679542990539"><ele>400.0</ele><time>2026-05-02T07:50:15.79Z</time></trkpt><trkpt lat="44.29210417352327" lon="11.373702389378556"><ele>400.0</ele><time>2026-05-02T07:50:18.79Z</time></trkpt><trkpt lat="44.29202008896122" lon="11.373718404654387"><ele>400.00000000000006</ele><time>2026-05-02T07:50:21.789Z</time></trkpt><trkpt lat="44.29193376425542" lon="11.373739782052633"><ele>400.0</ele><time>2026-05-02T07:50:24.789Z</time></trkpt><trkpt lat="44.29185542858063" lon="11.373764482438416"><ele>401.00000000000006</ele><time>2026-05-02T07:50:27.789Z</time></trkpt><trkpt lat="44.2917718940833" lon="11.373776104264595"><ele>402.0</ele><time>2026-05-02T07:50:30.789Z</time></trkpt><trkpt lat="44.29167952358" lon="11.373797238629718"><ele>403.0</ele><time>2026-05-02T07:50:33.789Z</time></trkpt><trkpt lat="44.29159430788885" lon="11.37380897307828"><ele>404.0</ele><time>2026-05-02T07:50:36.79Z</time></trkpt><trkpt lat="44.291513777562486" lon="11.373815884306488"><ele>405.00000000000006</ele><time>2026-05-02T07:50:39.791Z</time></trkpt><trkpt lat="44.29142717566084" lon="11.373824024296242"><ele>406.0</ele><time>2026-05-02T07:50:42.79Z</time></trkpt><trkpt lat="44.29136183104388" lon="11.373835523584276"><ele>406.14285714285717</ele><time>2026-05-02T07:50:44.79Z</time></trkpt><trkpt lat="44.291293054228944" lon="11.373832373196993"><ele>406.2857142857143</ele><time>2026-05-02T07:50:46.79Z</time></trkpt><trkpt lat="44.291222857397244" lon="11.37385259042053"><ele>406.42857142857144</ele><time>2026-05-02T07:50:48.79Z</time></trkpt><trkpt lat="44.29115684598663" lon="11.37385651454266"><ele>406.57142857142856</ele><time>2026-05-02T07:50:50.79Z</time></trkpt><trkpt lat="44.29108836186482" lon="11.373881601430863"><ele>406.7142857142857</ele><time>2026-05-02T07:50:52.79Z</time></trkpt><trkpt lat="44.29102265925316" lon="11.373894519737108"><ele>406.8571428571429</ele><time>2026-05-02T07:50:54.79Z</time></trkpt><trkpt lat="44.29093754814643" lon="11.373911485839624"><ele>407.0</ele><time>2026-05-02T07:50:56.79Z</time></trkpt><trkpt lat="44.2908571036532" lon="11.373917709546987"><ele>407.0</ele><time>2026-05-02T07:50:58.79Z</time></trkpt><trkpt lat="44.290778540805015" lon="11.373895875624948"><ele>407.0</ele><time>2026-05-02T07:51:00.79Z</time></trkpt><trkpt lat="44.29068558015061" lon="11.37385547214298"><ele>407.0</ele><time>2026-05-02T07:51:02.789Z</time></trkpt><trkpt lat="44.290584719771594" lon="11.373824559560763"><ele>407.0</ele><time>2026-05-02T07:51:04.789Z</time></trkpt><trkpt lat="44.29049124893769" lon="11.373779029164762"><ele>407.0</ele><time>2026-05-02T07:51:06.789Z</time></trkpt><trkpt lat="44.290407086685214" lon="11.373749861558219"><ele>410.20000000000005</ele><time>2026-05-02T07:51:08.789Z</time></trkpt><trkpt lat="44.29032323704628" lon="11.373723923690832"><ele>413.4</ele><time>2026-05-02T07:51:10.789Z</time></trkpt><trkpt lat="44.2902246770773" lon="11.373712283307922"><ele>416.6</ele><time>2026-05-02T07:51:12.789Z</time></trkpt><trkpt lat="44.290126269994424" lon="11.373724651260142"><ele>419.79999999999995</ele><time>2026-05-02T07:51:14.789Z</time></trkpt><trkpt lat="44.290034913637044" lon="11.373745932806857"><ele>423.0</ele><time>2026-05-02T07:51:16.789Z</time></trkpt><trkpt lat="44.289944067453675" lon="11.373795769016574"><ele>420.59999999999997</ele><time>2026-05-02T07:51:18.789Z</time></trkpt><trkpt lat="44.28986452608072" lon="11.373857871895051"><ele>418.2</ele><time>2026-05-02T07:51:20.789Z</time></trkpt><trkpt lat="44.28978735373822" lon="11.373930330813849"><ele>415.8</ele><time>2026-05-02T07:51:22.789Z</time></trkpt><trkpt lat="44.28970770583835" lon="11.373999060294047"><ele>413.4</ele><time>2026-05-02T07:51:24.789Z</time></trkpt><trkpt lat="44.28961658579819" lon="11.37408137207822"><ele>411.0</ele><time>2026-05-02T07:51:26.789Z</time></trkpt><trkpt lat="44.28952293331583" lon="11.374149466327886"><ele>411.0</ele><time>2026-05-02T07:51:28.789Z</time></trkpt><trkpt lat="44.289426764531115" lon="11.374193900208017"><ele>411.0</ele><time>2026-05-02T07:51:30.789Z</time></trkpt><trkpt lat="44.289327041084086" lon="11.37420882266005"><ele>411.0</ele><time>2026-05-02T07:51:32.789Z</time></trkpt><trkpt lat="44.289229698423824" lon="11.374195833866033"><ele>411.0</ele><time>2026-05-02T07:51:34.788Z</time></trkpt><trkpt lat="44.28913003443052" lon="11.37417652831869"><ele>411.0</ele><time>2026-05-02T07:51:36.788Z</time></trkpt><trkpt lat="44.28902907584251" lon="11.374165397885363"><ele>411.0</ele><time>2026-05-02T07:51:38.788Z</time></trkpt><trkpt lat="44.28892615293203" lon="11.374161419394637"><ele>411.0</ele><time>2026-05-02T07:51:40.788Z</time></trkpt><trkpt lat="44.288820219926535" lon="11.374184150670374"><ele>411.0</ele><time>2026-05-02T07:51:42.788Z</time></trkpt><trkpt lat="44.28871714968518" lon="11.374224055125993"><ele>411.0</ele><time>2026-05-02T07:51:44.788Z</time></trkpt><trkpt lat="44.288633231044784" lon="11.374299727278757"><ele>411.0</ele><time>2026-05-02T07:51:46.788Z</time></trkpt><trkpt lat="44.288558673570684" lon="11.37438998463259"><ele>410.4</ele><time>2026-05-02T07:51:48.788Z</time></trkpt><trkpt lat="44.28849473594153" lon="11.374492120208224"><ele>409.8</ele><time>2026-05-02T07:51:50.788Z</time></trkpt><trkpt lat="44.288438004413386" lon="11.374592410421231"><ele>409.2</ele><time>2026-05-02T07:51:52.788Z</time></trkpt><trkpt lat="44.288375960133976" lon="11.37468887486336"><ele>408.59999999999997</ele><time>2026-05-02T07:51:54.788Z</time></trkpt><trkpt lat="44.28831089781156" lon="11.374790698084192"><ele>408.0</ele><time>2026-05-02T07:51:56.788Z</time></trkpt><trkpt lat="44.28825168601603" lon="11.374886573595331"><ele>408.0</ele><time>2026-05-02T07:51:58.788Z</time></trkpt><trkpt lat="44.2881967025669" lon="11.374979572093038"><ele>408.0</ele><time>2026-05-02T07:52:00.788Z</time></trkpt><trkpt lat="44.28812989630892" lon="11.375058185859395"><ele>408.0</ele><time>2026-05-02T07:52:02.788Z</time></trkpt><trkpt lat="44.28807044099569" lon="11.375137517868938"><ele>408.0</ele><time>2026-05-02T07:52:04.788Z</time></trkpt><trkpt lat="44.28800961417428" lon="11.375199706525512"><ele>408.0</ele><time>2026-05-02T07:52:06.788Z</time></trkpt><trkpt lat="44.28794582218841" lon="11.37526659904442"><ele>408.0</ele><time>2026-05-02T07:52:08.787Z</time></trkpt><trkpt lat="44.28786816804176" lon="11.375324284720461"><ele>406.59999999999997</ele><time>2026-05-02T07:52:10.787Z</time></trkpt><trkpt lat="44.28778058304484" lon="11.375399553357246"><ele>405.2</ele><time>2026-05-02T07:52:12.787Z</time></trkpt><trkpt lat="44.287702960357194" lon="11.375468230863822"><ele>403.8</ele><time>2026-05-02T07:52:14.787Z</time></trkpt><trkpt lat="44.287617956756584" lon="11.375520824153606"><ele>402.4</ele><time>2026-05-02T07:52:16.787Z</time></trkpt><trkpt lat="44.287533036508414" lon="11.37555738416482"><ele>401.0</ele><time>2026-05-02T07:52:18.787Z</time></trkpt><trkpt lat="44.28744730979894" lon="11.37558179124363"><ele>403.49999999999994</ele><time>2026-05-02T07:52:20.787Z</time></trkpt><trkpt lat="44.287363718552974" lon="11.375607778789863"><ele>406.0</ele><time>2026-05-02T07:52:22.787Z</time></trkpt><trkpt lat="44.28727429151812" lon="11.375638047528561"><ele>408.5</ele><time>2026-05-02T07:52:24.787Z</time></trkpt><trkpt lat="44.28718758526482" lon="11.37567551581708"><ele>411.0</ele><time>2026-05-02T07:52:26.787Z</time></trkpt><trkpt lat="44.287106032778915" lon="11.375702912422287"><ele>413.49999999999994</ele><time>2026-05-02T07:52:28.787Z</time></trkpt><trkpt lat="44.28702483987756" lon="11.375721566008997"><ele>416.0</ele><time>2026-05-02T07:52:30.787Z</time></trkpt><trkpt lat="44.286949652475414" lon="11.375752950624344"><ele>416.0</ele><time>2026-05-02T07:52:32.787Z</time></trkpt><trkpt lat="44.28686753257697" lon="11.375791415567598"><ele>416.0</ele><time>2026-05-02T07:52:34.787Z</time></trkpt><trkpt lat="44.28677684716518" lon="11.375820516594954"><ele>416.0</ele><time>2026-05-02T07:52:36.787Z</time></trkpt><trkpt lat="44.286685522063635" lon="11.375837734610547"><ele>416.0</ele><time>2026-05-02T07:52:38.787Z</time></trkpt><trkpt lat="44.28659139183798" lon="11.37587117338921"><ele>416.0</ele><time>2026-05-02T07:52:40.786Z</time></trkpt><trkpt lat="44.28650354471769" lon="11.375885267217537"><ele>417.20000000000005</ele><time>2026-05-02T07:52:42.788Z</time></trkpt><trkpt lat="44.286427371482596" lon="11.375921188709347"><ele>418.40000000000003</ele><time>2026-05-02T07:52:44.788Z</time></trkpt><trkpt lat="44.28634316323182" lon="11.375935326669037"><ele>419.6</ele><time>2026-05-02T07:52:46.788Z</time></trkpt><trkpt lat="44.28625140400353" lon="11.37595198871483"><ele>420.8</ele><time>2026-05-02T07:52:48.788Z</time></trkpt><trkpt lat="44.28615139685435" lon="11.375955859267336"><ele>422.0</ele><time>2026-05-02T07:52:50.789Z</time></trkpt><trkpt lat="44.28605772101252" lon="11.375939852789791"><ele>421.99999999999994</ele><time>2026-05-02T07:52:52.788Z</time></trkpt><trkpt lat="44.2859756032737" lon="11.375893971698579"><ele>422.0</ele><time>2026-05-02T07:52:54.788Z</time></trkpt><trkpt lat="44.28590402971777" lon="11.375828613796552"><ele>422.0</ele><time>2026-05-02T07:52:56.788Z</time></trkpt><trkpt lat="44.285839595178274" lon="11.375747863491503"><ele>422.0</ele><time>2026-05-02T07:52:58.788Z</time></trkpt><trkpt lat="44.28579792508961" lon="11.375656410009967"><ele>421.99999999999994</ele><time>2026-05-02T07:53:00.788Z</time></trkpt><trkpt lat="44.28576376144307" lon="11.37555774385035"><ele>422.0</ele><time>2026-05-02T07:53:02.788Z</time></trkpt><trkpt lat="44.285747243913555" lon="11.375416353609094"><ele>420.49999999999994</ele><time>2026-05-02T07:53:05.787Z</time></trkpt><trkpt lat="44.28574341094392" lon="11.375306668861791"><ele>419.0</ele><time>2026-05-02T07:53:07.787Z</time></trkpt><trkpt lat="44.28574901308424" lon="11.375189790914826"><ele>417.5</ele><time>2026-05-02T07:53:09.787Z</time></trkpt><trkpt lat="44.2857476585706" lon="11.375075177325318"><ele>416.0</ele><time>2026-05-02T07:53:11.787Z</time></trkpt><trkpt lat="44.28574544212072" lon="11.374976939266796"><ele>414.49999999999994</ele><time>2026-05-02T07:53:13.787Z</time></trkpt><trkpt lat="44.2857397119241" lon="11.374883413784376"><ele>413.0</ele><time>2026-05-02T07:53:15.787Z</time></trkpt><trkpt lat="44.285720718312284" lon="11.374783882973219"><ele>412.99999999999994</ele><time>2026-05-02T07:53:17.787Z</time></trkpt><trkpt lat="44.28569863637932" lon="11.374691504994553"><ele>413.0</ele><time>2026-05-02T07:53:19.787Z</time></trkpt><trkpt lat="44.285664815530126" lon="11.374588564297172"><ele>413.0</ele><time>2026-05-02T07:53:21.787Z</time></trkpt><trkpt lat="44.28562527899382" lon="11.374518441016583"><ele>413.0</ele><time>2026-05-02T07:53:23.787Z</time></trkpt><trkpt lat="44.28554130048607" lon="11.374442638681712"><ele>412.99999999999994</ele><time>2026-05-02T07:53:26.787Z</time></trkpt><trkpt lat="44.28546513550865" lon="11.374364867106573"><ele>413.0</ele><time>2026-05-02T07:53:29.787Z</time></trkpt><trkpt lat="44.28539911225467" lon="11.374329195386878"><ele>414.0</ele><time>2026-05-02T07:53:31.787Z</time></trkpt><trkpt lat="44.28532792700109" lon="11.37431813989062"><ele>415.0</ele><time>2026-05-02T07:53:33.787Z</time></trkpt><trkpt lat="44.28525427378484" lon="11.374321566672775"><ele>416.0</ele><time>2026-05-02T07:53:35.787Z</time></trkpt><trkpt lat="44.28518550268823" lon="11.374308382916226"><ele>417.0</ele><time>2026-05-02T07:53:37.787Z</time></trkpt><trkpt lat="44.285113090272326" lon="11.374297510884942"><ele>418.0</ele><time>2026-05-02T07:53:39.786Z</time></trkpt><trkpt lat="44.28503635852663" lon="11.374301932520437"><ele>419.0</ele><time>2026-05-02T07:53:41.786Z</time></trkpt><trkpt lat="44.28496257178485" lon="11.374297066822127"><ele>420.0</ele><time>2026-05-02T07:53:43.786Z</time></trkpt><trkpt lat="44.284864622303765" lon="11.374285051408418"><ele>420.0</ele><time>2026-05-02T07:53:46.786Z</time></trkpt><trkpt lat="44.284790634084324" lon="11.37427833848387"><ele>420.0</ele><time>2026-05-02T07:53:48.786Z</time></trkpt><trkpt lat="44.28472013108267" lon="11.374275697433845"><ele>420.0</ele><time>2026-05-02T07:53:50.786Z</time></trkpt><trkpt lat="44.28465563263385" lon="11.37426843792325"><ele>420.0</ele><time>2026-05-02T07:53:52.786Z</time></trkpt><trkpt lat="44.28458194579956" lon="11.374266261316217"><ele>420.0</ele><time>2026-05-02T07:53:54.786Z</time></trkpt><trkpt lat="44.28450636491004" lon="11.37424919164385"><ele>420.0</ele><time>2026-05-02T07:53:56.786Z</time></trkpt><trkpt lat="44.284437070241715" lon="11.37424858581361"><ele>420.0</ele><time>2026-05-02T07:53:58.786Z</time></trkpt><trkpt lat="44.28435441133416" lon="11.374240669393785"><ele>420.0</ele><time>2026-05-02T07:54:00.786Z</time></trkpt><trkpt lat="44.28427407888449" lon="11.374236648782079"><ele>420.0</ele><time>2026-05-02T07:54:02.786Z</time></trkpt><trkpt lat="44.284193564733926" lon="11.374225020456409"><ele>420.0</ele><time>2026-05-02T07:54:04.786Z</time></trkpt><trkpt lat="44.28411120973017" lon="11.374208260219506"><ele>420.0</ele><time>2026-05-02T07:54:06.786Z</time></trkpt><trkpt lat="44.28403881762896" lon="11.374199446905102"><ele>420.0</ele><time>2026-05-02T07:54:08.786Z</time></trkpt><trkpt lat="44.28396448983415" lon="11.374176908555441"><ele>420.0</ele><time>2026-05-02T07:54:10.786Z</time></trkpt><trkpt lat="44.28389647458134" lon="11.374170180527916"><ele>420.0</ele><time>2026-05-02T07:54:12.785Z</time></trkpt><trkpt lat="44.28382249163944" lon="11.374166023269092"><ele>420.0</ele><time>2026-05-02T07:54:14.785Z</time></trkpt><trkpt lat="44.283747766649654" lon="11.374165880699897"><ele>420.0</ele><time>2026-05-02T07:54:16.785Z</time></trkpt><trkpt lat="44.283673498301916" lon="11.374165187820632"><ele>420.0</ele><time>2026-05-02T07:54:18.785Z</time></trkpt><trkpt lat="44.283601938877524" lon="11.374157809823695"><ele>420.0</ele><time>2026-05-02T07:54:20.785Z</time></trkpt><trkpt lat="44.283529451197914" lon="11.37414946789757"><ele>420.0</ele><time>2026-05-02T07:54:22.785Z</time></trkpt><trkpt lat="44.283462167308585" lon="11.37414998714015"><ele>420.0</ele><time>2026-05-02T07:54:24.785Z</time></trkpt><trkpt lat="44.283388583348035" lon="11.374130579446133"><ele>420.0</ele><time>2026-05-02T07:54:26.785Z</time></trkpt><trkpt lat="44.28331783829333" lon="11.374118443310318"><ele>420.0</ele><time>2026-05-02T07:54:28.785Z</time></trkpt><trkpt lat="44.28324562373647" lon="11.374119683637213"><ele>420.0</ele><time>2026-05-02T07:54:30.785Z</time></trkpt><trkpt lat="44.28317898061565" lon="11.374108467070347"><ele>420.0</ele><time>2026-05-02T07:54:32.785Z</time></trkpt><trkpt lat="44.2831110891174" lon="11.374093035237252"><ele>420.0</ele><time>2026-05-02T07:54:34.785Z</time></trkpt><trkpt lat="44.28302046592323" lon="11.37407888412663"><ele>420.0</ele><time>2026-05-02T07:54:37.785Z</time></trkpt><trkpt lat="44.28295287438071" lon="11.374070839038863"><ele>420.0</ele><time>2026-05-02T07:54:39.785Z</time></trkpt><trkpt lat="44.28285789967276" lon="11.37405799754507"><ele>421.0</ele><time>2026-05-02T07:54:42.785Z</time></trkpt><trkpt lat="44.282790805991425" lon="11.374057571701055"><ele>422.0</ele><time>2026-05-02T07:54:44.784Z</time></trkpt><trkpt lat="44.28270042724478" lon="11.37404607793833"><ele>423.0</ele><time>2026-05-02T07:54:47.787Z</time></trkpt><trkpt lat="44.28260867191911" lon="11.374043543600196"><ele>424.0</ele><time>2026-05-02T07:54:50.787Z</time></trkpt><trkpt lat="44.282515456394066" lon="11.3740328012933"><ele>425.0</ele><time>2026-05-02T07:54:53.786Z</time></trkpt><trkpt lat="44.2824499042021" lon="11.374024329907593"><ele>426.0</ele><time>2026-05-02T07:54:55.786Z</time></trkpt><trkpt lat="44.28235987099942" lon="11.374017290985886"><ele>426.0</ele><time>2026-05-02T07:54:58.786Z</time></trkpt><trkpt lat="44.28227552933339" lon="11.374002437308253"><ele>426.0</ele><time>2026-05-02T07:55:01.786Z</time></trkpt><trkpt lat="44.28218663973725" lon="11.373993476027955"><ele>426.0</ele><time>2026-05-02T07:55:04.786Z</time></trkpt><trkpt lat="44.28209706599669" lon="11.373991406228994"><ele>426.0</ele><time>2026-05-02T07:55:07.786Z</time></trkpt><trkpt lat="44.28203035616371" lon="11.3739729993697"><ele>426.0</ele><time>2026-05-02T07:55:09.786Z</time></trkpt><trkpt lat="44.281961802416234" lon="11.373975776828761"><ele>426.0</ele><time>2026-05-02T07:55:11.786Z</time></trkpt><trkpt lat="44.2818945404686" lon="11.373989555850525"><ele>426.1666666666667</ele><time>2026-05-02T07:55:13.786Z</time></trkpt><trkpt lat="44.281819194859025" lon="11.373999782801022"><ele>426.33333333333337</ele><time>2026-05-02T07:55:15.786Z</time></trkpt><trkpt lat="44.28174618328171" lon="11.37401242785007"><ele>426.5</ele><time>2026-05-02T07:55:17.786Z</time></trkpt><trkpt lat="44.28166083350588" lon="11.374027769559454"><ele>426.6666666666667</ele><time>2026-05-02T07:55:19.786Z</time></trkpt><trkpt lat="44.281572590053834" lon="11.374051112408731"><ele>426.83333333333337</ele><time>2026-05-02T07:55:21.786Z</time></trkpt><trkpt lat="44.28148706961603" lon="11.374078145973346"><ele>427.0</ele><time>2026-05-02T07:55:23.786Z</time></trkpt><trkpt lat="44.28142393589723" lon="11.374094483128331"><ele>425.0</ele><time>2026-05-02T07:55:24.786Z</time></trkpt><trkpt lat="44.28131961651255" lon="11.374135312701327"><ele>423.0</ele><time>2026-05-02T07:55:26.785Z</time></trkpt><trkpt lat="44.281205177115" lon="11.374177196174355"><ele>421.0</ele><time>2026-05-02T07:55:28.785Z</time></trkpt><trkpt lat="44.281086041184665" lon="11.374229061640595"><ele>419.0</ele><time>2026-05-02T07:55:30.785Z</time></trkpt><trkpt lat="44.28097101962189" lon="11.374283799544905"><ele>419.0</ele><time>2026-05-02T07:55:32.785Z</time></trkpt><trkpt lat="44.280854072867804" lon="11.374322054809646"><ele>419.0</ele><time>2026-05-02T07:55:34.785Z</time></trkpt><trkpt lat="44.28078832197798" lon="11.374319131131719"><ele>419.0</ele><time>2026-05-02T07:55:35.785Z</time></trkpt><trkpt lat="44.280665812463084" lon="11.374345312451391"><ele>419.0</ele><time>2026-05-02T07:55:37.785Z</time></trkpt><trkpt lat="44.28055008139337" lon="11.374325635766095"><ele>419.0</ele><time>2026-05-02T07:55:39.785Z</time></trkpt><trkpt lat="44.28045552736318" lon="11.374262214780885"><ele>419.66666666666663</ele><time>2026-05-02T07:55:41.785Z</time></trkpt><trkpt lat="44.28037685525213" lon="11.37420957956782"><ele>420.3333333333333</ele><time>2026-05-02T07:55:43.785Z</time></trkpt><trkpt lat="44.28030619730412" lon="11.374154149269168"><ele>421.0</ele><time>2026-05-02T07:55:45.785Z</time></trkpt><trkpt lat="44.280248143787155" lon="11.374086569329837"><ele>421.66666666666663</ele><time>2026-05-02T07:55:47.785Z</time></trkpt><trkpt lat="44.280178824270905" lon="11.374009468513577"><ele>422.3333333333333</ele><time>2026-05-02T07:55:50.785Z</time></trkpt><trkpt lat="44.28013913007247" lon="11.373913150370418"><ele>423.0</ele><time>2026-05-02T07:55:53.785Z</time></trkpt><trkpt lat="44.280112470826765" lon="11.373829123117478"><ele>423.7142857142857</ele><time>2026-05-02T07:55:55.785Z</time></trkpt><trkpt lat="44.28008171375243" lon="11.373734744434005"><ele>424.42857142857144</ele><time>2026-05-02T07:55:58.784Z</time></trkpt><trkpt lat="44.28006107184123" lon="11.373617273469302"><ele>425.14285714285717</ele><time>2026-05-02T07:56:02.784Z</time></trkpt><trkpt lat="44.280031890085084" lon="11.37353748976485"><ele>425.8571428571429</ele><time>2026-05-02T07:56:05.784Z</time></trkpt><trkpt lat="44.28001618590755" lon="11.373451378226243"><ele>426.57142857142856</ele><time>2026-05-02T07:56:08.784Z</time></trkpt><trkpt lat="44.27999732767391" lon="11.373338291496324"><ele>427.28571428571433</ele><time>2026-05-02T07:56:12.784Z</time></trkpt><trkpt lat="44.279988118966806" lon="11.373249557706648"><ele>428.0</ele><time>2026-05-02T07:56:15.784Z</time></trkpt><trkpt lat="44.279968610871734" lon="11.373152699218606"><ele>428.00000000000006</ele><time>2026-05-02T07:56:18.784Z</time></trkpt><trkpt lat="44.2799508668128" lon="11.37305836672835"><ele>428.0</ele><time>2026-05-02T07:56:21.784Z</time></trkpt><trkpt lat="44.27993273044955" lon="11.372965548447064"><ele>428.0</ele><time>2026-05-02T07:56:24.784Z</time></trkpt><trkpt lat="44.27991002167264" lon="11.372879449181058"><ele>428.0</ele><time>2026-05-02T07:56:27.784Z</time></trkpt><trkpt lat="44.27989222301974" lon="11.372791962402323"><ele>428.0</ele><time>2026-05-02T07:56:30.784Z</time></trkpt><trkpt lat="44.27986568057862" lon="11.372700253571413"><ele>428.00000000000006</ele><time>2026-05-02T07:56:34.783Z</time></trkpt><trkpt lat="44.27981951401813" lon="11.372629400948064"><ele>428.0</ele><time>2026-05-02T07:56:37.783Z</time></trkpt><trkpt lat="44.27976179287289" lon="11.372551236773868"><ele>429.3333333333333</ele><time>2026-05-02T07:56:40.783Z</time></trkpt><trkpt lat="44.279717865466935" lon="11.372484960524549"><ele>430.66666666666663</ele><time>2026-05-02T07:56:42.783Z</time></trkpt><trkpt lat="44.27965904311002" lon="11.37240171214771"><ele>432.0</ele><time>2026-05-02T07:56:45.783Z</time></trkpt><trkpt lat="44.279577450361536" lon="11.372323186564198"><ele>433.33333333333337</ele><time>2026-05-02T07:56:48.783Z</time></trkpt><trkpt lat="44.27950656906565" lon="11.372251973855436"><ele>434.6666666666667</ele><time>2026-05-02T07:56:51.783Z</time></trkpt><trkpt lat="44.27944965219631" lon="11.372188311538073"><ele>436.0</ele><time>2026-05-02T07:56:53.785Z</time></trkpt><trkpt lat="44.279390346946165" lon="11.372129525290903"><ele>436.0</ele><time>2026-05-02T07:56:55.785Z</time></trkpt><trkpt lat="44.27933472184246" lon="11.372071512999282"><ele>436.0</ele><time>2026-05-02T07:56:57.785Z</time></trkpt><trkpt lat="44.2792562613708" lon="11.37197566075993"><ele>436.0</ele><time>2026-05-02T07:57:00.784Z</time></trkpt><trkpt lat="44.27922525361484" lon="11.371883390150467"><ele>436.0</ele><time>2026-05-02T07:57:02.785Z</time></trkpt><trkpt lat="44.27920767807253" lon="11.371796850441784"><ele>436.0</ele><time>2026-05-02T07:57:04.785Z</time></trkpt><trkpt lat="44.27918533619198" lon="11.371707084992938"><ele>436.0</ele><time>2026-05-02T07:57:06.784Z</time></trkpt><trkpt lat="44.27915600895933" lon="11.371617777226424"><ele>436.0</ele><time>2026-05-02T07:57:08.784Z</time></trkpt><trkpt lat="44.27913525287528" lon="11.371519093958076"><ele>436.00000000000006</ele><time>2026-05-02T07:57:10.784Z</time></trkpt><trkpt lat="44.279104733650385" lon="11.371408974341023"><ele>436.0</ele><time>2026-05-02T07:57:13.784Z</time></trkpt><trkpt lat="44.2790701853429" lon="11.371275714324073"><ele>436.0</ele><time>2026-05-02T07:57:16.784Z</time></trkpt><trkpt lat="44.27904386338063" lon="11.371194680933653"><ele>436.0</ele><time>2026-05-02T07:57:18.784Z</time></trkpt><trkpt lat="44.279012393617656" lon="11.371080286189915"><ele>436.00000000000006</ele><time>2026-05-02T07:57:21.784Z</time></trkpt><trkpt lat="44.27898866835513" lon="11.370960982669025"><ele>436.0</ele><time>2026-05-02T07:57:24.784Z</time></trkpt><trkpt lat="44.27896396179108" lon="11.370879044440175"><ele>434.83333333333337</ele><time>2026-05-02T07:57:26.783Z</time></trkpt><trkpt lat="44.27893516725465" lon="11.370760849846404"><ele>433.6666666666667</ele><time>2026-05-02T07:57:29.783Z</time></trkpt><trkpt lat="44.278906541016525" lon="11.370651696213221"><ele>432.5</ele><time>2026-05-02T07:57:32.783Z</time></trkpt><trkpt lat="44.27887883225336" lon="11.370536851282093"><ele>431.33333333333337</ele><time>2026-05-02T07:57:35.783Z</time></trkpt><trkpt lat="44.27884883678627" lon="11.370459220205829"><ele>430.1666666666667</ele><time>2026-05-02T07:57:37.783Z</time></trkpt><trkpt lat="44.278814601433986" lon="11.370344951677552"><ele>429.0</ele><time>2026-05-02T07:57:40.783Z</time></trkpt><trkpt lat="44.27878403925715" lon="11.370255876401542"><ele>431.8571428571429</ele><time>2026-05-02T07:57:43.783Z</time></trkpt><trkpt lat="44.27875244676723" lon="11.370173841339675"><ele>434.7142857142857</ele><time>2026-05-02T07:57:46.783Z</time></trkpt><trkpt lat="44.27871857656979" lon="11.37009904934616"><ele>437.57142857142856</ele><time>2026-05-02T07:57:49.783Z</time></trkpt><trkpt lat="44.27867196464384" lon="11.370026299143287"><ele>440.42857142857144</ele><time>2026-05-02T07:57:52.783Z</time></trkpt><trkpt lat="44.278621802756824" lon="11.369939585993357"><ele>443.2857142857142</ele><time>2026-05-02T07:57:56.783Z</time></trkpt><trkpt lat="44.278567588378905" lon="11.369886886282648"><ele>446.1428571428571</ele><time>2026-05-02T07:57:59.783Z</time></trkpt><trkpt lat="44.27850329301014" lon="11.369828393952067"><ele>449.0</ele><time>2026-05-02T07:58:03.782Z</time></trkpt><trkpt lat="44.278436418683434" lon="11.369775543509952"><ele>449.0</ele><time>2026-05-02T07:58:07.782Z</time></trkpt><trkpt lat="44.27838050915499" lon="11.369724884628097"><ele>448.99999999999994</ele><time>2026-05-02T07:58:11.782Z</time></trkpt><trkpt lat="44.27832403114323" lon="11.369680225228107"><ele>449.0</ele><time>2026-05-02T07:58:15.782Z</time></trkpt><trkpt lat="44.278262707013305" lon="11.369643538362453"><ele>449.0</ele><time>2026-05-02T07:58:19.782Z</time></trkpt><trkpt lat="44.278192430011934" lon="11.369606213852006"><ele>448.99999999999994</ele><time>2026-05-02T07:58:23.782Z</time></trkpt><trkpt lat="44.27812889253879" lon="11.369580461105217"><ele>449.0</ele><time>2026-05-02T07:58:26.782Z</time></trkpt><trkpt lat="44.278051304761775" lon="11.369532935558691"><ele>449.0</ele><time>2026-05-02T07:58:30.782Z</time></trkpt><trkpt lat="44.277990018306845" lon="11.369493968418714"><ele>447.71428571428567</ele><time>2026-05-02T07:58:33.781Z</time></trkpt><trkpt lat="44.27791429918653" lon="11.369458202167094"><ele>446.4285714285714</ele><time>2026-05-02T07:58:37.781Z</time></trkpt><trkpt lat="44.27784368613987" lon="11.369426736989757"><ele>445.1428571428571</ele><time>2026-05-02T07:58:41.781Z</time></trkpt><trkpt lat="44.277764491950805" lon="11.369402821407604"><ele>443.85714285714283</ele><time>2026-05-02T07:58:45.781Z</time></trkpt><trkpt lat="44.27769340207336" lon="11.369373720564083"><ele>442.57142857142856</ele><time>2026-05-02T07:58:49.781Z</time></trkpt><trkpt lat="44.277626468895996" lon="11.36933782632645"><ele>441.2857142857142</ele><time>2026-05-02T07:58:53.781Z</time></trkpt><trkpt lat="44.27755819953993" lon="11.369340673290694"><ele>440.0</ele><time>2026-05-02T07:58:57.781Z</time></trkpt><trkpt lat="44.277493403246716" lon="11.369338644900557"><ele>439.99999999999994</ele><time>2026-05-02T07:59:01.783Z</time></trkpt><trkpt lat="44.27741334631189" lon="11.36933994714543"><ele>440.0</ele><time>2026-05-02T07:59:05.783Z</time></trkpt><trkpt lat="44.27734159457972" lon="11.369336226348919"><ele>440.0</ele><time>2026-05-02T07:59:09.782Z</time></trkpt><trkpt lat="44.27726816374628" lon="11.369337091607635"><ele>440.0</ele><time>2026-05-02T07:59:13.782Z</time></trkpt><trkpt lat="44.2771909141018" lon="11.369332337800781"><ele>439.99999999999994</ele><time>2026-05-02T07:59:17.782Z</time></trkpt><trkpt lat="44.277111860475344" lon="11.369326001766133"><ele>440.0</ele><time>2026-05-02T07:59:21.782Z</time></trkpt><trkpt lat="44.27703280381982" lon="11.369315139973029"><ele>441.66666666666663</ele><time>2026-05-02T07:59:25.782Z</time></trkpt><trkpt lat="44.27695412155791" lon="11.369338364626598"><ele>443.3333333333333</ele><time>2026-05-02T07:59:29.782Z</time></trkpt><trkpt lat="44.27687623216924" lon="11.369324492548683"><ele>445.0</ele><time>2026-05-02T07:59:33.782Z</time></trkpt><trkpt lat="44.27679842036304" lon="11.369311350896131"><ele>446.66666666666663</ele><time>2026-05-02T07:59:37.782Z</time></trkpt><trkpt lat="44.27671533766019" lon="11.369293325942856"><ele>448.3333333333333</ele><time>2026-05-02T07:59:41.781Z</time></trkpt><trkpt lat="44.27663998455848" lon="11.369281405830684"><ele>450.0</ele><time>2026-05-02T07:59:45.781Z</time></trkpt><trkpt lat="44.27656163256468" lon="11.36926762503634"><ele>450.0</ele><time>2026-05-02T07:59:49.781Z</time></trkpt><trkpt lat="44.27648972135676" lon="11.369283832429323"><ele>450.0</ele><time>2026-05-02T07:59:53.781Z</time></trkpt><trkpt lat="44.2764086200197" lon="11.369301800340613"><ele>450.0</ele><time>2026-05-02T07:59:57.781Z</time></trkpt><trkpt lat="44.27635072930082" lon="11.369340229206102"><ele>450.0</ele><time>2026-05-02T08:00:00.781Z</time></trkpt><trkpt lat="44.27628269696607" lon="11.369382888089717"><ele>450.0</ele><time>2026-05-02T08:00:04.781Z</time></trkpt><trkpt lat="44.27622102387375" lon="11.369445919118542"><ele>450.0</ele><time>2026-05-02T08:00:08.781Z</time></trkpt><trkpt lat="44.27615773838904" lon="11.369525849379304"><ele>449.6666666666667</ele><time>2026-05-02T08:00:12.78Z</time></trkpt><trkpt lat="44.27611534434858" lon="11.369605087924818"><ele>449.33333333333337</ele><time>2026-05-02T08:00:15.78Z</time></trkpt><trkpt lat="44.27608311210172" lon="11.369694387520926"><ele>449.0</ele><time>2026-05-02T08:00:18.78Z</time></trkpt><trkpt lat="44.2760642875249" lon="11.369805699679711"><ele>448.6666666666667</ele><time>2026-05-02T08:00:22.78Z</time></trkpt><trkpt lat="44.2760549236592" lon="11.36992309557938"><ele>448.33333333333337</ele><time>2026-05-02T08:00:26.78Z</time></trkpt><trkpt lat="44.27607225253442" lon="11.370028357077482"><ele>448.0</ele><time>2026-05-02T08:00:30.78Z</time></trkpt><trkpt lat="44.2761327193114" lon="11.370088247277149"><ele>448.00000000000006</ele><time>2026-05-02T08:00:35.78Z</time></trkpt><trkpt lat="44.276213000009385" lon="11.370114672648397"><ele>448.0</ele><time>2026-05-02T08:00:56.779Z</time></trkpt><trkpt lat="44.276279006700896" lon="11.37013323127895"><ele>448.0</ele><time>2026-05-02T08:01:07.781Z</time></trkpt><trkpt lat="44.276364252518974" lon="11.370137238665313"><ele>448.0</ele><time>2026-05-02T08:02:05.78Z</time></trkpt><trkpt lat="44.27643714111394" lon="11.370186568225709"><ele>448.00000000000006</ele><time>2026-05-02T08:02:09.779Z</time></trkpt><trkpt lat="44.27650002884137" lon="11.370234646002878"><ele>448.0</ele><time>2026-05-02T08:02:14.779Z</time></trkpt><trkpt lat="44.27654855817042" lon="11.370296986020014"><ele>450.2857142857143</ele><time>2026-05-02T08:02:18.779Z</time></trkpt><trkpt lat="44.27658156517995" lon="11.370393188969572"><ele>452.57142857142856</ele><time>2026-05-02T08:02:22.779Z</time></trkpt><trkpt lat="44.27661810851992" lon="11.370476386593317"><ele>454.8571428571429</ele><time>2026-05-02T08:02:26.779Z</time></trkpt><trkpt lat="44.2766619896288" lon="11.37056560063104"><ele>457.14285714285717</ele><time>2026-05-02T08:02:31.779Z</time></trkpt><trkpt lat="44.27668748949995" lon="11.370648430356617"><ele>459.42857142857144</ele><time>2026-05-02T08:02:35.779Z</time></trkpt><trkpt lat="44.27673378746145" lon="11.370725506035482"><ele>461.7142857142858</ele><time>2026-05-02T08:02:39.778Z</time></trkpt><trkpt lat="44.27677987705419" lon="11.37080292433636"><ele>464.00000000000006</ele><time>2026-05-02T08:02:44.778Z</time></trkpt><trkpt lat="44.27680072627388" lon="11.370904626110244"><ele>464.00000000000006</ele><time>2026-05-02T08:02:48.778Z</time></trkpt><trkpt lat="44.2768079825817" lon="11.370994624162273"><ele>464.0</ele><time>2026-05-02T08:02:51.778Z</time></trkpt><trkpt lat="44.27681347401172" lon="11.371105122354024"><ele>464.00000000000006</ele><time>2026-05-02T08:02:55.778Z</time></trkpt><trkpt lat="44.27680894452569" lon="11.371208480038666"><ele>464.00000000000006</ele><time>2026-05-02T08:02:59.778Z</time></trkpt><trkpt lat="44.27680585454783" lon="11.371311327680692"><ele>464.0</ele><time>2026-05-02T08:03:03.778Z</time></trkpt><trkpt lat="44.27680873153274" lon="11.37142152152831"><ele>464.00000000000006</ele><time>2026-05-02T08:03:08.778Z</time></trkpt><trkpt lat="44.276815207793994" lon="11.371509395201915"><ele>464.00000000000006</ele><time>2026-05-02T08:03:12.779Z</time></trkpt><trkpt lat="44.276807796588585" lon="11.371608582315654"><ele>464.8571428571429</ele><time>2026-05-02T08:03:16.779Z</time></trkpt><trkpt lat="44.276804841224724" lon="11.371704637489689"><ele>465.7142857142857</ele><time>2026-05-02T08:03:20.778Z</time></trkpt><trkpt lat="44.27680320540125" lon="11.37181126653901"><ele>466.57142857142856</ele><time>2026-05-02T08:03:24.779Z</time></trkpt><trkpt lat="44.2768084398814" lon="11.371916767178382"><ele>467.42857142857144</ele><time>2026-05-02T08:03:28.779Z</time></trkpt><trkpt lat="44.276801682339084" lon="11.372030055666796"><ele>468.2857142857142</ele><time>2026-05-02T08:03:32.778Z</time></trkpt><trkpt lat="44.276795475126974" lon="11.372130273647063"><ele>469.1428571428571</ele><time>2026-05-02T08:03:36.778Z</time></trkpt><trkpt lat="44.2768001127285" lon="11.372233645962643"><ele>470.0</ele><time>2026-05-02T08:03:40.778Z</time></trkpt><trkpt lat="44.27680043500961" lon="11.372329431562486"><ele>470.4285714285714</ele><time>2026-05-02T08:03:44.778Z</time></trkpt><trkpt lat="44.276797572270844" lon="11.372433800432091"><ele>470.8571428571428</ele><time>2026-05-02T08:03:48.778Z</time></trkpt><trkpt lat="44.27679168172621" lon="11.37253943004859"><ele>471.2857142857143</ele><time>2026-05-02T08:03:52.778Z</time></trkpt><trkpt lat="44.27678805110707" lon="11.372632257213864"><ele>471.71428571428567</ele><time>2026-05-02T08:03:56.778Z</time></trkpt><trkpt lat="44.27679724790365" lon="11.372732066536685"><ele>472.1428571428571</ele><time>2026-05-02T08:04:00.778Z</time></trkpt><trkpt lat="44.27678861704177" lon="11.372834695437694"><ele>472.57142857142856</ele><time>2026-05-02T08:04:04.777Z</time></trkpt><trkpt lat="44.2767884861072" lon="11.37292417570052"><ele>473.0</ele><time>2026-05-02T08:04:08.777Z</time></trkpt><trkpt lat="44.27678853923822" lon="11.373017316860555"><ele>473.8571428571429</ele><time>2026-05-02T08:04:12.777Z</time></trkpt><trkpt lat="44.27679025675133" lon="11.373120173618606"><ele>474.71428571428567</ele><time>2026-05-02T08:04:16.777Z</time></trkpt><trkpt lat="44.27678975092855" lon="11.373220957795892"><ele>475.57142857142856</ele><time>2026-05-02T08:04:20.777Z</time></trkpt><trkpt lat="44.27677676464247" lon="11.373324239014726"><ele>476.42857142857144</ele><time>2026-05-02T08:04:24.777Z</time></trkpt><trkpt lat="44.276770832519986" lon="11.373429097043154"><ele>477.28571428571433</ele><time>2026-05-02T08:04:28.777Z</time></trkpt><trkpt lat="44.27675098985711" lon="11.373525651753988"><ele>478.1428571428571</ele><time>2026-05-02T08:04:32.777Z</time></trkpt><trkpt lat="44.27669259322794" lon="11.373601803925116"><ele>479.0</ele><time>2026-05-02T08:04:36.776Z</time></trkpt><trkpt lat="44.27663961863516" lon="11.37366443733527"><ele>479.0</ele><time>2026-05-02T08:04:40.776Z</time></trkpt><trkpt lat="44.27658597268469" lon="11.373718989532536"><ele>479.0</ele><time>2026-05-02T08:04:44.776Z</time></trkpt><trkpt lat="44.27653355371549" lon="11.373790264200995"><ele>479.0</ele><time>2026-05-02T08:04:49.776Z</time></trkpt><trkpt lat="44.276476023241905" lon="11.37385933498863"><ele>479.0</ele><time>2026-05-02T08:04:54.776Z</time></trkpt><trkpt lat="44.276411988190745" lon="11.373922755519363"><ele>479.0</ele><time>2026-05-02T08:04:59.776Z</time></trkpt><trkpt lat="44.27635099834552" lon="11.373975688378684"><ele>479.0</ele><time>2026-05-02T08:05:03.776Z</time></trkpt><trkpt lat="44.276289238200505" lon="11.374043952132128"><ele>479.0</ele><time>2026-05-02T08:05:08.775Z</time></trkpt><trkpt lat="44.276233897765216" lon="11.374110643017048"><ele>480.2857142857143</ele><time>2026-05-02T08:05:13.775Z</time></trkpt><trkpt lat="44.27618016845048" lon="11.374166261279091"><ele>481.57142857142856</ele><time>2026-05-02T08:05:17.777Z</time></trkpt><trkpt lat="44.27611745587155" lon="11.374207562881088"><ele>482.85714285714283</ele><time>2026-05-02T08:05:21.776Z</time></trkpt><trkpt lat="44.276065819280156" lon="11.374276252417046"><ele>484.1428571428571</ele><time>2026-05-02T08:05:26.777Z</time></trkpt><trkpt lat="44.276004526101495" lon="11.374335793156998"><ele>485.42857142857144</ele><time>2026-05-02T08:05:31.777Z</time></trkpt><trkpt lat="44.27595011477591" lon="11.374391132258102"><ele>486.71428571428567</ele><time>2026-05-02T08:05:35.777Z</time></trkpt><trkpt lat="44.27589579886564" lon="11.37444775214327"><ele>487.99999999999994</ele><time>2026-05-02T08:05:40.777Z</time></trkpt><trkpt lat="44.275860465483746" lon="11.374526148169204"><ele>487.99999999999994</ele><time>2026-05-02T08:05:44.777Z</time></trkpt><trkpt lat="44.27583839952772" lon="11.374628580875845"><ele>488.0</ele><time>2026-05-02T08:05:49.777Z</time></trkpt><trkpt lat="44.27580204286702" lon="11.374709511370868"><ele>488.0</ele><time>2026-05-02T08:05:54.777Z</time></trkpt><trkpt lat="44.275854174883705" lon="11.374614780602057"><ele>488.0</ele><time>2026-05-02T08:09:03.772Z</time></trkpt><trkpt lat="44.275887007740806" lon="11.374518386170978"><ele>487.99999999999994</ele><time>2026-05-02T08:09:08.772Z</time></trkpt><trkpt lat="44.27590169904421" lon="11.374428768788379"><ele>488.0</ele><time>2026-05-02T08:09:14.772Z</time></trkpt><trkpt lat="44.275878895131555" lon="11.374325128745728"><ele>487.99999999999994</ele><time>2026-05-02T08:09:19.772Z</time></trkpt><trkpt lat="44.27581170289785" lon="11.374281622666922"><ele>488.0</ele><time>2026-05-02T08:09:24.772Z</time></trkpt><trkpt lat="44.275735057251644" lon="11.374275365479276"><ele>488.0</ele><time>2026-05-02T08:09:28.774Z</time></trkpt><trkpt lat="44.27566055832925" lon="11.374288408770958"><ele>488.0</ele><time>2026-05-02T08:09:33.773Z</time></trkpt><trkpt lat="44.27561919530543" lon="11.374388479499933"><ele>487.99999999999994</ele><time>2026-05-02T08:09:37.773Z</time></trkpt><trkpt lat="44.27559902892301" lon="11.374492206202243"><ele>488.0</ele><time>2026-05-02T08:09:41.773Z</time></trkpt><trkpt lat="44.27558149945184" lon="11.374584846322321"><ele>490.71428571428567</ele><time>2026-05-02T08:09:45.773Z</time></trkpt><trkpt lat="44.27557399530026" lon="11.374677232270507"><ele>493.42857142857144</ele><time>2026-05-02T08:09:49.773Z</time></trkpt><trkpt lat="44.27558379205601" lon="11.374765796789328"><ele>496.1428571428571</ele><time>2026-05-02T08:09:53.773Z</time></trkpt><trkpt lat="44.27557592286821" lon="11.374866598976531"><ele>498.85714285714283</ele><time>2026-05-02T08:09:58.773Z</time></trkpt><trkpt lat="44.275561039013354" lon="11.374980266499119"><ele>501.57142857142856</ele><time>2026-05-02T08:10:02.773Z</time></trkpt><trkpt lat="44.27555121638337" lon="11.375089865755882"><ele>504.2857142857143</ele><time>2026-05-02T08:10:06.772Z</time></trkpt><trkpt lat="44.27554542776821" lon="11.375204836697627"><ele>507.0</ele><time>2026-05-02T08:10:10.772Z</time></trkpt><trkpt lat="44.27552989582645" lon="11.37529417226553"><ele>507.6666666666667</ele><time>2026-05-02T08:10:14.772Z</time></trkpt><trkpt lat="44.27550801012237" lon="11.375395194524295"><ele>508.33333333333337</ele><time>2026-05-02T08:10:18.772Z</time></trkpt><trkpt lat="44.27553930110392" lon="11.37547985576282"><ele>509.0</ele><time>2026-05-02T08:10:41.771Z</time></trkpt><trkpt lat="44.27560675641362" lon="11.375551193084984"><ele>509.6666666666667</ele><time>2026-05-02T08:11:20.77Z</time></trkpt><trkpt lat="44.27570742934787" lon="11.375574561289964"><ele>510.33333333333337</ele><time>2026-05-02T08:11:22.774Z</time></trkpt><trkpt lat="44.275770956842806" lon="11.375552782651672"><ele>511.0</ele><time>2026-05-02T08:11:23.776Z</time></trkpt><trkpt lat="44.27587633591503" lon="11.375540157349953"><ele>506.50000000000006</ele><time>2026-05-02T08:11:25.78Z</time></trkpt><trkpt lat="44.27594417525566" lon="11.375565892980076"><ele>502.0</ele><time>2026-05-02T08:11:28.785Z</time></trkpt><trkpt lat="44.276010616371025" lon="11.37566452222306"><ele>497.5</ele><time>2026-05-02T08:11:31.789Z</time></trkpt><trkpt lat="44.276065680318766" lon="11.375771373450641"><ele>493.0</ele><time>2026-05-02T08:11:33.791Z</time></trkpt><trkpt lat="44.27612955957179" lon="11.37586224907348"><ele>488.50000000000006</ele><time>2026-05-02T08:11:35.795Z</time></trkpt><trkpt lat="44.27621391220744" lon="11.375869752615994"><ele>484.0</ele><time>2026-05-02T08:11:37.797Z</time></trkpt><trkpt lat="44.27628076915362" lon="11.375842808836788"><ele>484.00000000000006</ele><time>2026-05-02T08:11:39.799Z</time></trkpt><trkpt lat="44.27636353404401" lon="11.375831813992697"><ele>484.0</ele><time>2026-05-02T08:11:41.799Z</time></trkpt><trkpt lat="44.27644910313153" lon="11.37580853035025"><ele>484.0</ele><time>2026-05-02T08:11:44.802Z</time></trkpt><trkpt lat="44.276517256767065" lon="11.375797047825662"><ele>484.0</ele><time>2026-05-02T08:11:46.803Z</time></trkpt><trkpt lat="44.276590304864584" lon="11.375788840068699"><ele>484.00000000000006</ele><time>2026-05-02T08:11:49.803Z</time></trkpt><trkpt lat="44.2766541240068" lon="11.375822519820614"><ele>484.0</ele><time>2026-05-02T08:11:51.804Z</time></trkpt><trkpt lat="44.276739589926365" lon="11.375786814583261"><ele>481.79999999999995</ele><time>2026-05-02T08:11:53.805Z</time></trkpt><trkpt lat="44.276796908943325" lon="11.375706631104686"><ele>479.59999999999997</ele><time>2026-05-02T08:12:23.808Z</time></trkpt><trkpt lat="44.27687746600209" lon="11.375691143113016"><ele>477.4</ele><time>2026-05-02T08:12:27.808Z</time></trkpt><trkpt lat="44.276948894469285" lon="11.375658249008273"><ele>475.2</ele><time>2026-05-02T08:12:30.808Z</time></trkpt><trkpt lat="44.27703683851485" lon="11.375618201771056"><ele>473.0</ele><time>2026-05-02T08:12:34.808Z</time></trkpt><trkpt lat="44.27717790723699" lon="11.375632352425916"><ele>472.99999999999994</ele><time>2026-05-02T08:13:00.808Z</time></trkpt><trkpt lat="44.27723481460828" lon="11.375590411992714"><ele>473.0</ele><time>2026-05-02T08:13:10.808Z</time></trkpt><trkpt lat="44.2772999475832" lon="11.375581614131505"><ele>473.0</ele><time>2026-05-02T08:13:13.807Z</time></trkpt><trkpt lat="44.27747372637725" lon="11.375559285897879"><ele>473.0</ele><time>2026-05-02T08:13:19.807Z</time></trkpt><trkpt lat="44.27753977021937" lon="11.375521771094496"><ele>472.99999999999994</ele><time>2026-05-02T08:13:22.807Z</time></trkpt><trkpt lat="44.27761060747902" lon="11.375505294933122"><ele>473.0</ele><time>2026-05-02T08:13:25.807Z</time></trkpt><trkpt lat="44.277678861084986" lon="11.375457870326104"><ele>473.2</ele><time>2026-05-02T08:13:28.807Z</time></trkpt><trkpt lat="44.277753032628226" lon="11.375385126583192"><ele>473.4</ele><time>2026-05-02T08:13:32.807Z</time></trkpt><trkpt lat="44.27781370390756" lon="11.375335188233823"><ele>473.59999999999997</ele><time>2026-05-02T08:13:35.807Z</time></trkpt><trkpt lat="44.27787176607178" lon="11.37528388836402"><ele>473.79999999999995</ele><time>2026-05-02T08:13:38.807Z</time></trkpt><trkpt lat="44.27806836310993" lon="11.375217572399077"><ele>474.0</ele><time>2026-05-02T08:13:44.81Z</time></trkpt><trkpt lat="44.27815455887574" lon="11.375220262357274"><ele>470.0</ele><time>2026-05-02T08:13:47.81Z</time></trkpt><trkpt lat="44.278246020804026" lon="11.375265394718696"><ele>466.0</ele><time>2026-05-02T08:13:50.809Z</time></trkpt><trkpt lat="44.27833397158495" lon="11.37527254699986"><ele>462.0</ele><time>2026-05-02T08:13:52.809Z</time></trkpt><trkpt lat="44.2784195735384" lon="11.375240686678596"><ele>458.0</ele><time>2026-05-02T08:13:55.809Z</time></trkpt><trkpt lat="44.27850676230199" lon="11.375264806802278"><ele>454.0</ele><time>2026-05-02T08:13:57.809Z</time></trkpt><trkpt lat="44.278587428244016" lon="11.375235697582559"><ele>450.0</ele><time>2026-05-02T08:13:59.808Z</time></trkpt><trkpt lat="44.27877119416308" lon="11.375208114403488"><ele>450.0</ele><time>2026-05-02T08:14:04.808Z</time></trkpt><trkpt lat="44.27884947212065" lon="11.375160145625449"><ele>450.0</ele><time>2026-05-02T08:14:06.808Z</time></trkpt><trkpt lat="44.27888209229297" lon="11.375073593917342"><ele>450.0</ele><time>2026-05-02T08:14:09.808Z</time></trkpt><trkpt lat="44.27892083994315" lon="11.374983320463068"><ele>450.0</ele><time>2026-05-02T08:14:12.808Z</time></trkpt><trkpt lat="44.27895586035507" lon="11.374908634753057"><ele>450.0</ele><time>2026-05-02T08:14:15.808Z</time></trkpt><trkpt lat="44.279042579586815" lon="11.37486625338299"><ele>450.0</ele><time>2026-05-02T08:14:18.808Z</time></trkpt><trkpt lat="44.27910777128238" lon="11.374904072888055"><ele>447.0</ele><time>2026-05-02T08:14:20.808Z</time></trkpt><trkpt lat="44.27919528169353" lon="11.374960347756465"><ele>444.0</ele><time>2026-05-02T08:14:23.808Z</time></trkpt><trkpt lat="44.27925120220107" lon="11.375059788088697"><ele>441.0</ele><time>2026-05-02T08:14:25.808Z</time></trkpt><trkpt lat="44.27930859748609" lon="11.375102039074172"><ele>438.0</ele><time>2026-05-02T08:14:27.808Z</time></trkpt><trkpt lat="44.27937996982029" lon="11.37504227750509"><ele>435.0</ele><time>2026-05-02T08:14:29.808Z</time></trkpt><trkpt lat="44.279475769001245" lon="11.375002570776724"><ele>432.0</ele><time>2026-05-02T08:14:31.808Z</time></trkpt><trkpt lat="44.27953690162" lon="11.374979088768043"><ele>432.0</ele><time>2026-05-02T08:14:32.808Z</time></trkpt><trkpt lat="44.279641648194975" lon="11.374982752686776"><ele>432.00000000000006</ele><time>2026-05-02T08:14:34.808Z</time></trkpt><trkpt lat="44.27975290698166" lon="11.374937674084673"><ele>432.00000000000006</ele><time>2026-05-02T08:14:36.808Z</time></trkpt><trkpt lat="44.279817370748304" lon="11.374923445626754"><ele>432.0</ele><time>2026-05-02T08:14:37.808Z</time></trkpt><trkpt lat="44.279926816934804" lon="11.374903591142624"><ele>432.0</ele><time>2026-05-02T08:14:39.808Z</time></trkpt><trkpt lat="44.28006502914951" lon="11.374930661759736"><ele>430.5</ele><time>2026-05-02T08:14:41.808Z</time></trkpt><trkpt lat="44.28015261474585" lon="11.374895865368623"><ele>429.0</ele><time>2026-05-02T08:14:42.807Z</time></trkpt><trkpt lat="44.280236325965646" lon="11.37486402636678"><ele>427.5</ele><time>2026-05-02T08:14:43.807Z</time></trkpt><trkpt lat="44.28031435692614" lon="11.374819510544821"><ele>426.0</ele><time>2026-05-02T08:14:44.807Z</time></trkpt><trkpt lat="44.280376969742434" lon="11.374774201337665"><ele>424.5</ele><time>2026-05-02T08:14:45.807Z</time></trkpt><trkpt lat="44.28042855081332" lon="11.37470312337806"><ele>423.0</ele><time>2026-05-02T08:14:46.807Z</time></trkpt><trkpt lat="44.28051184024214" lon="11.374578632901452"><ele>423.0</ele><time>2026-05-02T08:14:48.807Z</time></trkpt><trkpt lat="44.280565255899404" lon="11.374464062738408"><ele>423.0</ele><time>2026-05-02T08:14:50.807Z</time></trkpt><trkpt lat="44.28060557768678" lon="11.374369813509462"><ele>423.0</ele><time>2026-05-02T08:14:52.807Z</time></trkpt><trkpt lat="44.28050337100949" lon="11.37426505611813"><ele>423.0</ele><time>2026-05-02T08:14:54.807Z</time></trkpt><trkpt lat="44.280435357527196" lon="11.374222753153346"><ele>423.0</ele><time>2026-05-02T08:14:56.807Z</time></trkpt><trkpt lat="44.28036419966295" lon="11.374193956540454"><ele>423.0</ele><time>2026-05-02T08:14:58.807Z</time></trkpt><trkpt lat="44.280306228097345" lon="11.374145444481442"><ele>423.0</ele><time>2026-05-02T08:15:00.807Z</time></trkpt><trkpt lat="44.28023458459767" lon="11.37407793091212"><ele>423.0</ele><time>2026-05-02T08:15:03.807Z</time></trkpt><trkpt lat="44.28017322646751" lon="11.373985688387432"><ele>423.0</ele><time>2026-05-02T08:15:06.807Z</time></trkpt><trkpt lat="44.280128856109414" lon="11.37390661160297"><ele>423.0</ele><time>2026-05-02T08:15:09.807Z</time></trkpt><trkpt lat="44.28008740679783" lon="11.373798147293712"><ele>423.0</ele><time>2026-05-02T08:15:12.807Z</time></trkpt><trkpt lat="44.280057453242655" lon="11.373692613085211"><ele>423.8333333333333</ele><time>2026-05-02T08:15:15.807Z</time></trkpt><trkpt lat="44.28004020371447" lon="11.373586469059271"><ele>424.66666666666663</ele><time>2026-05-02T08:15:18.807Z</time></trkpt><trkpt lat="44.28002122570427" lon="11.373489055324933"><ele>425.5</ele><time>2026-05-02T08:15:21.807Z</time></trkpt><trkpt lat="44.280002099925056" lon="11.37338861260974"><ele>426.3333333333333</ele><time>2026-05-02T08:15:24.807Z</time></trkpt><trkpt lat="44.27998118273993" lon="11.37329080359042"><ele>427.16666666666663</ele><time>2026-05-02T08:15:27.806Z</time></trkpt><trkpt lat="44.27995969370628" lon="11.373174269450875"><ele>428.0</ele><time>2026-05-02T08:15:30.806Z</time></trkpt><trkpt lat="44.27994015111682" lon="11.37307414442559"><ele>427.66666666666663</ele><time>2026-05-02T08:15:33.806Z</time></trkpt><trkpt lat="44.27992231106354" lon="11.372974089332908"><ele>427.3333333333333</ele><time>2026-05-02T08:15:36.806Z</time></trkpt><trkpt lat="44.279898224541526" lon="11.372875817656896"><ele>427.0</ele><time>2026-05-02T08:15:39.806Z</time></trkpt><trkpt lat="44.279869297853665" lon="11.372769510424583"><ele>426.66666666666663</ele><time>2026-05-02T08:15:42.806Z</time></trkpt><trkpt lat="44.27983060948791" lon="11.372670229904971"><ele>426.3333333333333</ele><time>2026-05-02T08:15:45.806Z</time></trkpt><trkpt lat="44.279769327092666" lon="11.372577126501605"><ele>426.0</ele><time>2026-05-02T08:15:48.809Z</time></trkpt><trkpt lat="44.279726365615694" lon="11.372499883811894"><ele>427.4285714285714</ele><time>2026-05-02T08:15:50.808Z</time></trkpt><trkpt lat="44.2796707466369" lon="11.372437121461815"><ele>428.85714285714283</ele><time>2026-05-02T08:15:52.809Z</time></trkpt><trkpt lat="44.279599564014035" lon="11.372374535315618"><ele>430.2857142857143</ele><time>2026-05-02T08:15:55.808Z</time></trkpt><trkpt lat="44.27954214283296" lon="11.37233775284413"><ele>431.71428571428567</ele><time>2026-05-02T08:15:57.808Z</time></trkpt><trkpt lat="44.27948871174997" lon="11.372271884287454"><ele>433.14285714285717</ele><time>2026-05-02T08:15:59.808Z</time></trkpt><trkpt lat="44.27942516221697" lon="11.372215116795209"><ele>434.57142857142856</ele><time>2026-05-02T08:16:01.808Z</time></trkpt><trkpt lat="44.27936647711894" lon="11.372145914466365"><ele>436.0</ele><time>2026-05-02T08:16:03.808Z</time></trkpt><trkpt lat="44.27931224854725" lon="11.372072923771377"><ele>436.00000000000006</ele><time>2026-05-02T08:16:05.808Z</time></trkpt><trkpt lat="44.27927596685451" lon="11.37199832512528"><ele>436.0</ele><time>2026-05-02T08:16:07.808Z</time></trkpt><trkpt lat="44.279238107622135" lon="11.37189396936866"><ele>436.0</ele><time>2026-05-02T08:16:09.808Z</time></trkpt><trkpt lat="44.279200002915" lon="11.371788711564863"><ele>436.0</ele><time>2026-05-02T08:16:11.808Z</time></trkpt><trkpt lat="44.279165124600084" lon="11.371684804441527"><ele>436.00000000000006</ele><time>2026-05-02T08:16:13.808Z</time></trkpt><trkpt lat="44.279138396937654" lon="11.371589857581267"><ele>436.0</ele><time>2026-05-02T08:16:15.808Z</time></trkpt><trkpt lat="44.279106942514495" lon="11.37148745418887"><ele>436.00000000000006</ele><time>2026-05-02T08:16:17.808Z</time></trkpt><trkpt lat="44.27908632853944" lon="11.37139687475113"><ele>436.0</ele><time>2026-05-02T08:16:19.808Z</time></trkpt><trkpt lat="44.27906052007324" lon="11.371297582692547"><ele>436.0</ele><time>2026-05-02T08:16:21.808Z</time></trkpt><trkpt lat="44.27903905298175" lon="11.371193273941236"><ele>436.0</ele><time>2026-05-02T08:16:23.808Z</time></trkpt><trkpt lat="44.27901074482007" lon="11.371076866239775"><ele>436.00000000000006</ele><time>2026-05-02T08:16:26.808Z</time></trkpt><trkpt lat="44.278980096779435" lon="11.370988188491411"><ele>436.0</ele><time>2026-05-02T08:16:28.808Z</time></trkpt><trkpt lat="44.278948530410126" lon="11.370893046155508"><ele>438.1666666666667</ele><time>2026-05-02T08:16:30.808Z</time></trkpt><trkpt lat="44.278918716792376" lon="11.370777649039265"><ele>440.33333333333337</ele><time>2026-05-02T08:16:33.808Z</time></trkpt><trkpt lat="44.27888523534318" lon="11.370657902566402"><ele>442.5</ele><time>2026-05-02T08:16:36.808Z</time></trkpt><trkpt lat="44.27886509997927" lon="11.370561927621827"><ele>444.66666666666663</ele><time>2026-05-02T08:16:39.807Z</time></trkpt><trkpt lat="44.27882579907195" lon="11.37045065291846"><ele>446.8333333333333</ele><time>2026-05-02T08:16:42.807Z</time></trkpt><trkpt lat="44.27879373099958" lon="11.370353179530575"><ele>449.0</ele><time>2026-05-02T08:16:45.807Z</time></trkpt><trkpt lat="44.27875805229175" lon="11.370256995529802"><ele>448.99999999999994</ele><time>2026-05-02T08:16:48.807Z</time></trkpt><trkpt lat="44.278723123464296" lon="11.370163962793725"><ele>449.0</ele><time>2026-05-02T08:16:51.807Z</time></trkpt><trkpt lat="44.27867498288338" lon="11.37006754719798"><ele>449.0</ele><time>2026-05-02T08:16:55.807Z</time></trkpt><trkpt lat="44.27861445710253" lon="11.369991473221402"><ele>449.0</ele><time>2026-05-02T08:16:59.807Z</time></trkpt><trkpt lat="44.27856701174017" lon="11.369923664474488"><ele>448.99999999999994</ele><time>2026-05-02T08:17:02.807Z</time></trkpt><trkpt lat="44.278512424070605" lon="11.369860335082231"><ele>449.0</ele><time>2026-05-02T08:17:05.807Z</time></trkpt><trkpt lat="44.2784525161468" lon="11.369806746453765"><ele>449.0</ele><time>2026-05-02T08:17:08.807Z</time></trkpt><trkpt lat="44.27839355745751" lon="11.36976581411207"><ele>448.99999999999994</ele><time>2026-05-02T08:17:11.807Z</time></trkpt><trkpt lat="44.27833550374393" lon="11.369730321035238"><ele>449.0</ele><time>2026-05-02T08:17:14.807Z</time></trkpt><trkpt lat="44.27826138336548" lon="11.369692468510205"><ele>449.0</ele><time>2026-05-02T08:17:18.807Z</time></trkpt><trkpt lat="44.278201836156164" lon="11.369654714466984"><ele>448.99999999999994</ele><time>2026-05-02T08:17:21.807Z</time></trkpt><trkpt lat="44.27813264271942" lon="11.3696277978951"><ele>449.0</ele><time>2026-05-02T08:17:24.806Z</time></trkpt><trkpt lat="44.278077455504466" lon="11.369575542068091"><ele>449.0</ele><time>2026-05-02T08:17:27.806Z</time></trkpt><trkpt lat="44.278005930856374" lon="11.369536187455695"><ele>447.49999999999994</ele><time>2026-05-02T08:17:31.806Z</time></trkpt><trkpt lat="44.27793285980694" lon="11.369488244447972"><ele>446.0</ele><time>2026-05-02T08:17:35.806Z</time></trkpt><trkpt lat="44.277855514382985" lon="11.369443922959963"><ele>444.5</ele><time>2026-05-02T08:17:39.806Z</time></trkpt><trkpt lat="44.27778101057269" lon="11.36941284591707"><ele>443.0</ele><time>2026-05-02T08:17:43.806Z</time></trkpt><trkpt lat="44.27770710234092" lon="11.369396816603132"><ele>441.49999999999994</ele><time>2026-05-02T08:17:47.806Z</time></trkpt><trkpt lat="44.277639389231375" lon="11.36936245398393"><ele>440.0</ele><time>2026-05-02T08:17:51.806Z</time></trkpt><trkpt lat="44.27756583198592" lon="11.369354401629533"><ele>439.99999999999994</ele><time>2026-05-02T08:17:55.808Z</time></trkpt><trkpt lat="44.27750074977795" lon="11.369352269268123"><ele>440.0</ele><time>2026-05-02T08:17:59.808Z</time></trkpt><trkpt lat="44.27742951444862" lon="11.36935392906513"><ele>440.0</ele><time>2026-05-02T08:18:03.807Z</time></trkpt><trkpt lat="44.277356243171134" lon="11.369355207242274"><ele>440.0</ele><time>2026-05-02T08:18:07.807Z</time></trkpt><trkpt lat="44.27729173535905" lon="11.369367446518531"><ele>440.0</ele><time>2026-05-02T08:18:10.807Z</time></trkpt><trkpt lat="44.27721634286252" lon="11.36935249675645"><ele>439.99999999999994</ele><time>2026-05-02T08:18:14.807Z</time></trkpt><trkpt lat="44.27714644683353" lon="11.369329566775606"><ele>440.0</ele><time>2026-05-02T08:18:18.807Z</time></trkpt><trkpt lat="44.27706924327226" lon="11.369339790836035"><ele>441.66666666666663</ele><time>2026-05-02T08:18:22.806Z</time></trkpt><trkpt lat="44.27700051341906" lon="11.369357107875903"><ele>443.3333333333333</ele><time>2026-05-02T08:18:26.806Z</time></trkpt><trkpt lat="44.276927288563066" lon="11.36934732753098"><ele>445.0</ele><time>2026-05-02T08:18:30.806Z</time></trkpt><trkpt lat="44.276853762194776" lon="11.369333815241184"><ele>446.66666666666663</ele><time>2026-05-02T08:18:33.806Z</time></trkpt><trkpt lat="44.27676545953645" lon="11.369314257393844"><ele>448.3333333333333</ele><time>2026-05-02T08:18:37.806Z</time></trkpt><trkpt lat="44.27669984811238" lon="11.369302642547401"><ele>450.0</ele><time>2026-05-02T08:18:40.806Z</time></trkpt><trkpt lat="44.27662249902069" lon="11.369294884743894"><ele>450.00000000000006</ele><time>2026-05-02T08:18:44.806Z</time></trkpt><trkpt lat="44.27654821319475" lon="11.369296784481401"><ele>450.0</ele><time>2026-05-02T08:18:48.806Z</time></trkpt><trkpt lat="44.27648401302002" lon="11.369321291904713"><ele>450.00000000000006</ele><time>2026-05-02T08:18:52.806Z</time></trkpt><trkpt lat="44.27640558523921" lon="11.369345015576368"><ele>450.00000000000006</ele><time>2026-05-02T08:18:56.806Z</time></trkpt><trkpt lat="44.27634716391663" lon="11.3693888168422"><ele>450.0</ele><time>2026-05-02T08:18:59.806Z</time></trkpt><trkpt lat="44.27628789397575" lon="11.36942753209839"><ele>450.00000000000006</ele><time>2026-05-02T08:19:02.806Z</time></trkpt><trkpt lat="44.27622718351985" lon="11.369466990700218"><ele>450.00000000000006</ele><time>2026-05-02T08:19:05.805Z</time></trkpt><trkpt lat="44.27616960926389" lon="11.369543720781984"><ele>449.6666666666667</ele><time>2026-05-02T08:19:09.805Z</time></trkpt><trkpt lat="44.27611771448928" lon="11.369622935128499"><ele>449.33333333333337</ele><time>2026-05-02T08:19:13.805Z</time></trkpt><trkpt lat="44.27608571536189" lon="11.369725610463634"><ele>449.0</ele><time>2026-05-02T08:19:17.805Z</time></trkpt><trkpt lat="44.27606308441521" lon="11.36983255616346"><ele>448.6666666666667</ele><time>2026-05-02T08:19:21.805Z</time></trkpt><trkpt lat="44.2760587566327" lon="11.369924113938078"><ele>448.33333333333337</ele><time>2026-05-02T08:19:24.805Z</time></trkpt><trkpt lat="44.27606220224469" lon="11.370038068339866"><ele>448.0</ele><time>2026-05-02T08:19:28.805Z</time></trkpt><trkpt lat="44.27608931692389" lon="11.370123200025422"><ele>448.00000000000006</ele><time>2026-05-02T08:19:34.805Z</time></trkpt><trkpt lat="44.27618140075128" lon="11.370135939572522"><ele>448.0</ele><time>2026-05-02T08:19:38.805Z</time></trkpt><trkpt lat="44.27625846197119" lon="11.370163271723047"><ele>448.0</ele><time>2026-05-02T08:19:42.805Z</time></trkpt><trkpt lat="44.276327104663395" lon="11.37018639937397"><ele>448.0</ele><time>2026-05-02T08:19:45.805Z</time></trkpt><trkpt lat="44.27639862716278" lon="11.370219770588685"><ele>448.00000000000006</ele><time>2026-05-02T08:19:49.804Z</time></trkpt><trkpt lat="44.27646940556945" lon="11.370269947147536"><ele>448.0</ele><time>2026-05-02T08:19:53.804Z</time></trkpt><trkpt lat="44.276541258437604" lon="11.370312827871036"><ele>450.2857142857143</ele><time>2026-05-02T08:19:57.804Z</time></trkpt><trkpt lat="44.27660233226205" lon="11.370394285893724"><ele>452.57142857142856</ele><time>2026-05-02T08:20:01.806Z</time></trkpt><trkpt lat="44.2766425358159" lon="11.37047733806892"><ele>454.8571428571429</ele><time>2026-05-02T08:20:04.806Z</time></trkpt><trkpt lat="44.2766689636416" lon="11.370561409112467"><ele>457.14285714285717</ele><time>2026-05-02T08:20:07.806Z</time></trkpt><trkpt lat="44.27670862470774" lon="11.370652724953903"><ele>459.42857142857144</ele><time>2026-05-02T08:20:10.807Z</time></trkpt><trkpt lat="44.27675184970877" lon="11.370725811591178"><ele>461.7142857142858</ele><time>2026-05-02T08:20:13.806Z</time></trkpt><trkpt lat="44.276781053179896" lon="11.370818851659278"><ele>464.00000000000006</ele><time>2026-05-02T08:20:16.806Z</time></trkpt><trkpt lat="44.276796843484995" lon="11.370915821336258"><ele>464.00000000000006</ele><time>2026-05-02T08:20:19.806Z</time></trkpt><trkpt lat="44.27680652284756" lon="11.371021132900742"><ele>464.0</ele><time>2026-05-02T08:20:22.806Z</time></trkpt><trkpt lat="44.27680744921831" lon="11.371121243317726"><ele>464.00000000000006</ele><time>2026-05-02T08:20:25.806Z</time></trkpt><trkpt lat="44.27680534471006" lon="11.371212471748386"><ele>464.00000000000006</ele><time>2026-05-02T08:20:28.806Z</time></trkpt><trkpt lat="44.276801020219516" lon="11.371312852407199"><ele>464.0</ele><time>2026-05-02T08:20:31.806Z</time></trkpt><trkpt lat="44.276804725384686" lon="11.371431807967213"><ele>464.00000000000006</ele><time>2026-05-02T08:20:35.806Z</time></trkpt><trkpt lat="44.27680531192583" lon="11.371536263845867"><ele>464.00000000000006</ele><time>2026-05-02T08:20:39.805Z</time></trkpt><trkpt lat="44.27681227061544" lon="11.3716284662835"><ele>464.8571428571429</ele><time>2026-05-02T08:20:42.805Z</time></trkpt><trkpt lat="44.27680985472865" lon="11.371742709478356"><ele>465.7142857142857</ele><time>2026-05-02T08:20:46.805Z</time></trkpt><trkpt lat="44.27681505978119" lon="11.37183807905476"><ele>466.57142857142856</ele><time>2026-05-02T08:20:49.805Z</time></trkpt><trkpt lat="44.27680750752529" lon="11.37192688185009"><ele>467.42857142857144</ele><time>2026-05-02T08:20:52.805Z</time></trkpt><trkpt lat="44.276808921685856" lon="11.372023221710755"><ele>468.2857142857142</ele><time>2026-05-02T08:20:55.805Z</time></trkpt><trkpt lat="44.27680409207661" lon="11.372111063912378"><ele>469.1428571428571</ele><time>2026-05-02T08:20:58.805Z</time></trkpt><trkpt lat="44.27680536755722" lon="11.372205643421967"><ele>470.0</ele><time>2026-05-02T08:21:01.805Z</time></trkpt><trkpt lat="44.27680481571514" lon="11.372313215474026"><ele>470.4285714285714</ele><time>2026-05-02T08:21:05.805Z</time></trkpt><trkpt lat="44.27679360519397" lon="11.372406554644277"><ele>470.8571428571428</ele><time>2026-05-02T08:21:08.805Z</time></trkpt><trkpt lat="44.27679394380751" lon="11.372517149051124"><ele>471.2857142857143</ele><time>2026-05-02T08:21:12.805Z</time></trkpt><trkpt lat="44.2767973106594" lon="11.372606005000103"><ele>471.71428571428567</ele><time>2026-05-02T08:21:16.805Z</time></trkpt><trkpt lat="44.27679817324956" lon="11.37270098117231"><ele>472.1428571428571</ele><time>2026-05-02T08:21:19.805Z</time></trkpt><trkpt lat="44.2767936582857" lon="11.372802141277424"><ele>472.57142857142856</ele><time>2026-05-02T08:21:23.804Z</time></trkpt><trkpt lat="44.27678411167135" lon="11.372907073852906"><ele>473.0</ele><time>2026-05-02T08:21:27.804Z</time></trkpt><trkpt lat="44.27678235394718" lon="11.373012632100497"><ele>473.99999999999994</ele><time>2026-05-02T08:21:31.804Z</time></trkpt><trkpt lat="44.276783505024575" lon="11.373118342737941"><ele>475.0</ele><time>2026-05-02T08:21:35.804Z</time></trkpt><trkpt lat="44.276784120940185" lon="11.373222393071288"><ele>476.0</ele><time>2026-05-02T08:21:39.804Z</time></trkpt><trkpt lat="44.276777043799505" lon="11.37333107199995"><ele>477.0</ele><time>2026-05-02T08:21:43.804Z</time></trkpt><trkpt lat="44.27676497488389" lon="11.37344499895384"><ele>477.99999999999994</ele><time>2026-05-02T08:21:47.804Z</time></trkpt><trkpt lat="44.27672996298243" lon="11.373545125984608"><ele>479.0</ele><time>2026-05-02T08:21:51.804Z</time></trkpt><trkpt lat="44.27667151306024" lon="11.373625250115825"><ele>479.0</ele><time>2026-05-02T08:21:55.804Z</time></trkpt><trkpt lat="44.27661313219657" lon="11.373682266259035"><ele>479.0</ele><time>2026-05-02T08:21:59.804Z</time></trkpt><trkpt lat="44.27656228062049" lon="11.373739327301454"><ele>479.0</ele><time>2026-05-02T08:22:03.804Z</time></trkpt><trkpt lat="44.276513087547045" lon="11.373798524945618"><ele>479.0</ele><time>2026-05-02T08:22:07.806Z</time></trkpt><trkpt lat="44.27645548575958" lon="11.373862802031544"><ele>479.0</ele><time>2026-05-02T08:22:12.806Z</time></trkpt><trkpt lat="44.27640379854139" lon="11.373924232808873"><ele>479.0</ele><time>2026-05-02T08:22:16.805Z</time></trkpt><trkpt lat="44.276353507639456" lon="11.373980909275716"><ele>479.0</ele><time>2026-05-02T08:22:20.806Z</time></trkpt><trkpt lat="44.27629807288553" lon="11.374036947647138"><ele>480.2857142857143</ele><time>2026-05-02T08:22:25.805Z</time></trkpt><trkpt lat="44.27623973270042" lon="11.374101849437595"><ele>481.57142857142856</ele><time>2026-05-02T08:22:30.805Z</time></trkpt><trkpt lat="44.27618355879994" lon="11.374169138099337"><ele>482.85714285714283</ele><time>2026-05-02T08:22:35.805Z</time></trkpt><trkpt lat="44.27611774974952" lon="11.374218104663832"><ele>484.1428571428571</ele><time>2026-05-02T08:22:40.805Z</time></trkpt><trkpt lat="44.27606306945036" lon="11.37428403465612"><ele>485.42857142857144</ele><time>2026-05-02T08:22:45.805Z</time></trkpt><trkpt lat="44.275999905881854" lon="11.37434629567527"><ele>486.71428571428567</ele><time>2026-05-02T08:22:50.805Z</time></trkpt><trkpt lat="44.27593396843312" lon="11.374383628641414"><ele>487.99999999999994</ele><time>2026-05-02T08:22:55.805Z</time></trkpt><trkpt lat="44.2758758824121" lon="11.374335530586015"><ele>487.99999999999994</ele><time>2026-05-02T08:22:59.805Z</time></trkpt><trkpt lat="44.27579978756507" lon="11.374304460083385"><ele>488.0</ele><time>2026-05-02T08:23:04.805Z</time></trkpt><trkpt lat="44.27573312883491" lon="11.374296617809298"><ele>487.99999999999994</ele><time>2026-05-02T08:23:09.804Z</time></trkpt><trkpt lat="44.27566705313049" lon="11.37429543610882"><ele>487.99999999999994</ele><time>2026-05-02T08:23:14.804Z</time></trkpt><trkpt lat="44.275621610339144" lon="11.374374850645921"><ele>488.0</ele><time>2026-05-02T08:23:19.804Z</time></trkpt><trkpt lat="44.27560516487849" lon="11.374473713446443"><ele>487.99999999999994</ele><time>2026-05-02T08:23:24.804Z</time></trkpt><trkpt lat="44.275578882029244" lon="11.374560480565153"><ele>487.99999999999994</ele><time>2026-05-02T08:23:30.804Z</time></trkpt><trkpt lat="44.2755808399254" lon="11.374649259646038"><ele>490.71428571428567</ele><time>2026-05-02T08:23:36.804Z</time></trkpt><trkpt lat="44.27558186140314" lon="11.374752308629272"><ele>493.42857142857144</ele><time>2026-05-02T08:23:40.804Z</time></trkpt><trkpt lat="44.27551576460959" lon="11.374783360230566"><ele>496.1428571428571</ele><time>2026-05-02T08:23:45.804Z</time></trkpt><trkpt lat="44.2754351186067" lon="11.374800063037961"><ele>498.85714285714283</ele><time>2026-05-02T08:23:50.804Z</time></trkpt><trkpt lat="44.275379831784825" lon="11.37474599372188"><ele>501.57142857142856</ele><time>2026-05-02T08:23:56.803Z</time></trkpt><trkpt lat="44.27536658707356" lon="11.374658602437174"><ele>504.2857142857143</ele><time>2026-05-02T08:24:00.803Z</time></trkpt><trkpt lat="44.275364470026624" lon="11.374568621668953"><ele>507.0</ele><time>2026-05-02T08:24:06.803Z</time></trkpt><trkpt lat="44.27534179456165" lon="11.374486214365053"><ele>507.0</ele><time>2026-05-02T08:24:11.805Z</time></trkpt><trkpt lat="44.27534625654228" lon="11.37439418207877"><ele>507.0</ele><time>2026-05-02T08:24:16.805Z</time></trkpt><trkpt lat="44.275346524010935" lon="11.374301147406426"><ele>507.0</ele><time>2026-05-02T08:24:21.804Z</time></trkpt><trkpt lat="44.275333751726166" lon="11.374213988261564"><ele>507.0</ele><time>2026-05-02T08:24:25.804Z</time></trkpt><trkpt lat="44.275318074492034" lon="11.374122993103219"><ele>507.0</ele><time>2026-05-02T08:24:30.804Z</time></trkpt><trkpt lat="44.275295972898114" lon="11.3740266519517"><ele>507.0</ele><time>2026-05-02T08:24:35.804Z</time></trkpt><trkpt lat="44.27527013015712" lon="11.373931169350726"><ele>507.0</ele><time>2026-05-02T08:24:40.804Z</time></trkpt><trkpt lat="44.275206523378934" lon="11.373902846707207"><ele>506.42857142857144</ele><time>2026-05-02T08:24:45.804Z</time></trkpt><trkpt lat="44.27513750812574" lon="11.373854013718539"><ele>505.8571428571429</ele><time>2026-05-02T08:24:50.804Z</time></trkpt><trkpt lat="44.275082971523595" lon="11.373804458772657"><ele>505.28571428571433</ele><time>2026-05-02T08:24:54.804Z</time></trkpt><trkpt lat="44.27503425960027" lon="11.373737376450507"><ele>504.7142857142857</ele><time>2026-05-02T08:24:59.803Z</time></trkpt><trkpt lat="44.27498751664405" lon="11.373663694861946"><ele>504.1428571428572</ele><time>2026-05-02T08:25:04.803Z</time></trkpt><trkpt lat="44.27493262837891" lon="11.373577374832028"><ele>503.5714285714286</ele><time>2026-05-02T08:25:08.803Z</time></trkpt><trkpt lat="44.27488581191431" lon="11.373490745017358"><ele>503.0</ele><time>2026-05-02T08:25:12.803Z</time></trkpt><trkpt lat="44.27483424077254" lon="11.373395743604908"><ele>503.0</ele><time>2026-05-02T08:25:16.803Z</time></trkpt><trkpt lat="44.274792024968605" lon="11.373329469224094"><ele>503.00000000000006</ele><time>2026-05-02T08:25:19.803Z</time></trkpt><trkpt lat="44.274753518270906" lon="11.373251086423837"><ele>503.0</ele><time>2026-05-02T08:25:22.803Z</time></trkpt><trkpt lat="44.27471007056179" lon="11.373164523611091"><ele>503.0</ele><time>2026-05-02T08:25:25.803Z</time></trkpt><trkpt lat="44.27466244233672" lon="11.373087869805543"><ele>503.00000000000006</ele><time>2026-05-02T08:25:29.803Z</time></trkpt><trkpt lat="44.2746192044936" lon="11.373007198913111"><ele>503.0</ele><time>2026-05-02T08:25:32.803Z</time></trkpt><trkpt lat="44.27457481282612" lon="11.372942424926247"><ele>503.0</ele><time>2026-05-02T08:25:34.803Z</time></trkpt><trkpt lat="44.274534789459395" lon="11.372856691359814"><ele>504.99999999999994</ele><time>2026-05-02T08:25:37.803Z</time></trkpt><trkpt lat="44.274518134734784" lon="11.372768279718128"><ele>507.0</ele><time>2026-05-02T08:25:40.802Z</time></trkpt><trkpt lat="44.274495557901766" lon="11.372644584817035"><ele>509.0</ele><time>2026-05-02T08:25:43.802Z</time></trkpt><trkpt lat="44.27447635415819" lon="11.372549019379095"><ele>511.0</ele><time>2026-05-02T08:25:46.802Z</time></trkpt><trkpt lat="44.274457410876714" lon="11.372460881659876"><ele>513.0</ele><time>2026-05-02T08:25:49.802Z</time></trkpt><trkpt lat="44.27441233439477" lon="11.372359193433782"><ele>515.0</ele><time>2026-05-02T08:25:53.802Z</time></trkpt><trkpt lat="44.274401775737566" lon="11.372246109273322"><ele>514.1428571428571</ele><time>2026-05-02T08:25:57.802Z</time></trkpt><trkpt lat="44.27440685828969" lon="11.372150043924954"><ele>513.2857142857142</ele><time>2026-05-02T08:26:00.802Z</time></trkpt><trkpt lat="44.27439597824929" lon="11.372055527887241"><ele>512.4285714285713</ele><time>2026-05-02T08:26:03.802Z</time></trkpt><trkpt lat="44.27434216514588" lon="11.372004131532082"><ele>511.57142857142856</ele><time>2026-05-02T08:26:07.802Z</time></trkpt><trkpt lat="44.274272082524625" lon="11.371981191145686"><ele>510.71428571428567</ele><time>2026-05-02T08:26:11.802Z</time></trkpt><trkpt lat="44.274199069802314" lon="11.371936122258914"><ele>509.8571428571428</ele><time>2026-05-02T08:26:16.804Z</time></trkpt><trkpt lat="44.2741454020237" lon="11.371881502846033"><ele>508.99999999999994</ele><time>2026-05-02T08:26:20.803Z</time></trkpt><trkpt lat="44.27409862303858" lon="11.37177657686605"><ele>508.99999999999994</ele><time>2026-05-02T08:26:25.803Z</time></trkpt><trkpt lat="44.27405835711955" lon="11.371676892576481"><ele>509.0</ele><time>2026-05-02T08:26:28.804Z</time></trkpt><trkpt lat="44.274023129788944" lon="11.371599350700304"><ele>508.99999999999994</ele><time>2026-05-02T08:26:32.803Z</time></trkpt><trkpt lat="44.273987385033685" lon="11.371492617822328"><ele>508.99999999999994</ele><time>2026-05-02T08:26:36.803Z</time></trkpt><trkpt lat="44.27395664848056" lon="11.371396394662009"><ele>509.0</ele><time>2026-05-02T08:26:41.803Z</time></trkpt><trkpt lat="44.27392418417186" lon="11.371317295428307"><ele>508.99999999999994</ele><time>2026-05-02T08:26:45.803Z</time></trkpt><trkpt lat="44.2738964784767" lon="11.371234951349694"><ele>508.99999999999994</ele><time>2026-05-02T08:26:49.803Z</time></trkpt><trkpt lat="44.27385712333" lon="11.37114964481416"><ele>510.1428571428571</ele><time>2026-05-02T08:26:55.803Z</time></trkpt><trkpt lat="44.273809942781334" lon="11.371075477050628"><ele>511.2857142857143</ele><time>2026-05-02T08:27:00.803Z</time></trkpt><trkpt lat="44.273745051665955" lon="11.371063466464287"><ele>512.4285714285714</ele><time>2026-05-02T08:27:06.803Z</time></trkpt><trkpt lat="44.273726341468276" lon="11.371154041163761"><ele>513.5714285714286</ele><time>2026-05-02T08:27:13.803Z</time></trkpt><trkpt lat="44.27365488563428" lon="11.37119218303661"><ele>514.7142857142858</ele><time>2026-05-02T08:27:18.802Z</time></trkpt><trkpt lat="44.27361654526743" lon="11.37126570797217"><ele>515.8571428571429</ele><time>2026-05-02T08:27:23.802Z</time></trkpt><trkpt lat="44.2735487339435" lon="11.371297031097493"><ele>517.0</ele><time>2026-05-02T08:27:27.802Z</time></trkpt><trkpt lat="44.273474372153224" lon="11.37128119495972"><ele>517.0</ele><time>2026-05-02T08:27:32.802Z</time></trkpt><trkpt lat="44.27339442693385" lon="11.37125874449687"><ele>517.0</ele><time>2026-05-02T08:27:37.802Z</time></trkpt><trkpt lat="44.27332718838267" lon="11.371238965824395"><ele>517.0</ele><time>2026-05-02T08:27:42.802Z</time></trkpt><trkpt lat="44.27327620643237" lon="11.371177605158884"><ele>517.0</ele><time>2026-05-02T08:27:47.802Z</time></trkpt><trkpt lat="44.27321351583841" lon="11.37111750337102"><ele>517.0</ele><time>2026-05-02T08:27:52.802Z</time></trkpt><trkpt lat="44.273151377820945" lon="11.371078055412966"><ele>517.0</ele><time>2026-05-02T08:27:57.802Z</time></trkpt><trkpt lat="44.27308497107954" lon="11.371078977209425"><ele>517.0</ele><time>2026-05-02T08:28:02.802Z</time></trkpt><trkpt lat="44.273049684556106" lon="11.371155006473765"><ele>518.3333333333334</ele><time>2026-05-02T08:28:12.801Z</time></trkpt><trkpt lat="44.27299071724919" lon="11.371194562848993"><ele>519.6666666666667</ele><time>2026-05-02T08:28:31.803Z</time></trkpt><trkpt lat="44.272933650778434" lon="11.371232344137766"><ele>521.0</ele><time>2026-05-02T08:28:35.803Z</time></trkpt><trkpt lat="44.27285860069089" lon="11.371222511079743"><ele>522.3333333333334</ele><time>2026-05-02T08:28:39.803Z</time></trkpt><trkpt lat="44.27277756615151" lon="11.371229119214497"><ele>523.6666666666666</ele><time>2026-05-02T08:28:43.803Z</time></trkpt><trkpt lat="44.272696381403684" lon="11.371225087004328"><ele>525.0</ele><time>2026-05-02T08:28:47.803Z</time></trkpt><trkpt lat="44.272613944335475" lon="11.371199254871918"><ele>525.0</ele><time>2026-05-02T08:28:51.803Z</time></trkpt><trkpt lat="44.272548523074384" lon="11.371152462323973"><ele>525.0</ele><time>2026-05-02T08:28:55.803Z</time></trkpt><trkpt lat="44.272482231856635" lon="11.37109665292657"><ele>525.0</ele><time>2026-05-02T08:28:59.803Z</time></trkpt><trkpt lat="44.272422160308075" lon="11.371041292828695"><ele>525.0</ele><time>2026-05-02T08:29:02.803Z</time></trkpt><trkpt lat="44.27236384779809" lon="11.370981969114212"><ele>525.0</ele><time>2026-05-02T08:29:05.803Z</time></trkpt><trkpt lat="44.27229912491892" lon="11.370919933313248"><ele>525.0</ele><time>2026-05-02T08:29:09.803Z</time></trkpt><trkpt lat="44.272240629315185" lon="11.370868492894795"><ele>525.0</ele><time>2026-05-02T08:29:12.803Z</time></trkpt><trkpt lat="44.2721788627992" lon="11.370789102459561"><ele>528.6666666666666</ele><time>2026-05-02T08:29:15.802Z</time></trkpt><trkpt lat="44.272129223459075" lon="11.370697549381706"><ele>532.3333333333334</ele><time>2026-05-02T08:29:18.802Z</time></trkpt><trkpt lat="44.27206238764908" lon="11.370609494139575"><ele>536.0</ele><time>2026-05-02T08:29:22.802Z</time></trkpt><trkpt lat="44.27200572177848" lon="11.370537207325748"><ele>539.6666666666667</ele><time>2026-05-02T08:29:26.802Z</time></trkpt><trkpt lat="44.27197688954135" lon="11.370458101667175"><ele>543.3333333333334</ele><time>2026-05-02T08:29:29.802Z</time></trkpt><trkpt lat="44.27194450589487" lon="11.370370170582545"><ele>547.0</ele><time>2026-05-02T08:29:32.802Z</time></trkpt><trkpt lat="44.271933863276146" lon="11.370276193677931"><ele>547.0</ele><time>2026-05-02T08:29:35.802Z</time></trkpt><trkpt lat="44.27192732195498" lon="11.37016322729098"><ele>547.0</ele><time>2026-05-02T08:29:39.802Z</time></trkpt><trkpt lat="44.27194891656051" lon="11.370079932629869"><ele>547.0</ele><time>2026-05-02T08:29:42.802Z</time></trkpt><trkpt lat="44.27194481255568" lon="11.36998600256504"><ele>547.0</ele><time>2026-05-02T08:29:47.802Z</time></trkpt><trkpt lat="44.27193138468312" lon="11.36989034828238"><ele>547.0</ele><time>2026-05-02T08:29:52.802Z</time></trkpt><trkpt lat="44.27192937890963" lon="11.369798791527215"><ele>547.0</ele><time>2026-05-02T08:29:56.802Z</time></trkpt><trkpt lat="44.2718949172699" lon="11.369721070483738"><ele>547.0</ele><time>2026-05-02T08:30:01.801Z</time></trkpt><trkpt lat="44.271874936592596" lon="11.36962358930265"><ele>545.7142857142857</ele><time>2026-05-02T08:30:06.801Z</time></trkpt><trkpt lat="44.27182288018507" lon="11.36956704451765"><ele>544.4285714285713</ele><time>2026-05-02T08:30:13.801Z</time></trkpt><trkpt lat="44.27175513237534" lon="11.369582291880835"><ele>543.1428571428571</ele><time>2026-05-02T08:30:19.801Z</time></trkpt><trkpt lat="44.271693995791416" lon="11.369624759069907"><ele>541.8571428571429</ele><time>2026-05-02T08:30:26.801Z</time></trkpt><trkpt lat="44.271624827461956" lon="11.369653782711914"><ele>540.5714285714287</ele><time>2026-05-02T08:30:33.802Z</time></trkpt><trkpt lat="44.2715583481714" lon="11.369654669250764"><ele>539.2857142857143</ele><time>2026-05-02T08:30:37.802Z</time></trkpt><trkpt lat="44.27149275333818" lon="11.369669509063758"><ele>538.0</ele><time>2026-05-02T08:30:42.803Z</time></trkpt><trkpt lat="44.27141659303417" lon="11.369665338492338"><ele>542.1428571428571</ele><time>2026-05-02T08:30:47.803Z</time></trkpt><trkpt lat="44.27135340000357" lon="11.369627212961142"><ele>546.2857142857143</ele><time>2026-05-02T08:30:52.802Z</time></trkpt><trkpt lat="44.27132748520298" lon="11.369526888616239"><ele>550.4285714285714</ele><time>2026-05-02T08:30:57.802Z</time></trkpt><trkpt lat="44.271335612425545" lon="11.369422196729607"><ele>554.5714285714286</ele><time>2026-05-02T08:31:03.802Z</time></trkpt><trkpt lat="44.27132228072325" lon="11.369335349246825"><ele>558.7142857142858</ele><time>2026-05-02T08:31:09.802Z</time></trkpt><trkpt lat="44.271332267321654" lon="11.369243025079143"><ele>562.8571428571429</ele><time>2026-05-02T08:31:15.802Z</time></trkpt><trkpt lat="44.27133275098678" lon="11.369152344392713"><ele>567.0</ele><time>2026-05-02T08:31:21.802Z</time></trkpt><trkpt lat="44.271356705029035" lon="11.3690539833388"><ele>567.0</ele><time>2026-05-02T08:31:26.802Z</time></trkpt><trkpt lat="44.27139814455755" lon="11.368974513812276"><ele>567.0</ele><time>2026-05-02T08:31:30.802Z</time></trkpt><trkpt lat="44.27140321326671" lon="11.368886310310536"><ele>567.0</ele><time>2026-05-02T08:31:35.801Z</time></trkpt><trkpt lat="44.27133360467831" lon="11.368879399362951"><ele>567.0</ele><time>2026-05-02T08:31:40.801Z</time></trkpt><trkpt lat="44.27128937456106" lon="11.368806748357551"><ele>567.0</ele><time>2026-05-02T08:31:45.801Z</time></trkpt><trkpt lat="44.271253550465595" lon="11.368732721943534"><ele>567.0</ele><time>2026-05-02T08:31:50.801Z</time></trkpt><trkpt lat="44.271188685575545" lon="11.368658720591924"><ele>567.0</ele><time>2026-05-02T08:31:56.801Z</time></trkpt><trkpt lat="44.271141574655836" lon="11.368580576378525"><ele>565.3333333333334</ele><time>2026-05-02T08:32:01.801Z</time></trkpt><trkpt lat="44.271093153669696" lon="11.368487179408342"><ele>563.6666666666666</ele><time>2026-05-02T08:32:06.801Z</time></trkpt><trkpt lat="44.271047355816236" lon="11.368402967918405"><ele>562.0</ele><time>2026-05-02T08:32:10.801Z</time></trkpt><trkpt lat="44.27100074871382" lon="11.368332578244997"><ele>560.3333333333333</ele><time>2026-05-02T08:32:14.801Z</time></trkpt><trkpt lat="44.27095047179052" lon="11.368248936788786"><ele>558.6666666666666</ele><time>2026-05-02T08:32:18.8Z</time></trkpt><trkpt lat="44.27090040049143" lon="11.368184438297742"><ele>557.0</ele><time>2026-05-02T08:32:22.8Z</time></trkpt><trkpt lat="44.2708421942146" lon="11.368110981565135"><ele>557.0</ele><time>2026-05-02T08:32:27.8Z</time></trkpt><trkpt lat="44.27078490279749" lon="11.368062481264916"><ele>557.0</ele><time>2026-05-02T08:32:32.8Z</time></trkpt><trkpt lat="44.27072382727581" lon="11.368014341598505"><ele>557.0</ele><time>2026-05-02T08:32:36.801Z</time></trkpt><trkpt lat="44.270661645445664" lon="11.367972415697409"><ele>557.0</ele><time>2026-05-02T08:32:41.802Z</time></trkpt><trkpt lat="44.27059293818023" lon="11.367947502505142"><ele>557.0</ele><time>2026-05-02T08:32:47.801Z</time></trkpt><trkpt lat="44.27052360904486" lon="11.367929029662472"><ele>557.0</ele><time>2026-05-02T08:32:52.801Z</time></trkpt><trkpt lat="44.270467152207765" lon="11.367885787599706"><ele>557.0</ele><time>2026-05-02T08:32:58.801Z</time></trkpt><trkpt lat="44.27040203745664" lon="11.367849293694933"><ele>556.0</ele><time>2026-05-02T08:33:04.801Z</time></trkpt><trkpt lat="44.27033362955379" lon="11.367822348316798"><ele>555.0</ele><time>2026-05-02T08:33:09.801Z</time></trkpt><trkpt lat="44.27026905484586" lon="11.367809189068357"><ele>554.0</ele><time>2026-05-02T08:33:14.8Z</time></trkpt><trkpt lat="44.270218977161996" lon="11.367754215913017"><ele>553.0</ele><time>2026-05-02T08:33:19.8Z</time></trkpt><trkpt lat="44.270170423840085" lon="11.367688544277739"><ele>552.0</ele><time>2026-05-02T08:33:24.8Z</time></trkpt><trkpt lat="44.27011703220612" lon="11.367607478412197"><ele>551.0</ele><time>2026-05-02T08:33:30.8Z</time></trkpt><trkpt lat="44.27006119609126" lon="11.36756430679659"><ele>550.0</ele><time>2026-05-02T08:33:35.8Z</time></trkpt><trkpt lat="44.26999515733622" lon="11.36753025749688"><ele>550.0</ele><time>2026-05-02T08:33:40.8Z</time></trkpt><trkpt lat="44.26991626567984" lon="11.367516606101846"><ele>550.0</ele><time>2026-05-02T08:33:49.8Z</time></trkpt><trkpt lat="44.26986513300592" lon="11.367439070460865"><ele>550.0</ele><time>2026-05-02T08:33:54.8Z</time></trkpt><trkpt lat="44.269845252240614" lon="11.36734529842001"><ele>550.0</ele><time>2026-05-02T08:33:59.799Z</time></trkpt><trkpt lat="44.269890368042795" lon="11.367419326269047"><ele>550.0</ele><time>2026-05-02T08:38:25.797Z</time></trkpt><trkpt lat="44.269943602217324" lon="11.367466977218237"><ele>550.0</ele><time>2026-05-02T08:38:28.797Z</time></trkpt><trkpt lat="44.269967328429146" lon="11.367558405189545"><ele>550.0</ele><time>2026-05-02T08:38:32.797Z</time></trkpt><trkpt lat="44.269939033692786" lon="11.367639087169652"><ele>550.0</ele><time>2026-05-02T08:38:34.797Z</time></trkpt><trkpt lat="44.269915926415464" lon="11.36775293689024"><ele>550.0</ele><time>2026-05-02T08:38:36.797Z</time></trkpt><trkpt lat="44.269890590831544" lon="11.367842012183095"><ele>550.0</ele><time>2026-05-02T08:38:38.797Z</time></trkpt><trkpt lat="44.26986752898999" lon="11.367927442679498"><ele>550.0</ele><time>2026-05-02T08:38:40.797Z</time></trkpt><trkpt lat="44.26984970120093" lon="11.368059761522357"><ele>550.0</ele><time>2026-05-02T08:38:43.797Z</time></trkpt><trkpt lat="44.26982586283674" lon="11.368182464498815"><ele>550.0</ele><time>2026-05-02T08:38:45.797Z</time></trkpt><trkpt lat="44.26982197301917" lon="11.36832893045085"><ele>552.0</ele><time>2026-05-02T08:38:47.797Z</time></trkpt><trkpt lat="44.269803373902946" lon="11.36848327378354"><ele>554.0</ele><time>2026-05-02T08:38:49.797Z</time></trkpt><trkpt lat="44.269790595590564" lon="11.368614363087518"><ele>556.0</ele><time>2026-05-02T08:38:51.797Z</time></trkpt><trkpt lat="44.269764229803606" lon="11.368728073329667"><ele>558.0</ele><time>2026-05-02T08:38:53.798Z</time></trkpt><trkpt lat="44.26971067107967" lon="11.368839973090113"><ele>560.0</ele><time>2026-05-02T08:38:55.798Z</time></trkpt><trkpt lat="44.26965223980575" lon="11.368936826891288"><ele>560.0</ele><time>2026-05-02T08:38:57.798Z</time></trkpt><trkpt lat="44.26961645307282" lon="11.369028351400686"><ele>560.0</ele><time>2026-05-02T08:38:59.799Z</time></trkpt><trkpt lat="44.269598257507305" lon="11.36913026398404"><ele>560.0</ele><time>2026-05-02T08:39:01.799Z</time></trkpt><trkpt lat="44.26956762530846" lon="11.369242148797595"><ele>560.0</ele><time>2026-05-02T08:39:03.799Z</time></trkpt><trkpt lat="44.269498353226275" lon="11.369235008967733"><ele>560.0</ele><time>2026-05-02T08:39:05.798Z</time></trkpt><trkpt lat="44.269431880174444" lon="11.369199717311531"><ele>560.0</ele><time>2026-05-02T08:39:06.798Z</time></trkpt><trkpt lat="44.269356313957864" lon="11.369159354765396"><ele>560.0</ele><time>2026-05-02T08:39:07.798Z</time></trkpt><trkpt lat="44.26924297291688" lon="11.369084712041438"><ele>560.0</ele><time>2026-05-02T08:39:08.798Z</time></trkpt><trkpt lat="44.26914342761301" lon="11.369029653656964"><ele>560.0</ele><time>2026-05-02T08:39:09.798Z</time></trkpt><trkpt lat="44.269046379042585" lon="11.368980807436003"><ele>560.0</ele><time>2026-05-02T08:39:10.798Z</time></trkpt><trkpt lat="44.268960696234274" lon="11.368908912879657"><ele>560.0</ele><time>2026-05-02T08:39:11.798Z</time></trkpt><trkpt lat="44.268891322746384" lon="11.368839976039338"><ele>554.0</ele><time>2026-05-02T08:39:12.798Z</time></trkpt><trkpt lat="44.268817596719515" lon="11.368778771109884"><ele>548.0</ele><time>2026-05-02T08:39:13.798Z</time></trkpt><trkpt lat="44.26874531143781" lon="11.368707167354186"><ele>542.0</ele><time>2026-05-02T08:39:14.798Z</time></trkpt><trkpt lat="44.268685915602966" lon="11.36866251624125"><ele>536.0</ele><time>2026-05-02T08:39:15.798Z</time></trkpt><trkpt lat="44.268607819514465" lon="11.368626707456457"><ele>530.0</ele><time>2026-05-02T08:39:17.798Z</time></trkpt><trkpt lat="44.268522455577475" lon="11.36866947793886"><ele>524.0</ele><time>2026-05-02T08:39:19.798Z</time></trkpt><trkpt lat="44.2684704029368" lon="11.368736558555277"><ele>524.0</ele><time>2026-05-02T08:39:21.798Z</time></trkpt><trkpt lat="44.26841802412882" lon="11.368819996177137"><ele>524.0</ele><time>2026-05-02T08:39:23.798Z</time></trkpt><trkpt lat="44.268361539366666" lon="11.368921301220578"><ele>524.0</ele><time>2026-05-02T08:39:25.798Z</time></trkpt><trkpt lat="44.26828631324505" lon="11.36901212144323"><ele>524.0</ele><time>2026-05-02T08:39:27.798Z</time></trkpt><trkpt lat="44.26820835900837" lon="11.369112218406578"><ele>524.0</ele><time>2026-05-02T08:39:29.797Z</time></trkpt><trkpt lat="44.268121587239776" lon="11.369203150607186"><ele>525.1666666666666</ele><time>2026-05-02T08:39:31.797Z</time></trkpt><trkpt lat="44.26805768153678" lon="11.36923406176131"><ele>526.3333333333333</ele><time>2026-05-02T08:39:32.797Z</time></trkpt><trkpt lat="44.26796925684991" lon="11.369283471953679"><ele>527.5</ele><time>2026-05-02T08:39:34.797Z</time></trkpt><trkpt lat="44.26789760765122" lon="11.369350678780865"><ele>528.6666666666666</ele><time>2026-05-02T08:39:36.797Z</time></trkpt><trkpt lat="44.267838052744764" lon="11.369405016893877"><ele>529.8333333333334</ele><time>2026-05-02T08:39:38.797Z</time></trkpt><trkpt lat="44.26776997890082" lon="11.369447913111893"><ele>531.0</ele><time>2026-05-02T08:39:41.797Z</time></trkpt><trkpt lat="44.26770158526977" lon="11.369535483810937"><ele>531.0</ele><time>2026-05-02T08:39:44.797Z</time></trkpt><trkpt lat="44.267652322825086" lon="11.369605332322765"><ele>531.0</ele><time>2026-05-02T08:39:47.797Z</time></trkpt><trkpt lat="44.267607101227675" lon="11.369676900770866"><ele>531.0</ele><time>2026-05-02T08:39:50.797Z</time></trkpt><trkpt lat="44.26757705731957" lon="11.369762652723889"><ele>531.0</ele><time>2026-05-02T08:39:53.797Z</time></trkpt><trkpt lat="44.26753434455792" lon="11.369829699166088"><ele>531.0</ele><time>2026-05-02T08:39:56.797Z</time></trkpt><trkpt lat="44.267479583315904" lon="11.369907108213475"><ele>531.0</ele><time>2026-05-02T08:40:00.797Z</time></trkpt><trkpt lat="44.26743798746798" lon="11.369993139258192"><ele>531.0</ele><time>2026-05-02T08:40:07.797Z</time></trkpt><trkpt lat="44.26750508046259" lon="11.369984103887512"><ele>531.0</ele><time>2026-05-02T08:40:22.796Z</time></trkpt><trkpt lat="44.26754380460782" lon="11.369904360079012"><ele>531.0</ele><time>2026-05-02T08:41:35.797Z</time></trkpt><trkpt lat="44.267554923817656" lon="11.369809107270465"><ele>531.0</ele><time>2026-05-02T08:42:02.797Z</time></trkpt><trkpt lat="44.26762191133936" lon="11.3697464831539"><ele>531.0</ele><time>2026-05-02T08:42:18.796Z</time></trkpt><trkpt lat="44.26767013306997" lon="11.36968865660609"><ele>531.0</ele><time>2026-05-02T08:42:22.796Z</time></trkpt><trkpt lat="44.267727564212514" lon="11.369634532267805"><ele>531.0</ele><time>2026-05-02T08:42:27.796Z</time></trkpt><trkpt lat="44.26778064139048" lon="11.369575403825012"><ele>531.0</ele><time>2026-05-02T08:42:31.796Z</time></trkpt><trkpt lat="44.267850464163025" lon="11.369546287029612"><ele>531.0</ele><time>2026-05-02T08:42:35.796Z</time></trkpt><trkpt lat="44.26790985619765" lon="11.369487190943518"><ele>531.0</ele><time>2026-05-02T08:42:40.796Z</time></trkpt><trkpt lat="44.268146712574016" lon="11.369460394028254"><ele>531.0</ele><time>2026-05-02T08:42:55.795Z</time></trkpt><trkpt lat="44.26821456565342" lon="11.369446577958525"><ele>531.0</ele><time>2026-05-02T08:43:00.795Z</time></trkpt><trkpt lat="44.26827095611178" lon="11.36940401338527"><ele>531.0</ele><time>2026-05-02T08:43:04.797Z</time></trkpt><trkpt lat="44.26833512356741" lon="11.36936392426698"><ele>534.5</ele><time>2026-05-02T08:43:09.796Z</time></trkpt><trkpt lat="44.268383399909794" lon="11.36930096831008"><ele>538.0</ele><time>2026-05-02T08:43:14.797Z</time></trkpt><trkpt lat="44.26842388282722" lon="11.36920758268488"><ele>541.5</ele><time>2026-05-02T08:43:19.797Z</time></trkpt><trkpt lat="44.26849595575896" lon="11.36915765980594"><ele>545.0</ele><time>2026-05-02T08:43:24.851Z</time></trkpt><trkpt lat="44.26854865410056" lon="11.369097062032672"><ele>548.5</ele><time>2026-05-02T08:43:29.851Z</time></trkpt><trkpt lat="44.268603912041435" lon="11.369143295038166"><ele>552.0</ele><time>2026-05-02T08:43:38.851Z</time></trkpt><trkpt lat="44.268723978692414" lon="11.36915451047545"><ele>552.0</ele><time>2026-05-02T08:44:05.851Z</time></trkpt><trkpt lat="44.26877273082009" lon="11.36921676312166"><ele>552.0</ele><time>2026-05-02T08:44:10.851Z</time></trkpt><trkpt lat="44.268835251268314" lon="11.369289888230119"><ele>552.0</ele><time>2026-05-02T08:44:16.851Z</time></trkpt><trkpt lat="44.26888940561944" lon="11.369353662281496"><ele>552.0</ele><time>2026-05-02T08:44:21.851Z</time></trkpt><trkpt lat="44.26894672462281" lon="11.36939487258032"><ele>552.0</ele><time>2026-05-02T08:44:26.851Z</time></trkpt><trkpt lat="44.26900698902885" lon="11.369446567446772"><ele>552.0</ele><time>2026-05-02T08:44:34.85Z</time></trkpt><trkpt lat="44.26906727946197" lon="11.36950844512562"><ele>552.0</ele><time>2026-05-02T08:44:40.85Z</time></trkpt><trkpt lat="44.269115567409436" lon="11.369568259790913"><ele>553.1428571428571</ele><time>2026-05-02T08:44:44.85Z</time></trkpt><trkpt lat="44.26917802994493" lon="11.36960254168785"><ele>554.2857142857143</ele><time>2026-05-02T08:44:48.85Z</time></trkpt><trkpt lat="44.269239019552955" lon="11.369635639323654"><ele>555.4285714285714</ele><time>2026-05-02T08:44:52.85Z</time></trkpt><trkpt lat="44.26930157940242" lon="11.369647321236156"><ele>556.5714285714286</ele><time>2026-05-02T08:44:56.85Z</time></trkpt><trkpt lat="44.26937156977042" lon="11.3696742203897"><ele>557.7142857142858</ele><time>2026-05-02T08:45:01.85Z</time></trkpt><trkpt lat="44.26942405966331" lon="11.369744075883006"><ele>558.8571428571429</ele><time>2026-05-02T08:45:06.85Z</time></trkpt><trkpt lat="44.2695117088064" lon="11.36977658417435"><ele>560.0</ele><time>2026-05-02T08:45:13.852Z</time></trkpt><trkpt lat="44.26957368577966" lon="11.369760095031443"><ele>562.8</ele><time>2026-05-02T08:45:18.852Z</time></trkpt><trkpt lat="44.26965622253051" lon="11.369723914576056"><ele>565.6</ele><time>2026-05-02T08:45:25.852Z</time></trkpt><trkpt lat="44.26974660158773" lon="11.369725331497657"><ele>568.4</ele><time>2026-05-02T08:45:32.852Z</time></trkpt><trkpt lat="44.26981181140047" lon="11.369744686823278"><ele>571.2</ele><time>2026-05-02T08:45:49.852Z</time></trkpt><trkpt lat="44.26991997642205" lon="11.369697442022085"><ele>574.0</ele><time>2026-05-02T08:46:04.852Z</time></trkpt><trkpt lat="44.270021300687816" lon="11.36968756058158"><ele>574.0</ele><time>2026-05-02T08:46:11.851Z</time></trkpt><trkpt lat="44.27011228269538" lon="11.36968669106266"><ele>574.0</ele><time>2026-05-02T08:46:16.851Z</time></trkpt><trkpt lat="44.27015599950215" lon="11.369777460262966"><ele>574.0</ele><time>2026-05-02T08:46:51.851Z</time></trkpt><trkpt lat="44.270148736051745" lon="11.369867142571053"><ele>574.0</ele><time>2026-05-02T08:46:57.851Z</time></trkpt><trkpt lat="44.27013347876077" lon="11.36996510406938"><ele>574.0</ele><time>2026-05-02T08:47:03.851Z</time></trkpt><trkpt lat="44.27012319218348" lon="11.370064515190162"><ele>574.0</ele><time>2026-05-02T08:47:08.851Z</time></trkpt><trkpt lat="44.270136279071195" lon="11.370154679346316"><ele>574.0</ele><time>2026-05-02T08:47:15.851Z</time></trkpt><trkpt lat="44.2701610371243" lon="11.370236431818546"><ele>576.5714285714286</ele><time>2026-05-02T08:47:20.852Z</time></trkpt><trkpt lat="44.27019832896047" lon="11.37031160443728"><ele>579.1428571428571</ele><time>2026-05-02T08:47:25.852Z</time></trkpt><trkpt lat="44.27024457897177" lon="11.370372615460727"><ele>581.7142857142858</ele><time>2026-05-02T08:47:31.852Z</time></trkpt><trkpt lat="44.27029292067539" lon="11.370429813698642"><ele>584.2857142857142</ele><time>2026-05-02T08:47:36.852Z</time></trkpt><trkpt lat="44.270318773209596" lon="11.370510550233648"><ele>586.8571428571429</ele><time>2026-05-02T08:47:41.852Z</time></trkpt><trkpt lat="44.27036528262571" lon="11.370587949579823"><ele>589.4285714285714</ele><time>2026-05-02T08:47:47.852Z</time></trkpt><trkpt lat="44.270400776095876" lon="11.370667286754953"><ele>592.0</ele><time>2026-05-02T08:47:52.852Z</time></trkpt><trkpt lat="44.27043810455015" lon="11.37077164997741"><ele>591.1428571428571</ele><time>2026-05-02T08:47:57.852Z</time></trkpt><trkpt lat="44.27048575277356" lon="11.37084739144573"><ele>590.2857142857142</ele><time>2026-05-02T08:48:02.852Z</time></trkpt><trkpt lat="44.270534006626846" lon="11.370928444097153"><ele>589.4285714285713</ele><time>2026-05-02T08:48:07.852Z</time></trkpt><trkpt lat="44.270578212414264" lon="11.371008176234463"><ele>588.5714285714286</ele><time>2026-05-02T08:48:12.852Z</time></trkpt><trkpt lat="44.27061189144718" lon="11.371082499623835"><ele>587.7142857142857</ele><time>2026-05-02T08:48:16.852Z</time></trkpt><trkpt lat="44.27065512393322" lon="11.371151456624219"><ele>586.8571428571428</ele><time>2026-05-02T08:48:20.852Z</time></trkpt><trkpt lat="44.27069991682734" lon="11.371232225006612"><ele>586.0</ele><time>2026-05-02T08:48:25.852Z</time></trkpt><trkpt lat="44.270738558141126" lon="11.371303932660057"><ele>587.9999999999999</ele><time>2026-05-02T08:48:30.852Z</time></trkpt><trkpt lat="44.27077036645917" lon="11.371384741418568"><ele>590.0</ele><time>2026-05-02T08:48:34.852Z</time></trkpt><trkpt lat="44.27081765235218" lon="11.37145031982168"><ele>592.0</ele><time>2026-05-02T08:48:58.851Z</time></trkpt><trkpt lat="44.27085263931808" lon="11.371526462370634"><ele>594.0</ele><time>2026-05-02T08:49:08.851Z</time></trkpt><trkpt lat="44.270916750769025" lon="11.371576930826615"><ele>596.0</ele><time>2026-05-02T08:49:14.851Z</time></trkpt><trkpt lat="44.27097014756048" lon="11.371632790554685"><ele>597.9999999999999</ele><time>2026-05-02T08:49:19.851Z</time></trkpt><trkpt lat="44.270907246037446" lon="11.3716105561501"><ele>600.0</ele><time>2026-05-02T08:49:51.852Z</time></trkpt><trkpt lat="44.27088934074875" lon="11.371705805354154"><ele>600.0</ele><time>2026-05-02T08:50:15.852Z</time></trkpt><trkpt lat="44.27086390632262" lon="11.371793675648286"><ele>600.0</ele><time>2026-05-02T08:50:25.851Z</time></trkpt><trkpt lat="44.27079627585235" lon="11.371798368147681"><ele>600.0</ele><time>2026-05-02T08:50:35.851Z</time></trkpt><trkpt lat="44.270732439786485" lon="11.371814010377582"><ele>600.0</ele><time>2026-05-02T08:50:50.851Z</time></trkpt><trkpt lat="44.27066624318261" lon="11.371820758494172"><ele>600.0</ele><time>2026-05-02T08:50:57.851Z</time></trkpt></trkseg><trkseg><trkpt lat="44.27156535525162" lon="11.377771120522757"><ele>544.0</ele><time>2026-05-02T09:10:37.854Z</time></trkpt><trkpt lat="44.27164933712999" lon="11.377811472114635"><ele>544.0</ele><time>2026-05-02T09:11:43.862Z</time></trkpt><trkpt lat="44.27172256425477" lon="11.377865400775413"><ele>544.0</ele><time>2026-05-02T09:11:45.862Z</time></trkpt><trkpt lat="44.271801435675364" lon="11.377879057506394"><ele>544.0</ele><time>2026-05-02T09:11:47.862Z</time></trkpt><trkpt lat="44.27187910139244" lon="11.377859333682306"><ele>544.0</ele><time>2026-05-02T09:11:50.861Z</time></trkpt><trkpt lat="44.27196503300431" lon="11.37779495690715"><ele>544.0</ele><time>2026-05-02T09:11:53.861Z</time></trkpt><trkpt lat="44.272047995109325" lon="11.377672352961142"><ele>544.0</ele><time>2026-05-02T09:11:55.861Z</time></trkpt><trkpt lat="44.27209799903375" lon="11.377588288633762"><ele>544.0</ele><time>2026-05-02T09:11:56.861Z</time></trkpt><trkpt lat="44.27214259575936" lon="11.37749033949738"><ele>544.0</ele><time>2026-05-02T09:11:57.861Z</time></trkpt><trkpt lat="44.27219621344855" lon="11.377395972500402"><ele>544.0</ele><time>2026-05-02T09:11:58.861Z</time></trkpt><trkpt lat="44.27225837729254" lon="11.377310625154298"><ele>544.0</ele><time>2026-05-02T09:11:59.861Z</time></trkpt><trkpt lat="44.27233491902449" lon="11.37725469675859"><ele>544.0</ele><time>2026-05-02T09:12:00.861Z</time></trkpt><trkpt lat="44.272397263448624" lon="11.377194710078525"><ele>543.2</ele><time>2026-05-02T09:12:01.861Z</time></trkpt><trkpt lat="44.27250257207977" lon="11.377215862502313"><ele>542.4</ele><time>2026-05-02T09:12:03.861Z</time></trkpt><trkpt lat="44.272594042280254" lon="11.37725893417437"><ele>541.6</ele><time>2026-05-02T09:12:05.861Z</time></trkpt><trkpt lat="44.27269398079474" lon="11.37729131862258"><ele>540.8</ele><time>2026-05-02T09:12:07.861Z</time></trkpt><trkpt lat="44.27279865030845" lon="11.377278758588066"><ele>540.0</ele><time>2026-05-02T09:12:09.861Z</time></trkpt><trkpt lat="44.27288318583233" lon="11.377335026825458"><ele>540.0</ele><time>2026-05-02T09:12:11.861Z</time></trkpt><trkpt lat="44.272952069286674" lon="11.377460926472825"><ele>540.0</ele><time>2026-05-02T09:12:13.861Z</time></trkpt><trkpt lat="44.273062229384536" lon="11.377531066349132"><ele>540.0</ele><time>2026-05-02T09:12:15.861Z</time></trkpt><trkpt lat="44.27323183682409" lon="11.377537906685625"><ele>540.0</ele><time>2026-05-02T09:12:18.861Z</time></trkpt><trkpt lat="44.27331278089491" lon="11.377594236432389"><ele>538.0</ele><time>2026-05-02T09:12:19.861Z</time></trkpt><trkpt lat="44.273386471126656" lon="11.377651900916574"><ele>536.0</ele><time>2026-05-02T09:12:20.861Z</time></trkpt><trkpt lat="44.27346500259333" lon="11.377711087480089"><ele>534.0</ele><time>2026-05-02T09:12:21.861Z</time></trkpt><trkpt lat="44.27352921152984" lon="11.37773680165911"><ele>532.0</ele><time>2026-05-02T09:12:22.861Z</time></trkpt><trkpt lat="44.27364577834124" lon="11.377718347025356"><ele>530.0</ele><time>2026-05-02T09:12:24.861Z</time></trkpt><trkpt lat="44.27376135239276" lon="11.377681733893207"><ele>529.9999999999999</ele><time>2026-05-02T09:12:26.861Z</time></trkpt><trkpt lat="44.27383842514091" lon="11.377688446165536"><ele>530.0</ele><time>2026-05-02T09:12:29.861Z</time></trkpt><trkpt lat="44.27388560752151" lon="11.377771237334539"><ele>530.0</ele><time>2026-05-02T09:12:34.861Z</time></trkpt><trkpt lat="44.273966905328855" lon="11.377802962967657"><ele>530.0</ele><time>2026-05-02T09:13:04.861Z</time></trkpt><trkpt lat="44.27403260444315" lon="11.377821830044688"><ele>530.0</ele><time>2026-05-02T09:13:21.861Z</time></trkpt><trkpt lat="44.27407890183968" lon="11.377902981044134"><ele>529.9999999999999</ele><time>2026-05-02T09:13:24.861Z</time></trkpt><trkpt lat="44.27414208272706" lon="11.377925535814592"><ele>530.0</ele><time>2026-05-02T09:13:29.861Z</time></trkpt><trkpt lat="44.27420324168613" lon="11.377987798656948"><ele>523.1666666666666</ele><time>2026-05-02T09:13:39.861Z</time></trkpt><trkpt lat="44.274253472396055" lon="11.378066777820735"><ele>516.3333333333333</ele><time>2026-05-02T09:13:42.861Z</time></trkpt><trkpt lat="44.27430626117022" lon="11.378157063552495"><ele>509.5</ele><time>2026-05-02T09:13:44.861Z</time></trkpt><trkpt lat="44.27435866219415" lon="11.37824409344012"><ele>502.66666666666663</ele><time>2026-05-02T09:13:45.861Z</time></trkpt><trkpt lat="44.27441253245199" lon="11.378351621534359"><ele>495.8333333333333</ele><time>2026-05-02T09:13:46.861Z</time></trkpt><trkpt lat="44.274454550412074" lon="11.378471252526163"><ele>489.0</ele><time>2026-05-02T09:13:47.861Z</time></trkpt><trkpt lat="44.27448487266201" lon="11.378566864029457"><ele>489.0</ele><time>2026-05-02T09:13:48.861Z</time></trkpt><trkpt lat="44.274538200821915" lon="11.378656386836607"><ele>489.0</ele><time>2026-05-02T09:13:51.861Z</time></trkpt><trkpt lat="44.274612849514305" lon="11.378737862406334"><ele>489.0</ele><time>2026-05-02T09:13:57.861Z</time></trkpt><trkpt lat="44.274667169162726" lon="11.378858727328566"><ele>489.0</ele><time>2026-05-02T09:14:00.861Z</time></trkpt><trkpt lat="44.27466341749859" lon="11.37894758327206"><ele>489.0</ele><time>2026-05-02T09:14:05.861Z</time></trkpt><trkpt lat="44.27467208158842" lon="11.379042519916606"><ele>489.0</ele><time>2026-05-02T09:14:22.861Z</time></trkpt><trkpt lat="44.274673194069294" lon="11.379134951646124"><ele>484.0</ele><time>2026-05-02T09:14:35.861Z</time></trkpt><trkpt lat="44.274721179484565" lon="11.37922356832262"><ele>479.00000000000006</ele><time>2026-05-02T09:15:09.862Z</time></trkpt><trkpt lat="44.27471307098154" lon="11.379322947886253"><ele>474.0</ele><time>2026-05-02T09:15:22.862Z</time></trkpt><trkpt lat="44.27468009447082" lon="11.37940137177716"><ele>469.0</ele><time>2026-05-02T09:15:36.862Z</time></trkpt><trkpt lat="44.274746926127484" lon="11.379480619966666"><ele>464.00000000000006</ele><time>2026-05-02T09:15:42.862Z</time></trkpt><trkpt lat="44.27477174451176" lon="11.379582340796542"><ele>459.0</ele><time>2026-05-02T09:15:45.862Z</time></trkpt><trkpt lat="44.27479632646513" lon="11.37967064953982"><ele>454.0</ele><time>2026-05-02T09:15:47.862Z</time></trkpt><trkpt lat="44.27486838681455" lon="11.379754623483919"><ele>451.83333333333337</ele><time>2026-05-02T09:15:49.862Z</time></trkpt><trkpt lat="44.27493930573027" lon="11.379863369556155"><ele>449.6666666666667</ele><time>2026-05-02T09:15:51.862Z</time></trkpt><trkpt lat="44.2749606188593" lon="11.379968904365443"><ele>447.5</ele><time>2026-05-02T09:15:55.862Z</time></trkpt><trkpt lat="44.27494747954513" lon="11.380102061042976"><ele>445.33333333333337</ele><time>2026-05-02T09:15:58.862Z</time></trkpt><trkpt lat="44.274927825702925" lon="11.38019690341544"><ele>443.1666666666667</ele><time>2026-05-02T09:16:00.862Z</time></trkpt><trkpt lat="44.27489861288953" lon="11.3802952244135"><ele>441.0</ele><time>2026-05-02T09:16:03.862Z</time></trkpt><trkpt lat="44.27486856451553" lon="11.380400941619362"><ele>438.4</ele><time>2026-05-02T09:16:04.862Z</time></trkpt><trkpt lat="44.274811329932156" lon="11.380518893283602"><ele>435.8</ele><time>2026-05-02T09:16:07.861Z</time></trkpt><trkpt lat="44.274777208922536" lon="11.380614195232427"><ele>433.19999999999993</ele><time>2026-05-02T09:16:09.861Z</time></trkpt><trkpt lat="44.27473747187095" lon="11.38070859156617"><ele>430.59999999999997</ele><time>2026-05-02T09:16:33.861Z</time></trkpt><trkpt lat="44.27466667409026" lon="11.38072525403099"><ele>428.0</ele><time>2026-05-02T09:19:29.863Z</time></trkpt><trkpt lat="44.27457435552153" lon="11.380921391453244"><ele>426.28571428571433</ele><time>2026-05-02T09:19:38.915Z</time></trkpt><trkpt lat="44.27461721927183" lon="11.380840527654746"><ele>424.57142857142856</ele><time>2026-05-02T09:20:32.915Z</time></trkpt><trkpt lat="44.274559408672154" lon="11.38089487495658"><ele>422.8571428571429</ele><time>2026-05-02T09:20:56.915Z</time></trkpt><trkpt lat="44.27456123912204" lon="11.380994289756572"><ele>421.14285714285717</ele><time>2026-05-02T09:21:48.917Z</time></trkpt><trkpt lat="44.274543863228736" lon="11.381080496844206"><ele>419.42857142857144</ele><time>2026-05-02T09:21:54.917Z</time></trkpt><trkpt lat="44.27449398204116" lon="11.381153173132322"><ele>417.7142857142857</ele><time>2026-05-02T09:22:08.917Z</time></trkpt><trkpt lat="44.274453299477806" lon="11.381253634156387"><ele>416.0</ele><time>2026-05-02T09:22:12.917Z</time></trkpt><trkpt lat="44.27440527902127" lon="11.381349695055992"><ele>414.8333333333333</ele><time>2026-05-02T09:22:14.917Z</time></trkpt><trkpt lat="44.274340087488625" lon="11.381433744786461"><ele>413.66666666666663</ele><time>2026-05-02T09:22:16.917Z</time></trkpt><trkpt lat="44.27428239995223" lon="11.381488513935736"><ele>412.5</ele><time>2026-05-02T09:22:17.917Z</time></trkpt><trkpt lat="44.274193796115085" lon="11.38155345833848"><ele>411.33333333333337</ele><time>2026-05-02T09:22:19.917Z</time></trkpt><trkpt lat="44.27412373507264" lon="11.381627700897944"><ele>410.1666666666667</ele><time>2026-05-02T09:22:21.917Z</time></trkpt><trkpt lat="44.274089650617306" lon="11.38172600039576"><ele>409.0</ele><time>2026-05-02T09:22:23.917Z</time></trkpt><trkpt lat="44.274049339181985" lon="11.381826591920357"><ele>409.0</ele><time>2026-05-02T09:22:26.917Z</time></trkpt><trkpt lat="44.27399036571575" lon="11.381913274528747"><ele>409.0</ele><time>2026-05-02T09:22:29.917Z</time></trkpt><trkpt lat="44.27395031406297" lon="11.381981943255788"><ele>409.0</ele><time>2026-05-02T09:22:33.917Z</time></trkpt><trkpt lat="44.273900628026745" lon="11.382040589887975"><ele>409.0</ele><time>2026-05-02T09:22:37.917Z</time></trkpt><trkpt lat="44.27393296573609" lon="11.38195995026882"><ele>409.0</ele><time>2026-05-02T09:24:39.917Z</time></trkpt><trkpt lat="44.27397001038266" lon="11.381888421165913"><ele>409.0</ele><time>2026-05-02T09:24:45.917Z</time></trkpt><trkpt lat="44.2740203571458" lon="11.381822067948896"><ele>409.0</ele><time>2026-05-02T09:24:51.917Z</time></trkpt><trkpt lat="44.27401339331118" lon="11.3819184856508"><ele>409.00000000000006</ele><time>2026-05-02T09:24:58.917Z</time></trkpt><trkpt lat="44.273987793339984" lon="11.382032485163041"><ele>409.0</ele><time>2026-05-02T09:25:01.917Z</time></trkpt><trkpt lat="44.27394411893217" lon="11.382096655447294"><ele>409.0</ele><time>2026-05-02T09:25:04.917Z</time></trkpt><trkpt lat="44.27390466278293" lon="11.382184704302203"><ele>409.0</ele><time>2026-05-02T09:25:08.917Z</time></trkpt><trkpt lat="44.27385511956482" lon="11.38225051476206"><ele>409.00000000000006</ele><time>2026-05-02T09:25:16.919Z</time></trkpt><trkpt lat="44.27379008477814" lon="11.382303274901783"><ele>409.0</ele><time>2026-05-02T09:25:19.919Z</time></trkpt><trkpt lat="44.27372247181813" lon="11.382387033699784"><ele>403.2</ele><time>2026-05-02T09:25:23.919Z</time></trkpt><trkpt lat="44.27365670254208" lon="11.382434421638388"><ele>397.4</ele><time>2026-05-02T09:25:25.918Z</time></trkpt><trkpt lat="44.27357480164284" lon="11.382484508605398"><ele>391.6</ele><time>2026-05-02T09:25:27.919Z</time></trkpt><trkpt lat="44.27348777244424" lon="11.38254625962368"><ele>385.8</ele><time>2026-05-02T09:25:29.919Z</time></trkpt><trkpt lat="44.273544144757984" lon="11.382599048134526"><ele>380.0</ele><time>2026-05-02T09:27:01.919Z</time></trkpt><trkpt lat="44.27380316467989" lon="11.382626574551745"><ele>382.0</ele><time>2026-05-02T09:27:18.919Z</time></trkpt><trkpt lat="44.273958133843855" lon="11.382655879795267"><ele>384.0</ele><time>2026-05-02T09:27:24.92Z</time></trkpt><trkpt lat="44.27404309873567" lon="11.382626373555109"><ele>386.0</ele><time>2026-05-02T09:27:26.919Z</time></trkpt><trkpt lat="44.274117781460234" lon="11.382633803000223"><ele>388.0</ele><time>2026-05-02T09:27:29.92Z</time></trkpt><trkpt lat="44.27419277525718" lon="11.382590552873237"><ele>390.0</ele><time>2026-05-02T09:27:32.92Z</time></trkpt><trkpt lat="44.27427038085117" lon="11.382530818634816"><ele>390.0</ele><time>2026-05-02T09:27:34.92Z</time></trkpt><trkpt lat="44.27434742693547" lon="11.382460482754858"><ele>390.0</ele><time>2026-05-02T09:27:36.92Z</time></trkpt><trkpt lat="44.274396495284186" lon="11.38239686714457"><ele>390.0</ele><time>2026-05-02T09:27:38.92Z</time></trkpt><trkpt lat="44.27443928998473" lon="11.38231548334269"><ele>390.0</ele><time>2026-05-02T09:27:40.92Z</time></trkpt><trkpt lat="44.27451997569528" lon="11.382230427981744"><ele>390.0</ele><time>2026-05-02T09:27:42.92Z</time></trkpt><trkpt lat="44.274590858604846" lon="11.382167746544116"><ele>390.0</ele><time>2026-05-02T09:27:44.92Z</time></trkpt><trkpt lat="44.27467678620653" lon="11.3821495799801"><ele>392.5</ele><time>2026-05-02T09:27:46.92Z</time></trkpt><trkpt lat="44.27473064867382" lon="11.38210251986177"><ele>395.0</ele><time>2026-05-02T09:27:48.92Z</time></trkpt><trkpt lat="44.274814856557995" lon="11.382125407882025"><ele>397.5</ele><time>2026-05-02T09:27:51.92Z</time></trkpt><trkpt lat="44.27489475314835" lon="11.38219590198479"><ele>400.0</ele><time>2026-05-02T09:27:53.92Z</time></trkpt><trkpt lat="44.27496068163742" lon="11.382255991440955"><ele>402.5</ele><time>2026-05-02T09:27:56.92Z</time></trkpt><trkpt lat="44.275042539784636" lon="11.382271689725702"><ele>405.0</ele><time>2026-05-02T09:27:58.92Z</time></trkpt><trkpt lat="44.27511641869903" lon="11.38227391695778"><ele>399.5</ele><time>2026-05-02T09:28:00.92Z</time></trkpt><trkpt lat="44.27518295031559" lon="11.38230583509166"><ele>394.0</ele><time>2026-05-02T09:28:02.92Z</time></trkpt><trkpt lat="44.27524798060573" lon="11.382359919165731"><ele>388.5</ele><time>2026-05-02T09:28:04.92Z</time></trkpt><trkpt lat="44.27534435726987" lon="11.3824131740839"><ele>383.0</ele><time>2026-05-02T09:28:06.92Z</time></trkpt><trkpt lat="44.27543823284028" lon="11.382462262615222"><ele>377.5</ele><time>2026-05-02T09:28:08.92Z</time></trkpt><trkpt lat="44.27549982352509" lon="11.382523634837188"><ele>372.0</ele><time>2026-05-02T09:28:10.92Z</time></trkpt><trkpt lat="44.275562535490586" lon="11.382549843510917"><ele>370.42857142857144</ele><time>2026-05-02T09:28:18.92Z</time></trkpt><trkpt lat="44.27561170963501" lon="11.382613628713209"><ele>368.8571428571429</ele><time>2026-05-02T09:33:12.922Z</time></trkpt><trkpt lat="44.27565041327759" lon="11.382683249824359"><ele>367.28571428571433</ele><time>2026-05-02T09:33:31.922Z</time></trkpt><trkpt lat="44.27568208680087" lon="11.38276924712994"><ele>365.7142857142857</ele><time>2026-05-02T09:34:38.925Z</time></trkpt><trkpt lat="44.27574109687628" lon="11.382856117056637"><ele>364.1428571428571</ele><time>2026-05-02T09:34:41.925Z</time></trkpt><trkpt lat="44.275760151567056" lon="11.38294784616584"><ele>362.5714285714286</ele><time>2026-05-02T09:34:46.925Z</time></trkpt><trkpt lat="44.27582032597481" lon="11.383043932458202"><ele>361.0</ele><time>2026-05-02T09:34:49.925Z</time></trkpt><trkpt lat="44.27584460552524" lon="11.38313193549882"><ele>360.8333333333333</ele><time>2026-05-02T09:34:53.925Z</time></trkpt><trkpt lat="44.275798312484234" lon="11.38320090615634"><ele>360.66666666666663</ele><time>2026-05-02T09:34:57.925Z</time></trkpt><trkpt lat="44.27573321023794" lon="11.383240591587569"><ele>360.5</ele><time>2026-05-02T09:34:59.925Z</time></trkpt><trkpt lat="44.275646708408885" lon="11.383280699801082"><ele>360.3333333333333</ele><time>2026-05-02T09:35:03.925Z</time></trkpt><trkpt lat="44.27557923743674" lon="11.383233077727128"><ele>360.1666666666667</ele><time>2026-05-02T09:35:05.925Z</time></trkpt><trkpt lat="44.275518140519885" lon="11.38317586435679"><ele>360.0</ele><time>2026-05-02T09:35:07.925Z</time></trkpt><trkpt lat="44.27543430432318" lon="11.383126848849733"><ele>362.0</ele><time>2026-05-02T09:35:10.925Z</time></trkpt><trkpt lat="44.27537767904662" lon="11.383056023628045"><ele>364.0</ele><time>2026-05-02T09:35:13.925Z</time></trkpt><trkpt lat="44.27530379289286" lon="11.383008858894241"><ele>366.0</ele><time>2026-05-02T09:35:15.925Z</time></trkpt><trkpt lat="44.2752372195909" lon="11.383032600673149"><ele>368.0</ele><time>2026-05-02T09:35:17.925Z</time></trkpt><trkpt lat="44.27518597313423" lon="11.383098036846125"><ele>370.0</ele><time>2026-05-02T09:35:19.925Z</time></trkpt><trkpt lat="44.27513610366176" lon="11.383188770225118"><ele>372.0</ele><time>2026-05-02T09:35:21.925Z</time></trkpt><trkpt lat="44.27513174913732" lon="11.383293213082402"><ele>367.5</ele><time>2026-05-02T09:35:23.925Z</time></trkpt><trkpt lat="44.27512884779418" lon="11.383399234036304"><ele>363.0</ele><time>2026-05-02T09:35:25.925Z</time></trkpt><trkpt lat="44.2750771108735" lon="11.383518792283555"><ele>358.5</ele><time>2026-05-02T09:35:29.925Z</time></trkpt><trkpt lat="44.27504120047935" lon="11.383613110522608"><ele>354.0</ele><time>2026-05-02T09:35:32.925Z</time></trkpt><trkpt lat="44.27499040739541" lon="11.383713841200391"><ele>349.5</ele><time>2026-05-02T09:35:36.926Z</time></trkpt><trkpt lat="44.27492293082943" lon="11.383738901596548"><ele>345.0</ele><time>2026-05-02T09:35:38.929Z</time></trkpt><trkpt lat="44.2748535317837" lon="11.383764558201579"><ele>345.0</ele><time>2026-05-02T09:35:40.933Z</time></trkpt><trkpt lat="44.27478516608477" lon="11.383763969808225"><ele>345.0</ele><time>2026-05-02T09:35:42.935Z</time></trkpt><trkpt lat="44.274715722719904" lon="11.383829174388671"><ele>345.0</ele><time>2026-05-02T09:35:45.939Z</time></trkpt><trkpt lat="44.27466190416665" lon="11.383880796698334"><ele>345.0</ele><time>2026-05-02T09:35:47.942Z</time></trkpt><trkpt lat="44.274632407952566" lon="11.383960985958007"><ele>345.0</ele><time>2026-05-02T09:35:50.945Z</time></trkpt><trkpt lat="44.2745908843506" lon="11.384049544098657"><ele>345.0</ele><time>2026-05-02T09:35:54.948Z</time></trkpt><trkpt lat="44.27456211513593" lon="11.384132626555145"><ele>345.0</ele><time>2026-05-02T09:35:57.949Z</time></trkpt><trkpt lat="44.274483632948595" lon="11.384222852657162"><ele>343.0</ele><time>2026-05-02T09:36:00.951Z</time></trkpt><trkpt lat="44.27440467997904" lon="11.384262700800129"><ele>341.0</ele><time>2026-05-02T09:36:02.951Z</time></trkpt><trkpt lat="44.274348105515784" lon="11.384326757030491"><ele>339.0</ele><time>2026-05-02T09:36:03.952Z</time></trkpt><trkpt lat="44.27427316255295" lon="11.384404858761814"><ele>337.0</ele><time>2026-05-02T09:36:05.953Z</time></trkpt><trkpt lat="44.27419920532317" lon="11.384470320531015"><ele>335.0</ele><time>2026-05-02T09:36:07.953Z</time></trkpt><trkpt lat="44.27412677639111" lon="11.384495510056277"><ele>333.0</ele><time>2026-05-02T09:36:09.954Z</time></trkpt><trkpt lat="44.27406574719988" lon="11.384531419317264"><ele>333.0</ele><time>2026-05-02T09:36:11.954Z</time></trkpt><trkpt lat="44.27396750525046" lon="11.384609868097003"><ele>333.0</ele><time>2026-05-02T09:36:13.954Z</time></trkpt><trkpt lat="44.273879493575286" lon="11.384671247896911"><ele>333.0</ele><time>2026-05-02T09:36:15.955Z</time></trkpt><trkpt lat="44.273801469016796" lon="11.384766541439326"><ele>333.0</ele><time>2026-05-02T09:36:17.955Z</time></trkpt><trkpt lat="44.273721954487854" lon="11.384876875162213"><ele>333.0</ele><time>2026-05-02T09:36:19.955Z</time></trkpt><trkpt lat="44.2736495650054" lon="11.384968871183572"><ele>330.42857142857144</ele><time>2026-05-02T09:36:21.956Z</time></trkpt><trkpt lat="44.273607214586086" lon="11.385039787582048"><ele>327.85714285714283</ele><time>2026-05-02T09:36:24.956Z</time></trkpt><trkpt lat="44.27367140119746" lon="11.385081372988363"><ele>325.2857142857143</ele><time>2026-05-02T09:37:48.959Z</time></trkpt><trkpt lat="44.27368108912124" lon="11.385206188341051"><ele>322.7142857142857</ele><time>2026-05-02T09:37:52.958Z</time></trkpt><trkpt lat="44.273680005223554" lon="11.385297168295041"><ele>320.1428571428571</ele><time>2026-05-02T09:37:54.959Z</time></trkpt><trkpt lat="44.27360808130064" lon="11.385334920615191"><ele>317.57142857142856</ele><time>2026-05-02T09:39:14.96Z</time></trkpt><trkpt lat="44.27355870878493" lon="11.385411785347461"><ele>315.0</ele><time>2026-05-02T09:39:18.96Z</time></trkpt><trkpt lat="44.273504950427146" lon="11.385493306801479"><ele>313.8</ele><time>2026-05-02T09:39:22.96Z</time></trkpt><trkpt lat="44.27343699117682" lon="11.385571453930009"><ele>312.6</ele><time>2026-05-02T09:39:24.96Z</time></trkpt><trkpt lat="44.273331521827544" lon="11.385626975661998"><ele>311.4</ele><time>2026-05-02T09:39:27.96Z</time></trkpt><trkpt lat="44.273222425462926" lon="11.38574086915806"><ele>310.2</ele><time>2026-05-02T09:39:29.96Z</time></trkpt><trkpt lat="44.27314121927737" lon="11.38584642857344"><ele>309.0</ele><time>2026-05-02T09:39:31.96Z</time></trkpt><trkpt lat="44.27309181329576" lon="11.385996164792356"><ele>303.4</ele><time>2026-05-02T09:39:33.96Z</time></trkpt><trkpt lat="44.27307790729959" lon="11.386087110861114"><ele>297.79999999999995</ele><time>2026-05-02T09:39:34.96Z</time></trkpt><trkpt lat="44.27286381055435" lon="11.386186559471101"><ele>292.20000000000005</ele><time>2026-05-02T09:39:35.96Z</time></trkpt><trkpt lat="44.27285877103969" lon="11.38627818104873"><ele>286.6</ele><time>2026-05-02T09:39:36.96Z</time></trkpt><trkpt lat="44.27284429389718" lon="11.386400984690448"><ele>281.0</ele><time>2026-05-02T09:39:38.96Z</time></trkpt><trkpt lat="44.27283146368571" lon="11.386513974395015"><ele>282.0</ele><time>2026-05-02T09:39:40.96Z</time></trkpt><trkpt lat="44.2732998788064" lon="11.387183266289306"><ele>287.6666666666667</ele><time>2026-05-02T09:39:42.96Z</time></trkpt><trkpt lat="44.27328297510173" lon="11.3867076981651"><ele>293.33333333333337</ele><time>2026-05-02T09:39:43.96Z</time></trkpt><trkpt lat="44.27320455375671" lon="11.386691759304332"><ele>299.0</ele><time>2026-05-02T09:39:46.96Z</time></trkpt><trkpt lat="44.27312868018763" lon="11.386665050720625"><ele>295.4</ele><time>2026-05-02T09:39:48.96Z</time></trkpt><trkpt lat="44.273051628429656" lon="11.386657266149287"><ele>291.79999999999995</ele><time>2026-05-02T09:39:49.96Z</time></trkpt><trkpt lat="44.272981757415515" lon="11.386679306390617"><ele>288.20000000000005</ele><time>2026-05-02T09:39:50.96Z</time></trkpt><trkpt lat="44.272882664073705" lon="11.38674917353677"><ele>284.6</ele><time>2026-05-02T09:39:52.96Z</time></trkpt><trkpt lat="44.272876636667604" lon="11.386889011106774"><ele>281.0</ele><time>2026-05-02T09:39:54.961Z</time></trkpt><trkpt lat="44.27296110035267" lon="11.38696697470208"><ele>281.00000000000006</ele><time>2026-05-02T09:39:56.961Z</time></trkpt><trkpt lat="44.273061124830484" lon="11.387002744937536"><ele>281.0</ele><time>2026-05-02T09:39:58.961Z</time></trkpt><trkpt lat="44.273132553612" lon="11.387015571719619"><ele>281.0</ele><time>2026-05-02T09:40:02.962Z</time></trkpt><trkpt lat="44.27319610907708" lon="11.387044573842939"><ele>281.0</ele><time>2026-05-02T09:40:09.961Z</time></trkpt><trkpt lat="44.273209732550185" lon="11.387137777469126"><ele>281.0</ele><time>2026-05-02T09:40:24.961Z</time></trkpt><trkpt lat="44.27327359396897" lon="11.387169978280948"><ele>281.00000000000006</ele><time>2026-05-02T09:40:38.962Z</time></trkpt><trkpt lat="44.27333619792206" lon="11.387189188608467"><ele>281.0</ele><time>2026-05-02T09:40:42.962Z</time></trkpt><trkpt lat="44.273399750305344" lon="11.387225736819893"><ele>281.1666666666667</ele><time>2026-05-02T09:40:47.962Z</time></trkpt><trkpt lat="44.273487930796485" lon="11.387259765706213"><ele>281.33333333333337</ele><time>2026-05-02T09:40:50.962Z</time></trkpt><trkpt lat="44.273551349144896" lon="11.387276961699293"><ele>281.5</ele><time>2026-05-02T09:40:52.962Z</time></trkpt><trkpt lat="44.27363152846635" lon="11.387306226864554"><ele>281.6666666666667</ele><time>2026-05-02T09:40:54.962Z</time></trkpt><trkpt lat="44.273705901944986" lon="11.387351298041684"><ele>281.8333333333333</ele><time>2026-05-02T09:40:56.962Z</time></trkpt><trkpt lat="44.27379474003583" lon="11.38744224434838"><ele>282.0</ele><time>2026-05-02T09:40:58.962Z</time></trkpt><trkpt lat="44.27386940433426" lon="11.38752379983243"><ele>282.0</ele><time>2026-05-02T09:41:00.962Z</time></trkpt><trkpt lat="44.27392377063555" lon="11.38759629645009"><ele>282.0</ele><time>2026-05-02T09:41:02.962Z</time></trkpt><trkpt lat="44.273997413732594" lon="11.387668217064302"><ele>282.0</ele><time>2026-05-02T09:41:04.962Z</time></trkpt><trkpt lat="44.27405823650007" lon="11.387728291695757"><ele>282.0</ele><time>2026-05-02T09:41:06.962Z</time></trkpt><trkpt lat="44.274126127891854" lon="11.387793708371307"><ele>282.0</ele><time>2026-05-02T09:41:08.962Z</time></trkpt><trkpt lat="44.27421756245238" lon="11.38786021002628"><ele>282.0</ele><time>2026-05-02T09:41:10.962Z</time></trkpt><trkpt lat="44.274293061194605" lon="11.387927328572289"><ele>281.0</ele><time>2026-05-02T09:41:12.962Z</time></trkpt><trkpt lat="44.27435044833467" lon="11.388016808954369"><ele>280.0</ele><time>2026-05-02T09:41:14.962Z</time></trkpt><trkpt lat="44.27440330295967" lon="11.388138632123297"><ele>279.0</ele><time>2026-05-02T09:41:16.962Z</time></trkpt><trkpt lat="44.27444532319762" lon="11.388264334895386"><ele>278.0</ele><time>2026-05-02T09:41:18.962Z</time></trkpt><trkpt lat="44.2744744757633" lon="11.38839513380093"><ele>277.0</ele><time>2026-05-02T09:41:20.962Z</time></trkpt><trkpt lat="44.27448522886783" lon="11.38852210034228"><ele>277.0</ele><time>2026-05-02T09:41:22.962Z</time></trkpt><trkpt lat="44.27450587620999" lon="11.38864757983228"><ele>277.0</ele><time>2026-05-02T09:41:24.962Z</time></trkpt><trkpt lat="44.27454803493869" lon="11.38876042552004"><ele>277.0</ele><time>2026-05-02T09:41:26.962Z</time></trkpt><trkpt lat="44.27460403426557" lon="11.388859534197456"><ele>277.0</ele><time>2026-05-02T09:41:28.962Z</time></trkpt><trkpt lat="44.2746669656471" lon="11.388939826881385"><ele>277.0</ele><time>2026-05-02T09:41:30.962Z</time></trkpt><trkpt lat="44.27474058820289" lon="11.388971072328385"><ele>277.0</ele><time>2026-05-02T09:41:32.962Z</time></trkpt><trkpt lat="44.274835343202255" lon="11.388932998999527"><ele>276.2</ele><time>2026-05-02T09:41:34.962Z</time></trkpt><trkpt lat="44.27491632551447" lon="11.388854993570353"><ele>275.4</ele><time>2026-05-02T09:41:36.962Z</time></trkpt><trkpt lat="44.274998534500284" lon="11.388767596597864"><ele>274.6</ele><time>2026-05-02T09:41:38.962Z</time></trkpt><trkpt lat="44.2750889483326" lon="11.388696491443515"><ele>273.8</ele><time>2026-05-02T09:41:40.962Z</time></trkpt><trkpt lat="44.27517387323439" lon="11.388607347343925"><ele>273.0</ele><time>2026-05-02T09:41:42.962Z</time></trkpt><trkpt lat="44.27524248645278" lon="11.388600367411522"><ele>276.8</ele><time>2026-05-02T09:41:43.962Z</time></trkpt><trkpt lat="44.27532649322109" lon="11.388532344272642"><ele>280.6</ele><time>2026-05-02T09:41:45.962Z</time></trkpt><trkpt lat="44.27542879019944" lon="11.388459647574415"><ele>284.4</ele><time>2026-05-02T09:41:47.962Z</time></trkpt><trkpt lat="44.27552923114695" lon="11.388403882850072"><ele>288.2</ele><time>2026-05-02T09:41:49.962Z</time></trkpt><trkpt lat="44.27559227757009" lon="11.388402322474128"><ele>292.0</ele><time>2026-05-02T09:41:50.962Z</time></trkpt><trkpt lat="44.27571176310877" lon="11.388441737680509"><ele>292.66666666666663</ele><time>2026-05-02T09:41:52.962Z</time></trkpt><trkpt lat="44.275781784469736" lon="11.38847191068779"><ele>293.3333333333333</ele><time>2026-05-02T09:41:53.962Z</time></trkpt><trkpt lat="44.27584047715891" lon="11.388524936690825"><ele>294.0</ele><time>2026-05-02T09:41:54.962Z</time></trkpt><trkpt lat="44.27594472312538" lon="11.388599312351687"><ele>294.6666666666667</ele><time>2026-05-02T09:41:56.962Z</time></trkpt><trkpt lat="44.27600442101117" lon="11.388660355829039"><ele>295.33333333333337</ele><time>2026-05-02T09:41:57.962Z</time></trkpt><trkpt lat="44.2760625383281" lon="11.388715302895552"><ele>296.0</ele><time>2026-05-02T09:41:58.962Z</time></trkpt><trkpt lat="44.276121741743914" lon="11.38877270780165"><ele>296.0</ele><time>2026-05-02T09:41:59.963Z</time></trkpt><trkpt lat="44.27617737645709" lon="11.388828736307133"><ele>296.0</ele><time>2026-05-02T09:42:00.963Z</time></trkpt><trkpt lat="44.27623077816784" lon="11.388879938185747"><ele>296.0</ele><time>2026-05-02T09:42:01.963Z</time></trkpt><trkpt lat="44.27628358171567" lon="11.38893113744209"><ele>296.0</ele><time>2026-05-02T09:42:02.964Z</time></trkpt><trkpt lat="44.276335356472146" lon="11.388985432515335"><ele>296.0</ele><time>2026-05-02T09:42:03.963Z</time></trkpt><trkpt lat="44.276394649089745" lon="11.389036719712255"><ele>296.0</ele><time>2026-05-02T09:42:04.963Z</time></trkpt><trkpt lat="44.27650633117451" lon="11.38912670230345"><ele>292.6</ele><time>2026-05-02T09:42:06.964Z</time></trkpt><trkpt lat="44.27662232063731" lon="11.389201764269474"><ele>289.20000000000005</ele><time>2026-05-02T09:42:08.963Z</time></trkpt><trkpt lat="44.27672753519278" lon="11.3892833907386"><ele>285.79999999999995</ele><time>2026-05-02T09:42:10.963Z</time></trkpt><trkpt lat="44.276783478029735" lon="11.389343967012458"><ele>282.4</ele><time>2026-05-02T09:42:11.964Z</time></trkpt><trkpt lat="44.27680402704377" lon="11.389436343407505"><ele>279.0</ele><time>2026-05-02T09:42:12.963Z</time></trkpt><trkpt lat="44.276818276898744" lon="11.389546279940939"><ele>279.0</ele><time>2026-05-02T09:42:13.963Z</time></trkpt><trkpt lat="44.276837991963866" lon="11.389640381351281"><ele>279.0</ele><time>2026-05-02T09:42:14.963Z</time></trkpt><trkpt lat="44.27685070199577" lon="11.389732732214524"><ele>267.0</ele><time>2026-05-02T09:42:15.963Z</time></trkpt><trkpt lat="44.276847010830664" lon="11.389824124128685"><ele>267.0</ele><time>2026-05-02T09:42:16.963Z</time></trkpt><trkpt lat="44.276776412898904" lon="11.389939651553634"><ele>267.0</ele><time>2026-05-02T09:42:18.963Z</time></trkpt></trkseg></trk></gpx>